[[{"header":{"parameterUnit":"m.s-1","parameterCategory":2,"la1":30.5641,"la2":29.4642,"lo1":-89.4342,"lo2":-87.9343,"dy":0.0333,"dx":0.0333,"nx":46,"ny":34,"refTime":"2025-11-10T00:00:00:Z","depth":"0","parameterNumber":2,"parameterNumberName":"U-component_of_CURRENTS"},"data":[0,0,0,0,0,0,0,0,0,0,0,0,0,0,0,0,0,0,0,0,0,0,0,0,0,0,0,0,0,0,0,0,0,0,0,0,0,0,0,0,0,-0.1129,-0.1942,-0.1667,-0.1302,0,0,0,0,0,0,0,0,0,0,0,0,0,0,0,0,0,0,0,0,0,0,0,0,0,0,0,0,0,0,0,0,0,0,0,0,0,0,0,0,0,0,-0.0321,-0.0393,-0.0838,-0.1294,0,0,0,0,0,0,0,0,0,0,0,0,0,0,0,0,0,0,0,0,0,0,0,0,0,0,0,0,0,0,0,0,0,0,0,0,0,0,0,0,0,0,0.006,-0.0423,-0.1145,-0.1198,0,0,0,0,0,0,0,0,0,0,0,0,0,0,0,0,0,0,0,0,0,0,0,0,0,0,0,0,0,0,0,0,0,0,0,0,0,0,0,0,0,0,-0.0747,-0.0346,-0.111,-0.1151,0,0,0,0,0,0,0,0,0,0,0,0,0,0,0,0,0,0,0,0,0,0,0,0,0,0,0,0,0,0,0,0,0,0,0,0,0,0,0,0,0,-0.075,-0.0648,-0.0113,-0.0637,-0.0832,0,0,0,0,0,0,0,0,0,0,0,0,0,0,0,0,0,0,0,0,0,0,0,0,0,0,0,0,0,0,0,0,0,0,0,0,0,0,0,0,0,-0.0096,-0.0409,-0.0541,-0.0585,-0.0607,0,0,0,0,0,0,0,0,0,0,0,0,0.0069,0.0214,0.0338,0.0417,0.047,0.0467,0.0398,0.0275,0.0206,0,0,0,0,0,0,0,0,0,0,0,0,-0.0047,-0.0085,-0.0077,0,0,0,0,0,0.0005,-0.0247,-0.0621,-0.0843,-0.0643,0,0,0,0,0,0,0,0,0,0.0154,0.0321,0.0354,0.0376,0.0393,0.042,0.0475,0.053,0.0536,0.0439,0.0283,0.0393,0.0541,0.0327,-0.0472,-0.1074,-0.1134,-0.1214,0,0,0,0,-0.0008,-0.0049,-0.0124,-0.0286,-0.0407,0,0,0,0,0,-0.0264,-0.0602,-0.086,-0.1143,-0.0934,0,0,0,0,0.0008,0.0283,0.0613,0.0722,0.0783,0.0747,0.0731,0.0662,0.0492,0.0401,0.0423,0.0525,0.0665,0.0766,0.0618,0.0338,0.0239,0.0302,0.045,0.0731,0.0972,0.0173,0.0439,0.1994,0.2307,0.2186,0.2321,0.2151,0.1404,0.0505,-0.0332,-0.0478,-0.0308,-0.0349,-0.0783,-0.1382,-0.1728,-0.1373,-0.078,-0.0937,-0.1079,-0.1041,0,0,0,0.0368,0.0843,0.095,0.0846,0.0673,0.056,0.0645,0.0851,0.0835,0.0665,0.0514,0.0442,0.0494,0.0777,0.1173,0.1038,0.0544,0.0148,0.006,0.031,0.0525,0.0667,0.0662,0.0997,0.1835,0.2266,0.2046,0.1535,0.1302,0.1294,0.0917,0.0258,-0.0071,-0.0115,-0.0005,0.0187,0,0,0,-0.0461,-0.1371,-0.1423,-0.0862,0,0,0.0464,0.0967,0.0948,0.086,0.0733,0.0547,0.0423,0.0387,0,0,0,0.0321,0.0475,0.028,0.0244,0,0.0132,0.0261,0.0255,0,0,0,0,0,0,0,-0.07,-0.0665,0.0415,0.1134,0.1373,0.1088,0.0937,0,0,-0.0055,0.0244,0.025,-0.0541,-0.1585,-0.1137,-0.008,0,0,0,0.0442,0.1071,0.1134,0.0959,0.0865,0.0819,0.0772,0.0676,0.0596,0.0816,0.1167,0.1423,0.1329,0.109,0,0,0.0135,0.0407,0.0623,0.1,0.1244,0.1068,0.081,0.0596,0.0472,0.0319,0.014,0.0066,0,0,0,0.0038,0.0041,0.0569,0.1162,0.0519,-0.0305,-0.0201,-0.0071,-0.0113,-0.0022,0,0.039,0.1068,0.1458,0.161,0.0816,0.1,0.0972,0.0871,0.0879,0.0959,0.1052,0.0956,0.0802,0.0819,0.0953,0.1027,0.1044,0.1104,0.1154,0.1126,0.0992,0.0838,0.086,0.1003,0.1057,0.0939,0.0777,0.0621,0.0489,0.0382,0.0299,0.042,0.0555,0.0613,0.0453,0.0203,0.0143,0.0308,0.0637,0.0676,0.0445,0.0214,0.0055,-0.0184,-0.0291,-0.0964,-0.0802,0.0374,0.0736,0.0733,0,0.0313,0.0744,0.0937,0.0972,0.0931,0,0,0.0154,0.0483,0.0711,0.0772,0.0819,0.0942,0.1049,0.1085,0.1071,0.1049,0.1025,0.0972,0.0876,0.0753,0.0651,0.0571,0.0497,0.0445,0.042,0.0494,0.0552,0.0478,0.0352,0.0308,0.0374,0.0497,0.0503,0.0349,0.0305,0.0407,0.058,0.0615,0.0541,0.0258,-0.0003,0.008,0.0126,0.0016,-0.0044,0.031,0.0736,0.1008,0.0893,0,0,0,0.022,0.0607,0.0813,0.0805,0.0744,0.0775,0.0865,0.0961,0.111,0.1217,0.1151,0.0989,0.0824,0.0678,0.0577,0.0511,0.0475,0.0467,0.0472,0.0481,0.0456,0.0387,0.0313,0.0286,0.0316,0.0354,0.0363,0.0319,0.025,0.0211,0.0266,0.0379,0.0492,0.0569,0.0505,0.0335,0.0176,0.008,-0.0124,0.0478,0.12,0,0,0,0,0,0.0261,0.067,0.0838,0.0802,0.0678,0.0618,0.0656,0.0739,0.1082,0.142,0.1285,0.0989,0.0783,0.0618,0.05,0.0434,0.0412,0.0412,0.042,0.0426,0.042,0.0412,0.0412,0.0423,0.0415,0.0365,0.031,0.0275,0.0244,0.0214,0.0206,0.0211,0.0222,0.0236,0.0272,0.0327,0.0343,0.0286,0,0,0.019,0.045,0.05,0.0478,0,0,0.0228,0.0558,0.0634,0.0563,0.0464,0.0409,0.0415,0.0379,0.0332,0,0.0343,0.0673,0.0615,0.0503,0.0401,0.0346,0.0335,0.0349,0.0363,0.0371,0.0357,0.0343,0.0335,0.0299,0.0239,0.017,0.0129,0.0132,0.0176,0.0217,0.0222,0.0201,0.0162,0.0121,0.0085,0.0066,0.0055,0.0027,0,0,0.0461,0.0956,0.1121,0.1453,0.1686,0.1478,0.092,0.0514,0.0346,0.0244,0.0211,0.0222,0.0253,0.028,0.0151,0.0014,0,0.0143,0.0341,0.0357,0.0288,0.0264,0.0288,0.0341,0.0327,0.0242,0.0135,0.0036,-0.0036,-0.0071,-0.0069,-0.0044,-0.0011,0.0033,0.0102,0.0176,0.0217,0.0217,0.0184,0.0135,0.008,0.0027,-0.0016,-0.0049,0,0,0,0.0107,0.0214,0,0,0,0.0011,0.0049,0.0077,0.0074,0.008,0.0107,0.0143,0.0151,0.0077,0.0014,0,0.0085,0.0222,0.0236,0.0181,0.019,0.0275,0.0338,0.0288,0.0192,0.0091,-0.0011,-0.0063,-0.0038,0.0022,0.0074,0.0107,0.0124,0.0129,0.0126,0.0129,0.014,0.0157,0.0168,0.0159,0.0121,0.0058,-0.0008,0,0,0,0,0,0,0,0.0069,0.0135,0.0115,0.0088,0.006,0.0049,0.0071,0.0093,0.0063,0.0,-0.0025,0,0.0055,0.0146,0.0146,0.0107,0.0146,0.0266,0.0352,0.0335,0.0291,0.0225,0.0179,0.0195,0.0228,0.0242,0.0258,0.0275,0.0288,0.0291,0.0269,0.0214,0.0132,0.0058,0.0044,0.0052,0.0044,0.0047,0.0038,0,0,0,0,0,0,0.0036,0.0066,0.0066,0.008,0.008,0.0058,0.0044,0.006,0.006,-0.0049,-0.014,-0.0137,0,0.003,0.008,0.0071,0.0049,0.0107,0.0244,0.0352,0.0368,0.0365,0.0363,0.0357,0.0316,0.0269,0.0255,0.0255,0.0269,0.0294,0.033,0.0363,0.0376,0.0349,0.0239,0.0071,-0.006,-0.0096,-0.0071,-0.0036,0,0,0,0,0,0,-0.0019,-0.0005,0.0038,0.0055,0.0052,0.0041,0.0022,0.0036,0.0044,0.0027,0,0,0,0.0003,0.0016,0.0,-0.0011,0.0052,0.0203,0.0327,0.0354,0.0371,0.0407,0.036,0.0258,0.0222,0.0228,0.0244,0.0253,0.0261,0.0283,0.0324,0.0374,0.0415,0.0434,0.0393,0.0236,0.0041,-0.0069,-0.0055,0,0,0,0,0,0,-0.0008,0.0003,0.003,0.0036,0.003,0.0016,-0.0047,-0.0014,0.0036,0.0019,0.0036,0,0,-0.0019,-0.0044,-0.0063,-0.0071,-0.0011,0.0143,0.0283,0.0319,0.0338,0.0382,0.0308,0.0184,0.0165,0.0198,0.0239,0.0266,0.0266,0.0264,0.0272,0.0299,0.0346,0.0401,0.0437,0.0428,0.0352,0.0239,0.0151,0,0,0,0,0,-0.0014,-0.0008,0.0025,0.0047,0.0044,0.003,0.0022,0.0022,0,-0.0036,-0.0036,0.0,0,0,-0.0044,-0.0096,-0.0113,-0.0118,-0.0071,0.0077,0.0214,0.0247,0.0291,0.0338,0.0363,0.0302,0.0198,0.0184,0.0228,0.0288,0.0332,0.033,0.0297,0.0272,0.0272,0.0305,0.0368,0.0423,0.0434,0.0396,0.0341,0,-0.0225,-0.0225,-0.0157,0,-0.0014,-0.0036,-0.0003,0.0055,0.0066,0.0047,0.0044,0.0036,-0.0049,-0.0088,-0.006,-0.0066,0,-0.0124,-0.0181,-0.011,-0.0124,-0.0146,-0.0115,0.0027,0.0162,0.019,0.022,0.0286,0.0343,0.0398,0.0401,0.031,0.0255,0.0286,0.0374,0.0459,0.0442,0.0349,0.0269,0.0239,0.0272,0.0341,0.0404,0.0437,0.0439,0,0.0135,0,-0.0041,-0.0085,0,-0.0038,-0.0008,0.0091,0.0115,0.0088,0.0049,0.0014,-0.0082,-0.0184,-0.0228,-0.025,0,-0.008,-0.0146,-0.0132,-0.0143,-0.0168,-0.0148,-0.0005,0.0126,0.014,0.0187,0.0244,0.0266,0.0302,0.039,0.0453,0.0409,0.0354,0.0382,0.0489,0.0599,0.0544,0.0379,0.0253,0.0211,0.0255,0.0357,0.0478,0.058,0,0.0033,0.0019,0.0011,0.0074,0.0124,0.0151,0.0159,0.0181,0.0179,0.0135,0.0074,-0.0011,-0.0173,-0.0346,-0.0407,0,-0.0025,-0.0022,-0.0022,-0.0074,-0.0124,-0.0162,-0.0159,-0.0011,0.0099,0.0121,0.0198,0.0239,0.028,0.0368,0.0448,0.0533,0.0585,0.0536,0.0483,0.0508,0.0645,0.0714,0.0552,0.0335,0.022,0.025,0.0404,0.0618,0.0802,-0.0214,-0.0132,0.0003,0.0058,0.0096,0.011,0.014,0.0201,0.0231,0.0214,0.0179,0.0121,-0.0019,-0.0401,-0.0678,0,0.0198,0.0363,0.0211,0.0038,-0.0049,-0.0102,-0.0135,-0.0102,0.0044,0.0099,0.0121,0.0233,0.0316,0.0426,0.0571,0.0692,0.0744,0.0758,0.0739,0.0667,0.0607,0.0637,0.072,0.0665,0.0478,0.0385,0.0448,0.0569,0.0676,0.0769,-0.0055,0.0003,0.0074,0.0102,0.0113,0.0129,0.0165,0.0214,0.0242,0.0242,0.0264,0.0302,0.028,0.0244,0,0.0277,0.0623,0.0599,0.0338,0.0093,-0.0022,-0.008,-0.0099,0.003,0.0143,0.0132,0.0203,0.0343,0.05,0.0659,0.0777,0.0824,0.0783,0.0692,0.0681,0.0728,0.0747,0.0753,0.0761,0.0731,0.0654,0.0571,0.0497,0.0426,0.0343,0.0343,0.0027,0.008,0.0102,0.011,0.0115,0.0132,0.0173,0.0225,0.025,0.0272,0.0374,0.0547,0.0725,0.1162,0.1475,0.1236,0.089,0.0599,0.0327,0.0129,0.0025,-0.0027,0.0016,0.0148,0.0173,0.0184,0.0341,0.0544,0.0714,0.0843,0.0865,0.0761,0.0607,0.0475,0.0467,0.0574,0.07,0.0753,0.0709,0.0621,0.0536,0.0365,0.0055,-0.0222,-0.031,-0.0272,0.0088,0.0113,0.0121,0.0124,0.0126,0.0135,0.017,0.0253,0.0319,0.0321,0.0352,0.0678,0.092,0.1033,0.1104,0.092,0.0703,0.0494,0.033,0.0206,0.0129,0.0096,0.0165,0.0217,0.0214,0.0346,0.0582,0.0775,0.089,0.0937,0.0835,0.0615,0.0404,0.025,0.0143,0.0157,0.0305,0.0401,0.0398,0.0316,0.0143,-0.0195,-0.0461,-0.053,-0.0505,-0.05,0.0126,0.0143,0.014,0.014,0.0143,0.0143,0.0157,0.0319,0.0602,0.0632,0.0525,0,0.0299,0.0772,0.0989,0.1025,0.0994,0.0928,0.0799,0.0613,0.045,0.0385,0.0354,0.0319,0.0404,0.0645,0.0873,0.0983,0.0983,0.0876,0.0651,0.0448,0.0283,-0.0027,-0.0368,-0.0332,-0.0099,-0.0016,-0.0033,-0.0107,-0.0288,-0.0467,-0.0335,-0.0148,-0.0077,-0.0049,0.0168,0.017,0.0159,0.0159,0.0168,0.0151,0.0014,-0.0102,0,0.0357,0.0849,0.086,0.092,0.1189,0.1349,0.1467,0.1568,0.1637,0.1566,0.1316,0.0981,0.0731,0.061,0.064,0.0821,0.103,0.1151,0.1118,0.0945,0.0673,0.0368,0.0233,0.0132,-0.0305,-0.0846,-0.0849,-0.0503,-0.0401,-0.0456,-0.0536,-0.058,-0.0294,0.017,0.0343,0.0286,0.0168,0.0176,0.0148,0.0148,0.0187,0.0231,0.0231,0.0209,0,-0.0055,0.0316,0.0989,0.1321,0.1428,0.1585,0.1807,0.2002,0.2233,0.2513,0.2749,0.2782,0.2483,0.1868,0.1351,0.1236,0.1316,0.1338,0.1231,0.0994,0.0667,0.033,0.0071,0.0052,0.0049,-0.0283,-0.0819,-0.1046,-0.0879,-0.0744,-0.0777,-0.0827,-0.0681,-0.0225,0.011,0.0066,-0.0058,-0.0217]},{"header":{"parameterUnit":"m.s-1","parameterCategory":2,"la1":30.5641,"la2":29.4642,"lo1":-89.4342,"lo2":-87.9343,"dy":0.0333,"dx":0.0333,"nx":46,"ny":34,"refTime":"2025-11-10T00:00:00:Z","depth":"0","parameterNumber":3,"parameterNumberName":"V-component_of_CURRENTS"},"data":[0,0,0,0,0,0,0,0,0,0,0,0,0,0,0,0,0,0,0,0,0,0,0,0,0,0,0,0,0,0,0,0,0,0,0,0,0,0,0,0,0,-0.0838,-0.0692,0.0901,0.0058,0,0,0,0,0,0,0,0,0,0,0,0,0,0,0,0,0,0,0,0,0,0,0,0,0,0,0,0,0,0,0,0,0,0,0,0,0,0,0,0,0,0,-0.103,0.0069,0.1552,-0.0126,0,0,0,0,0,0,0,0,0,0,0,0,0,0,0,0,0,0,0,0,0,0,0,0,0,0,0,0,0,0,0,0,0,0,0,0,0,0,0,0,0,0,-0.1579,0.075,0.1464,-0.0357,0,0,0,0,0,0,0,0,0,0,0,0,0,0,0,0,0,0,0,0,0,0,0,0,0,0,0,0,0,0,0,0,0,0,0,0,0,0,0,0,0,0,-0.1692,0.0906,0.1261,-0.0319,0,0,0,0,0,0,0,0,0,0,0,0,0,0,0,0,0,0,0,0,0,0,0,0,0,0,0,0,0,0,0,0,0,0,0,0,0,0,0,0,0,-0.0755,-0.0777,0.0923,0.1099,-0.0121,0,0,0,0,0,0,0,0,0,0,0,0,0,0,0,0,0,0,0,0,0,0,0,0,0,0,0,0,0,0,0,0,0,0,0,0,0,0,0,0,0,-0.0761,-0.0063,0.0673,0.0794,0.0005,0,0,0,0,0,0,0,0,0,0,0,0,0.0277,0.025,0.0195,0.0129,0.0069,0.0003,-0.006,-0.0115,-0.0357,0,0,0,0,0,0,0,0,0,0,0,0,-0.0022,0.0041,-0.0044,0,0,0,0,0,-0.0676,-0.0126,0.0203,0.047,0.0093,0,0,0,0,0,0,0,0,0,0.0431,0.0464,0.0277,0.0222,0.0236,0.022,0.0165,0.0063,-0.0099,-0.0255,-0.0319,-0.0448,-0.022,-0.0272,-0.0121,-0.0082,0.039,-0.1821,0,0,0,0,0.0146,0.0157,-0.0036,0.008,-0.0055,0,0,0,0,0,-0.0986,-0.0283,-0.0253,0.011,0.0121,0,0,0,0,0.0467,0.0777,0.0678,0.0599,0.0591,0.0475,0.0442,0.0319,0.0201,0.0258,0.0297,0.0255,0.017,-0.0124,-0.0505,-0.0571,-0.0536,-0.022,-0.0168,-0.0027,0.0,0.0591,-0.114,-0.0651,-0.0967,-0.0717,-0.0357,-0.0275,-0.0354,-0.0349,-0.0157,-0.0181,-0.0291,-0.089,-0.0687,0.0,0.0,-0.064,-0.0445,-0.0387,-0.0016,0.0102,0,0,0,0.0722,0.0761,0.0854,0.0656,0.0538,0.0549,0.0676,0.0211,0.0179,0.0118,0.0439,0.036,0.0365,0.0456,-0.0022,-0.0722,-0.0656,-0.0541,-0.011,-0.0033,0.0033,0.0041,0.0396,-0.0231,-0.0324,-0.117,-0.0613,-0.0371,-0.075,-0.1049,-0.1046,-0.0599,-0.0148,-0.0146,-0.0937,-0.1033,0,0,0,-0.1434,-0.0742,0.0033,0.0069,0,0,0.0843,0.0873,0.0992,0.0865,0.061,0.0404,0.0363,0.056,0,0,0,0.0775,0.0472,0.0211,0.0313,0,-0.0563,-0.0602,-0.084,0,0,0,0,0,0,0,-0.095,-0.0253,-0.0192,-0.0401,-0.1568,-0.1538,-0.1046,0,0,-0.0906,-0.1368,-0.0494,-0.0758,-0.0332,-0.1159,-0.1675,0,0,0,0.0706,0.1115,0.095,0.0783,0.0802,0.0648,0.0423,0.0354,0.0412,0.0791,0.0599,0.0393,0.0566,0.0124,0,0,0.0544,-0.0088,-0.0404,-0.0851,-0.0085,-0.0011,-0.0041,-0.0014,-0.0038,-0.0055,-0.0176,-0.0637,0,0,0,-0.1621,-0.1453,-0.1401,-0.0786,-0.0365,-0.0753,-0.1123,-0.0676,-0.0835,-0.0629,0,-0.2351,-0.1025,-0.0321,-0.0151,0.0354,0.1241,0.0706,0.07,0.0961,0.1005,0.0258,0.0244,0.0357,0.0604,0.0585,0.05,0.0316,-0.0052,0.028,0.0247,0.0374,0.0036,-0.0255,-0.042,-0.0126,-0.0063,-0.0088,-0.008,-0.0104,-0.0126,-0.0214,-0.0549,-0.0209,-0.0291,-0.0198,-0.092,-0.0915,-0.1044,-0.0571,-0.028,-0.0472,-0.0678,-0.081,-0.0851,-0.0948,-0.0346,-0.1783,-0.0714,-0.0236,-0.0165,0,0.0684,0.0505,0.0791,0.1093,0.0651,0,0,0.0277,0.056,0.0695,0.0681,0.0497,0.0291,0.0305,0.0291,0.0255,0.0052,-0.0154,-0.0228,-0.0165,-0.0124,-0.0135,-0.0146,-0.0165,-0.0187,-0.0209,-0.0253,-0.0157,-0.0209,-0.0179,-0.0363,-0.0387,-0.0426,-0.0291,-0.0187,-0.0239,-0.042,-0.0662,-0.0648,-0.0703,-0.0417,-0.0868,-0.0393,-0.0179,-0.0192,0.095,-0.0082,0.0643,0.0407,0.0536,0,0,0,0.0519,0.0849,0.0871,0.0777,0.0569,0.0412,0.0396,0.0423,0.0431,0.0157,-0.0135,-0.0228,-0.0203,-0.0159,-0.0143,-0.0143,-0.0151,-0.0154,-0.0143,-0.0135,-0.0113,-0.0135,-0.0173,-0.0228,-0.0233,-0.0272,-0.0291,-0.0266,-0.0264,-0.0363,-0.0459,-0.0415,-0.0352,-0.0374,-0.0544,-0.0483,-0.0412,-0.0379,0.0475,-0.0217,0.0244,0,0,0,0,0,0.0865,0.1063,0.0934,0.0799,0.0613,0.0472,0.0492,0.0607,0.0819,0.011,-0.0393,-0.039,-0.0308,-0.0217,-0.0162,-0.014,-0.0132,-0.0132,-0.0129,-0.0135,-0.0146,-0.0168,-0.0222,-0.0286,-0.0327,-0.0398,-0.0445,-0.045,-0.0412,-0.0385,-0.0363,-0.0335,-0.0291,-0.0266,-0.0349,-0.0464,-0.0489,-0.0423,0,0,0.0173,0.0497,0.0288,-0.0327,0,0,0.1134,0.1134,0.0926,0.078,0.0602,0.0478,0.0503,0.0634,0.0904,0,-0.0305,-0.0549,-0.039,-0.0253,-0.0176,-0.0146,-0.014,-0.0159,-0.0211,-0.0258,-0.0286,-0.0297,-0.0352,-0.0417,-0.0459,-0.05,-0.0519,-0.053,-0.0514,-0.0442,-0.0387,-0.0368,-0.0352,-0.0321,-0.0313,-0.0338,-0.0338,-0.0272,0,0,0.0335,0.0407,0.0453,-0.0162,0.0,0.0,0.0978,0.0865,0.0783,0.0681,0.0533,0.0434,0.0434,0.0497,0.0599,0.0201,0,-0.0456,-0.0341,-0.0239,-0.0181,-0.0168,-0.0173,-0.0272,-0.0376,-0.0434,-0.0448,-0.0415,-0.0439,-0.0464,-0.0467,-0.0459,-0.0456,-0.0467,-0.0483,-0.0461,-0.0423,-0.0412,-0.0417,-0.0417,-0.0404,-0.0382,-0.0343,-0.028,0,0,0,0.0157,0.031,0,0,0,0.0621,0.053,0.0563,0.0522,0.0434,0.0363,0.0338,0.0349,0.0349,0.0162,0,-0.0247,-0.0233,-0.0214,-0.0198,-0.0198,-0.0222,-0.0396,-0.0497,-0.0527,-0.0527,-0.0456,-0.0409,-0.0335,-0.0297,-0.0288,-0.0302,-0.0341,-0.039,-0.0426,-0.0448,-0.0461,-0.0467,-0.05,-0.0525,-0.0519,-0.047,-0.0376,0,0,0,0,0,0,0,0.0368,0.0409,0.039,0.0393,0.0368,0.0324,0.0288,0.0239,0.0222,0.0198,0.0104,0,-0.0154,-0.0176,-0.0209,-0.0222,-0.0222,-0.0239,-0.0423,-0.0536,-0.0577,-0.0574,-0.0453,-0.0247,-0.0113,-0.0088,-0.0107,-0.0143,-0.0198,-0.0264,-0.033,-0.039,-0.0453,-0.0489,-0.0522,-0.0574,-0.0629,-0.0634,-0.0547,0,0,0,0,0,0,0.0308,0.0327,0.0297,0.0277,0.028,0.0266,0.0236,0.0214,0.0137,0.0077,0.0085,0.0044,0,-0.0126,-0.0159,-0.0214,-0.0242,-0.0225,-0.0203,-0.0376,-0.0525,-0.0591,-0.0591,-0.0352,-0.0033,0.0036,0.0011,-0.0027,-0.0069,-0.0118,-0.0176,-0.0231,-0.0283,-0.0349,-0.0428,-0.0505,-0.058,-0.0659,-0.0717,-0.0687,0,0,0,0,0,0,0.0302,0.0291,0.0253,0.0222,0.0211,0.0195,0.0157,0.017,0.0063,-0.0044,0,0,0,-0.0137,-0.017,-0.022,-0.0244,-0.0214,-0.0151,-0.0308,-0.0481,-0.0566,-0.0563,-0.0214,0.0055,0.0066,0.0047,0.0011,-0.003,-0.008,-0.014,-0.0198,-0.0239,-0.0272,-0.033,-0.0442,-0.056,-0.0665,-0.0722,-0.0714,0,0,0,0,0,0,0.0294,0.0283,0.0231,0.0179,0.0143,0.011,0.0052,0.0082,0.0005,-0.0047,0.0022,0,0,-0.019,-0.0206,-0.0233,-0.0247,-0.0209,-0.0115,-0.0253,-0.0428,-0.0522,-0.0481,-0.0154,0.0071,0.0107,0.0096,0.0069,0.0027,-0.003,-0.0102,-0.0181,-0.0242,-0.0277,-0.0308,-0.0379,-0.0486,-0.0596,-0.0656,-0.0637,0,0,0,0,0,0.0165,0.0264,0.0247,0.0195,0.0124,0.006,0.0011,-0.0041,0,-0.0102,-0.0047,-0.0003,0,0,-0.0291,-0.0255,-0.0255,-0.0253,-0.0217,-0.011,-0.0233,-0.0398,-0.0459,-0.0387,-0.0168,0.0036,0.0124,0.0148,0.0137,0.0107,0.0052,-0.0036,-0.0137,-0.0231,-0.0305,-0.0346,-0.0385,-0.0453,-0.0519,-0.0552,-0.0525,0,0.0074,0.0,0.0121,0,0.0082,0.0231,0.0201,0.0146,0.0063,-0.0016,-0.0082,-0.011,-0.0049,-0.0181,-0.0091,-0.003,0,-0.0096,-0.0299,-0.0291,-0.0275,-0.0258,-0.0233,-0.0132,-0.0253,-0.0376,-0.0398,-0.0346,-0.0217,-0.0088,0.0,0.0115,0.017,0.0165,0.0129,0.0041,-0.0085,-0.0209,-0.0316,-0.0393,-0.0412,-0.0426,-0.0453,-0.0456,-0.0412,0,-0.0118,0,0.0096,0.0096,0,0.0211,0.0176,0.0099,-0.0003,-0.0096,-0.0184,-0.0228,-0.0201,-0.0233,-0.014,-0.0019,0,-0.0159,-0.0233,-0.0283,-0.028,-0.0272,-0.0261,-0.0179,-0.0319,-0.0398,-0.0417,-0.0374,-0.0272,-0.017,-0.0099,-0.0008,0.011,0.0168,0.0148,0.0099,-0.0049,-0.0222,-0.0352,-0.0431,-0.0439,-0.0396,-0.036,-0.0341,-0.0299,0,-0.0225,0.0091,0.0091,0.0104,0.0217,0.017,0.011,0.0014,-0.0085,-0.019,-0.0305,-0.0415,-0.0472,-0.0352,-0.008,0,0.0264,-0.0187,-0.025,-0.0277,-0.0291,-0.0305,-0.0302,-0.0283,-0.0442,-0.0497,-0.0503,-0.0431,-0.0297,-0.0146,-0.0025,-0.0022,0.0005,0.0099,0.0124,0.0093,-0.0041,-0.0277,-0.0442,-0.0492,-0.0439,-0.0332,-0.0253,-0.0239,-0.0225,0.0099,-0.0033,0.0115,0.0124,0.0118,0.0165,0.0099,0.0014,-0.0077,-0.017,-0.0277,-0.045,-0.0687,-0.0884,-0.0211,0,0.061,0.0266,-0.0154,-0.0291,-0.0313,-0.0332,-0.036,-0.0349,-0.0475,-0.0585,-0.0591,-0.0585,-0.0467,-0.0198,0.0044,0.0159,0.0115,0.0011,0.0033,0.0096,0.0047,-0.008,-0.0354,-0.0538,-0.0555,-0.0379,-0.0151,-0.0066,-0.0118,-0.0165,0.008,0.0107,0.0151,0.0146,0.0121,0.0093,0.0041,-0.0036,-0.0129,-0.0228,-0.0343,-0.056,-0.0887,-0.1409,0,0.0758,0.0544,0.0154,-0.0198,-0.0332,-0.0371,-0.0407,-0.0437,-0.0478,-0.0656,-0.0687,-0.0651,-0.0585,-0.031,0.0115,0.0346,0.0341,0.0179,0.0022,0.0049,0.014,0.0027,-0.0201,-0.0497,-0.064,-0.0563,-0.0258,0.0005,-0.0113,-0.025,-0.0242,0.0096,0.0162,0.0184,0.0165,0.0118,0.0063,0.0011,-0.0052,-0.0168,-0.0247,-0.036,-0.0514,-0.0838,-0.1233,-0.0036,0.0371,0.0118,-0.0143,-0.0302,-0.0401,-0.0456,-0.0497,-0.0541,-0.0665,-0.0733,-0.0722,-0.0637,-0.0365,0.0102,0.0437,0.0508,0.0349,0.0038,-0.0036,0.022,0.0332,0.0082,-0.033,-0.0681,-0.0758,-0.0552,-0.0266,-0.0431,-0.0706,-0.0555,-0.031,0.017,0.0214,0.0225,0.0184,0.011,0.0033,-0.0003,-0.0038,-0.0176,-0.0277,-0.0404,-0.0217,-0.0884,-0.0794,-0.0321,-0.0299,-0.0382,-0.0401,-0.0439,-0.0492,-0.0544,-0.0591,-0.0695,-0.0791,-0.0747,-0.0634,-0.0368,0.0091,0.0481,0.0552,0.0439,0.0115,-0.0258,0.0008,0.0571,0.0604,0.0126,-0.0434,-0.0794,-0.0786,-0.0645,-0.0777,-0.131,-0.1121,-0.0478,-0.0209,0.0255,0.0272,0.0255,0.0181,0.008,-0.0008,-0.0025,0.0077,-0.0082,-0.0536,-0.0651,0,-0.0676,-0.0665,-0.064,-0.0651,-0.0613,-0.0615,-0.0673,-0.0711,-0.0714,-0.0758,-0.0843,-0.0791,-0.0599,-0.0288,0.0129,0.05,0.0613,0.045,0.0179,-0.0316,-0.0508,0.014,0.0827,0.0725,0.0135,-0.0437,-0.0747,-0.0788,-0.0986,-0.145,-0.1585,-0.0681,-0.0102,-0.0044,0.031,0.0297,0.0239,0.0137,0.0022,-0.0096,-0.019,0.0091,0,-0.0549,-0.0684,-0.0288,-0.0549,-0.0736,-0.0829,-0.0816,-0.0777,-0.0821,-0.0959,-0.1077,-0.106,-0.0956,-0.081,-0.0566,-0.0217,0.0187,0.0536,0.0659,0.0533,0.0214,-0.0168,-0.07,-0.0574,0.014,0.0799,0.061,0.0055,-0.0412,-0.0733,-0.0959,-0.1305,-0.1651,-0.1011,-0.0099,0.0077,-0.0041,0.0286,0.0253,0.0162,0.0055,-0.0058,-0.0217,-0.0525,0,0.0464,-0.0423,-0.0772,-0.0659,-0.0764,-0.0827,-0.0846,-0.0714,-0.0552,-0.0486,-0.0623,-0.0926,-0.1096,-0.095,-0.0615,-0.0184,0.0214,0.053,0.0678,0.0596,0.0316,-0.0074,-0.0464,-0.0769,-0.0503,0.0014,0.061,0.0483,-0.0121,-0.0541,-0.0857,-0.1222,-0.1502,-0.1189,-0.0319,0.006,0.008,0.006]}],[{"header":{"parameterUnit":"m.s-1","parameterCategory":2,"la1":30.5641,"la2":29.4642,"lo1":-89.4342,"lo2":-87.9343,"dy":0.0333,"dx":0.0333,"nx":46,"ny":34,"refTime":"2025-11-10T00:00:00:Z","depth":"2","parameterNumber":2,"parameterNumberName":"U-component_of_CURRENTS"},"data":[0,0,0,0,0,0,0,0,0,0,0,0,0,0,0,0,0,0,0,0,0,0,0,0,0,0,0,0,0,0,0,0,0,0,0,0,0,0,0,0,0,-0.0819,-0.1357,-0.0972,-0.0472,0,0,0,0,0,0,0,0,0,0,0,0,0,0,0,0,0,0,0,0,0,0,0,0,0,0,0,0,0,0,0,0,0,0,0,0,0,0,0,0,0,0,-0.022,-0.0121,-0.0341,-0.0651,0,0,0,0,0,0,0,0,0,0,0,0,0,0,0,0,0,0,0,0,0,0,0,0,0,0,0,0,0,0,0,0,0,0,0,0,0,0,0,0,0,0,0.0008,-0.0214,-0.0591,-0.0547,0,0,0,0,0,0,0,0,0,0,0,0,0,0,0,0,0,0,0,0,0,0,0,0,0,0,0,0,0,0,0,0,0,0,0,0,0,0,0,0,0,0,-0.0494,-0.025,-0.0571,-0.0503,0,0,0,0,0,0,0,0,0,0,0,0,0,0,0,0,0,0,0,0,0,0,0,0,0,0,0,0,0,0,0,0,0,0,0,0,0,0,0,0,0,-0.0407,-0.0439,-0.0047,-0.0195,-0.0283,0,0,0,0,0,0,0,0,0,0,0,0,0,0,0,0,0,0,0,0,0,0,0,0,0,0,0,0,0,0,0,0,0,0,0,0,0,0,0,0,0,0.0005,-0.014,-0.0244,-0.0266,-0.0179,0,0,0,0,0,0,0,0,0,0,0,0,0.0085,0.0236,0.0349,0.0428,0.0481,0.0497,0.0472,0.0393,0.0338,0,0,0,0,0,0,0,0,0,0,0,0,0.0019,0.0058,0.0077,0,0,0,0,0,0.0027,-0.017,-0.0459,-0.0626,-0.0442,0,0,0,0,0,0,0,0,0,0.0157,0.033,0.0376,0.0401,0.0396,0.042,0.0492,0.0569,0.0596,0.0516,0.0382,0.05,0.0651,0.0467,-0.0201,-0.0604,-0.017,0.0154,0,0,0,0,0.0008,-0.0022,-0.0085,-0.0217,-0.0324,0,0,0,0,0,-0.0236,-0.05,-0.0687,-0.0956,-0.0777,0,0,0,0,0.0038,0.0335,0.0643,0.0747,0.0805,0.0755,0.0714,0.0645,0.0497,0.0417,0.0437,0.053,0.0673,0.078,0.0648,0.0415,0.0341,0.0374,0.0489,0.0769,0.1025,0.0582,0.0604,0.1274,0.1261,0.1288,0.1478,0.1244,0.0797,0.0319,-0.0291,-0.0428,-0.0272,-0.0332,-0.0744,-0.1203,-0.1491,-0.1233,-0.072,-0.084,-0.0964,-0.0939,0,0,0,0.0294,0.0684,0.0835,0.0805,0.0662,0.0555,0.0607,0.0728,0.0744,0.0673,0.0536,0.0461,0.0503,0.0744,0.109,0.0994,0.0566,0.0206,0.0157,0.0412,0.0602,0.0711,0.0684,0.0997,0.1601,0.1783,0.1648,0.1115,0.0706,0.0794,0.0676,0.0206,-0.0038,-0.0049,0.0022,0.0168,0,0,0,-0.047,-0.131,-0.1285,-0.075,0,0,0.0409,0.0868,0.0879,0.0821,0.0717,0.0547,0.0431,0.0404,0,0,0,0.0324,0.0505,0.0327,0.0291,0,0.0143,0.0283,0.028,0,0,0,0,0,0,0,-0.0588,-0.0794,0.0071,0.0901,0.1115,0.0912,0.084,0,0,-0.0052,0.0214,0.0244,-0.0461,-0.1464,-0.1057,-0.0074,0,0,0,0.0404,0.0994,0.1068,0.0909,0.084,0.0805,0.0758,0.067,0.0621,0.0871,0.1239,0.1458,0.1324,0.1085,0,0,0.0143,0.0423,0.0643,0.0983,0.1184,0.1025,0.0799,0.0599,0.0464,0.0332,0.0181,0.0104,0,0,0,0.0019,0.0019,0.0503,0.1049,0.0453,-0.0302,-0.0198,-0.0077,-0.0126,-0.0044,0,0.0313,0.064,0.0857,0.1055,0.1005,0.1,0.0906,0.0843,0.0862,0.0917,0.1014,0.0953,0.081,0.0827,0.0959,0.1035,0.1052,0.1112,0.1145,0.109,0.0959,0.0827,0.0857,0.0997,0.1052,0.0937,0.078,0.0626,0.0494,0.0387,0.031,0.0431,0.056,0.0599,0.0434,0.0201,0.014,0.0297,0.0615,0.0656,0.0437,0.0211,0.0052,-0.0192,-0.0291,-0.0915,-0.0829,0.0231,0.0604,0.0585,0,0.0247,0.067,0.0909,0.0939,0.0909,0,0,0.0165,0.05,0.072,0.078,0.0827,0.0942,0.1041,0.1068,0.1052,0.1033,0.1019,0.0975,0.0879,0.0755,0.0654,0.0571,0.05,0.0448,0.0426,0.05,0.0555,0.0475,0.0349,0.0302,0.0371,0.0492,0.0494,0.0341,0.0297,0.0398,0.0569,0.0602,0.053,0.025,-0.0011,0.0069,0.0113,-0.0008,0.0049,0.0341,0.0753,0.106,0.095,0,0,0,0.0228,0.0618,0.0813,0.0808,0.0753,0.0777,0.086,0.095,0.1088,0.1187,0.1126,0.0981,0.0821,0.0681,0.058,0.0514,0.0478,0.0467,0.0472,0.0481,0.0453,0.0385,0.0313,0.0286,0.0313,0.0349,0.0354,0.031,0.0242,0.0206,0.0258,0.0371,0.0481,0.0555,0.0492,0.0324,0.0165,0.0063,0.0044,0.0662,0.1233,0,0,0,0,0,0.0269,0.0678,0.0835,0.0802,0.0687,0.0623,0.0654,0.0739,0.1052,0.1349,0.122,0.0964,0.078,0.0621,0.0505,0.0439,0.0415,0.0415,0.042,0.0426,0.042,0.0409,0.0412,0.042,0.0412,0.0363,0.0305,0.0269,0.0239,0.0209,0.0201,0.0206,0.0214,0.0225,0.0261,0.0313,0.033,0.0272,0,0,0.0217,0.05,0.0544,0.0519,0,0,0.0242,0.0574,0.0643,0.0571,0.0475,0.042,0.042,0.0385,0.0341,0,0.0341,0.0667,0.0615,0.0511,0.0409,0.0352,0.0341,0.0352,0.0363,0.0371,0.0357,0.0343,0.0332,0.0297,0.0236,0.0168,0.0126,0.0129,0.0173,0.0214,0.0217,0.0195,0.0157,0.0115,0.0077,0.0058,0.0047,0.0016,0,0,0.0434,0.0942,0.1118,0.1431,0.1648,0.1431,0.0923,0.0541,0.0368,0.0261,0.0228,0.0236,0.0261,0.0288,0.0157,0.0014,0,0.0146,0.0346,0.0365,0.0299,0.0272,0.0294,0.0343,0.0327,0.0242,0.0135,0.0036,-0.0036,-0.0071,-0.0069,-0.0044,-0.0014,0.003,0.0102,0.0173,0.0214,0.0214,0.0179,0.0129,0.0074,0.0022,-0.0022,-0.0055,0,0,0,0.0129,0.0258,0,0,0,0.0033,0.0088,0.0104,0.0096,0.0096,0.0121,0.0154,0.0162,0.0088,0.0019,0,0.0088,0.0225,0.0244,0.0195,0.0198,0.0277,0.0338,0.0288,0.0192,0.0091,-0.0014,-0.0066,-0.0041,0.0022,0.0074,0.0104,0.0121,0.0129,0.0126,0.0126,0.0137,0.0154,0.0165,0.0157,0.0118,0.0055,-0.0011,0,0,0,0,0,0,0,0.0096,0.0179,0.0146,0.0113,0.0082,0.0069,0.0085,0.0102,0.0071,0.0016,-0.0008,0,0.0058,0.0148,0.0157,0.0121,0.0154,0.0269,0.0354,0.0338,0.0291,0.0222,0.0176,0.0195,0.0228,0.0242,0.0258,0.0275,0.0288,0.0291,0.0269,0.0214,0.0132,0.0058,0.0044,0.0049,0.0044,0.0044,0.0036,0,0,0,0,0,0,0.0063,0.0115,0.0107,0.0113,0.0107,0.0085,0.0066,0.0074,0.0069,-0.0036,-0.0099,-0.008,0,0.0033,0.0082,0.0082,0.0063,0.0115,0.0247,0.0354,0.0368,0.0365,0.0363,0.0357,0.0316,0.0269,0.0255,0.0255,0.0269,0.0297,0.033,0.0363,0.0376,0.0349,0.0239,0.0074,-0.006,-0.0096,-0.0071,-0.0036,0,0,0,0,0,0,0.0005,0.0038,0.0074,0.0088,0.0082,0.0069,0.0047,0.0049,0.0055,0.0044,0,0,0,0.0008,0.0022,0.0014,0.0005,0.0063,0.0211,0.0332,0.0357,0.0374,0.0409,0.036,0.0258,0.0222,0.0231,0.0244,0.0253,0.0264,0.0286,0.0327,0.0374,0.0415,0.0434,0.0393,0.0236,0.0044,-0.0066,-0.0055,0,0,0,0,0,0,0.0014,0.0044,0.0066,0.0071,0.006,0.0044,-0.0008,0.0016,0.0049,0.0044,0.0066,0,0,-0.0016,-0.0033,-0.0049,-0.0055,0.0003,0.0151,0.0288,0.0321,0.0341,0.0382,0.031,0.0187,0.0168,0.0198,0.0242,0.0266,0.0269,0.0266,0.0277,0.0305,0.0349,0.0401,0.0437,0.0428,0.0354,0.0242,0.0154,0,0,0,0,0,0.0019,0.0047,0.0069,0.0082,0.0077,0.0063,0.0052,0.0049,0,-0.0019,-0.0011,0.0016,0,0,-0.0033,-0.0074,-0.0093,-0.0099,-0.0058,0.0088,0.0222,0.0255,0.0297,0.0341,0.0365,0.0305,0.0201,0.0187,0.0228,0.0291,0.0335,0.0332,0.0299,0.0277,0.0277,0.031,0.0368,0.0423,0.0434,0.0398,0.0343,0,-0.0099,-0.0085,-0.0041,0,0.0016,0.0025,0.0047,0.0091,0.0099,0.0082,0.0074,0.0074,0.0003,-0.0038,-0.0019,-0.0025,0,-0.0096,-0.014,-0.0082,-0.0096,-0.0118,-0.0093,0.0044,0.0176,0.0198,0.0225,0.0291,0.0349,0.0404,0.0404,0.0316,0.0261,0.0291,0.0376,0.0461,0.0445,0.0354,0.0275,0.0247,0.0277,0.0343,0.0407,0.0439,0.0445,0,0.0203,0,0.0003,0.0008,0,-0.0003,0.0049,0.0126,0.0146,0.0121,0.0088,0.0049,-0.0047,-0.0137,-0.0168,-0.0176,0,-0.006,-0.011,-0.0096,-0.0107,-0.0132,-0.0121,0.0019,0.0143,0.0154,0.0198,0.0253,0.0275,0.031,0.0396,0.0461,0.0417,0.0363,0.039,0.0494,0.0604,0.0549,0.0385,0.0261,0.022,0.0264,0.0363,0.0483,0.0588,0,0.008,0.0121,0.0104,0.0165,0.022,0.0231,0.0214,0.0217,0.0209,0.0168,0.011,0.0025,-0.0126,-0.0269,-0.0316,0,0.0005,0.0027,0.0016,-0.0036,-0.0082,-0.0121,-0.0121,0.0019,0.0126,0.014,0.0214,0.0255,0.0294,0.0382,0.0459,0.0544,0.0593,0.0547,0.0494,0.0519,0.0654,0.072,0.056,0.0343,0.0231,0.0261,0.0415,0.0629,0.081,-0.011,-0.0047,0.0077,0.0135,0.0176,0.019,0.0206,0.025,0.0266,0.0247,0.0211,0.0143,-0.0016,-0.0332,-0.0538,0,0.0211,0.0387,0.0244,0.0085,0.0,-0.0055,-0.0088,-0.006,0.008,0.0132,0.0148,0.0255,0.0335,0.0442,0.0588,0.0709,0.0758,0.0772,0.0753,0.0678,0.0621,0.0648,0.0728,0.0673,0.0489,0.0398,0.0461,0.0585,0.0689,0.0783,0.0016,0.0074,0.0146,0.0176,0.0192,0.0206,0.0231,0.0264,0.0283,0.028,0.0291,0.0297,0.0264,0.0239,0,0.0294,0.0637,0.0596,0.0365,0.014,0.0033,-0.0025,-0.0049,0.0074,0.0184,0.017,0.0233,0.0368,0.0522,0.0681,0.0799,0.0846,0.0799,0.0709,0.0695,0.0744,0.0764,0.0766,0.0775,0.0742,0.0667,0.0585,0.0514,0.0442,0.036,0.036,0.0099,0.0151,0.0179,0.019,0.0198,0.0209,0.0236,0.0275,0.0294,0.0316,0.0382,0.0511,0.0667,0.109,0.1417,0.1211,0.0862,0.0593,0.0357,0.017,0.0069,0.0022,0.0066,0.0195,0.022,0.0222,0.0371,0.0571,0.0744,0.0871,0.0893,0.0786,0.0629,0.0494,0.0489,0.0593,0.072,0.0769,0.0722,0.0634,0.0552,0.0387,0.0074,-0.0203,-0.0291,-0.0253,0.0165,0.019,0.0201,0.0206,0.0209,0.0211,0.0239,0.0302,0.0365,0.0379,0.0376,0.0645,0.0879,0.0989,0.106,0.0873,0.0681,0.0522,0.0374,0.0258,0.0184,0.0151,0.0217,0.0266,0.0258,0.0382,0.0618,0.0808,0.0923,0.097,0.0868,0.0643,0.0428,0.0275,0.017,0.0184,0.0327,0.0423,0.0417,0.0335,0.0165,-0.0173,-0.0442,-0.0511,-0.0486,-0.0478,0.0206,0.0225,0.0225,0.0222,0.0222,0.022,0.0225,0.0371,0.0673,0.0706,0.0571,0,0.0335,0.081,0.0964,0.0981,0.0975,0.0937,0.0827,0.0651,0.0492,0.0434,0.0409,0.0368,0.0445,0.0687,0.0915,0.1025,0.1027,0.0917,0.0687,0.0478,0.0308,0.0,-0.0335,-0.0302,-0.0074,0.0005,-0.0011,-0.0082,-0.0264,-0.0448,-0.0316,-0.0129,-0.0058,-0.003,0.0255,0.0258,0.0247,0.0242,0.0247,0.0225,0.0096,-0.0008,0,0.0376,0.0893,0.0923,0.0964,0.117,0.1288,0.1426,0.1555,0.1623,0.1552,0.1332,0.1027,0.0786,0.0662,0.0689,0.0868,0.1077,0.1198,0.1165,0.0994,0.072,0.0407,0.0266,0.0159,-0.0275,-0.081,-0.0813,-0.0475,-0.0376,-0.0428,-0.0511,-0.0555,-0.0272,0.019,0.0363,0.0305,0.0187,0.0277,0.025,0.025,0.0277,0.0313,0.0319,0.0308,0,0.0008,0.0409,0.0986,0.1236,0.136,0.1541,0.181,0.2038,0.2271,0.2527,0.2722,0.2727,0.2467,0.1903,0.1401,0.1288,0.1368,0.1393,0.1285,0.1046,0.072,0.0382,0.0115,0.0088,0.008,-0.025,-0.0783,-0.1008,-0.0843,-0.0714,-0.0747,-0.0797,-0.0654,-0.0203,0.0132,0.0085,-0.0038,-0.0198]},{"header":{"parameterUnit":"m.s-1","parameterCategory":2,"la1":30.5641,"la2":29.4642,"lo1":-89.4342,"lo2":-87.9343,"dy":0.0333,"dx":0.0333,"nx":46,"ny":34,"refTime":"2025-11-10T00:00:00:Z","depth":"2","parameterNumber":3,"parameterNumberName":"V-component_of_CURRENTS"},"data":[0,0,0,0,0,0,0,0,0,0,0,0,0,0,0,0,0,0,0,0,0,0,0,0,0,0,0,0,0,0,0,0,0,0,0,0,0,0,0,0,0,-0.0755,-0.05,0.1022,-0.0027,0,0,0,0,0,0,0,0,0,0,0,0,0,0,0,0,0,0,0,0,0,0,0,0,0,0,0,0,0,0,0,0,0,0,0,0,0,0,0,0,0,0,-0.0997,0.0187,0.1428,-0.0286,0,0,0,0,0,0,0,0,0,0,0,0,0,0,0,0,0,0,0,0,0,0,0,0,0,0,0,0,0,0,0,0,0,0,0,0,0,0,0,0,0,0,-0.1456,0.0684,0.1272,-0.0558,0,0,0,0,0,0,0,0,0,0,0,0,0,0,0,0,0,0,0,0,0,0,0,0,0,0,0,0,0,0,0,0,0,0,0,0,0,0,0,0,0,0,-0.1283,0.0766,0.1088,-0.0522,0,0,0,0,0,0,0,0,0,0,0,0,0,0,0,0,0,0,0,0,0,0,0,0,0,0,0,0,0,0,0,0,0,0,0,0,0,0,0,0,0,-0.0775,-0.0527,0.0648,0.0909,-0.0379,0,0,0,0,0,0,0,0,0,0,0,0,0,0,0,0,0,0,0,0,0,0,0,0,0,0,0,0,0,0,0,0,0,0,0,0,0,0,0,0,0,-0.0835,-0.014,0.0412,0.0607,-0.028,0,0,0,0,0,0,0,0,0,0,0,0,0.0115,0.0082,0.0033,-0.0005,-0.0066,-0.0124,-0.0179,-0.0242,-0.0489,0,0,0,0,0,0,0,0,0,0,0,0,-0.0069,-0.0055,-0.0173,0,0,0,0,0,-0.0799,-0.0211,0.0055,0.0297,-0.0211,0,0,0,0,0,0,0,0,0,0.0244,0.0225,0.0058,0.0052,0.0071,0.006,0.0014,-0.0093,-0.0239,-0.0407,-0.0456,-0.0585,-0.0385,-0.0459,-0.033,-0.0181,-0.0005,-0.1736,0,0,0,0,-0.0071,-0.0283,-0.0195,-0.0063,-0.0225,0,0,0,0,0,-0.1134,-0.0396,-0.0363,-0.0022,-0.0121,0,0,0,0,0.0228,0.0508,0.0442,0.0346,0.033,0.0253,0.0143,0.0055,-0.0016,0.0102,0.0135,0.0093,-0.0011,-0.0316,-0.0662,-0.072,-0.0681,-0.0396,-0.0357,-0.0233,-0.0181,0.0211,-0.1296,-0.125,-0.1241,-0.081,-0.0689,-0.0516,-0.0698,-0.0629,-0.0352,-0.0382,-0.053,-0.1099,-0.0893,0.0,0.0,-0.0717,-0.0656,-0.0533,-0.017,-0.0096,0,0,0,0.0327,0.0407,0.0533,0.0415,0.0302,0.0321,0.0412,0.003,0.0027,-0.0011,0.028,0.0195,0.0176,0.0255,-0.0135,-0.0865,-0.0805,-0.0695,-0.0203,-0.0129,-0.0069,-0.0091,0.022,-0.0428,-0.0626,-0.139,-0.1066,-0.0816,-0.1049,-0.1335,-0.1294,-0.0805,-0.0244,-0.0264,-0.1129,-0.1236,0,0,0,-0.1645,-0.0934,-0.0066,-0.0041,0,0,0.0382,0.0409,0.0566,0.0533,0.0371,0.019,0.0181,0.0338,0,0,0,0.0596,0.0299,0.0099,0.0203,0,-0.0725,-0.0742,-0.0992,0,0,0,0,0,0,0,-0.1198,-0.0656,-0.0467,-0.0569,-0.1843,-0.1739,-0.1252,0,0,-0.1066,-0.1552,-0.0676,-0.0961,-0.0505,-0.1231,-0.1873,0,0,0,0.0121,0.0533,0.045,0.0415,0.0508,0.0393,0.0151,0.0135,0.0228,0.056,0.0387,0.0159,0.0393,-0.0049,0,0,0.0324,-0.0253,-0.0541,-0.0986,-0.0291,-0.022,-0.0253,-0.0214,-0.022,-0.0247,-0.0352,-0.0865,0,0,0,-0.1802,-0.1612,-0.1601,-0.106,-0.0591,-0.0893,-0.1272,-0.0835,-0.1008,-0.0783,0,-0.2428,-0.145,-0.0887,-0.0684,0.006,0.0453,0.0239,0.0354,0.0629,0.0703,0.0093,0.011,0.0181,0.0404,0.0398,0.0299,0.0154,-0.0225,0.0044,0.0022,0.0187,-0.0115,-0.039,-0.0552,-0.0286,-0.0233,-0.0247,-0.0242,-0.0247,-0.0269,-0.0363,-0.0665,-0.0343,-0.047,-0.0379,-0.1046,-0.1046,-0.1189,-0.0744,-0.0437,-0.0593,-0.0797,-0.0931,-0.0972,-0.1079,-0.0516,-0.1909,-0.1035,-0.0593,-0.05,0,0.0005,0.0071,0.0407,0.0786,0.0486,0,0,0.0118,0.0385,0.0527,0.0514,0.0341,0.0121,0.0102,0.0096,0.0093,-0.0093,-0.0291,-0.0354,-0.0288,-0.0255,-0.0247,-0.0264,-0.0275,-0.0299,-0.0324,-0.0371,-0.0286,-0.0354,-0.0321,-0.0489,-0.0511,-0.0547,-0.0415,-0.0302,-0.0365,-0.0536,-0.078,-0.0769,-0.0824,-0.0547,-0.0997,-0.0522,-0.0313,-0.033,0.0659,-0.0582,0.0319,0.0192,0.0409,0,0,0,0.0365,0.0665,0.0689,0.0602,0.0407,0.0247,0.0222,0.0258,0.0253,-0.0025,-0.0291,-0.0357,-0.0327,-0.0288,-0.0253,-0.025,-0.0255,-0.0266,-0.025,-0.0244,-0.0228,-0.0233,-0.0283,-0.0324,-0.0343,-0.0376,-0.0396,-0.0368,-0.0365,-0.047,-0.0566,-0.053,-0.0459,-0.0492,-0.0656,-0.0599,-0.0525,-0.0489,0.033,-0.0478,-0.0008,0,0,0,0,0,0.0703,0.0873,0.0753,0.0623,0.0445,0.031,0.0319,0.0442,0.0637,0.0003,-0.0552,-0.0525,-0.0431,-0.0341,-0.0272,-0.0242,-0.0236,-0.0225,-0.0222,-0.0222,-0.0231,-0.0253,-0.0305,-0.0368,-0.0407,-0.0486,-0.0527,-0.0536,-0.0494,-0.0478,-0.045,-0.0428,-0.0382,-0.0371,-0.0461,-0.0571,-0.0596,-0.0527,0,0,-0.0288,0.0025,0.0055,-0.0533,0,0,0.0909,0.0953,0.0758,0.0613,0.0434,0.0321,0.0335,0.0481,0.0733,0,-0.0379,-0.0681,-0.0519,-0.0371,-0.0283,-0.0244,-0.0236,-0.0242,-0.0291,-0.0335,-0.0354,-0.0368,-0.0417,-0.0486,-0.0525,-0.0569,-0.0588,-0.0604,-0.0582,-0.0516,-0.0459,-0.0448,-0.0428,-0.0407,-0.0409,-0.0431,-0.0439,-0.0371,0,0,0.0003,0.0047,0.0242,-0.0266,0.0,0.0,0.0722,0.0698,0.0632,0.0533,0.0379,0.0291,0.028,0.036,0.0445,0.0033,0,-0.0571,-0.047,-0.0363,-0.0286,-0.0261,-0.0261,-0.0349,-0.0448,-0.05,-0.0511,-0.0475,-0.05,-0.0519,-0.0525,-0.0519,-0.0514,-0.053,-0.0541,-0.0522,-0.0486,-0.0472,-0.0489,-0.0489,-0.0481,-0.0459,-0.0426,-0.0368,0,0,0,0.0036,0.0214,0,0,0,0.0423,0.0387,0.0428,0.0387,0.0288,0.0231,0.0195,0.022,0.0209,0.0025,0,-0.0357,-0.0357,-0.0338,-0.0302,-0.0288,-0.0305,-0.047,-0.0569,-0.0591,-0.0591,-0.0511,-0.0467,-0.0387,-0.0349,-0.0343,-0.0354,-0.0393,-0.0445,-0.0481,-0.0508,-0.0516,-0.053,-0.0563,-0.0591,-0.0585,-0.0536,-0.0448,0,0,0,0,0,0,0,0.0198,0.0264,0.0266,0.0266,0.0247,0.019,0.0162,0.0102,0.0093,0.0044,-0.0008,0,-0.0264,-0.0297,-0.0327,-0.033,-0.0313,-0.0319,-0.0494,-0.0607,-0.0637,-0.0634,-0.0508,-0.0305,-0.0165,-0.0143,-0.0159,-0.0192,-0.0247,-0.0319,-0.0382,-0.0448,-0.0505,-0.0544,-0.058,-0.0629,-0.0689,-0.0692,-0.0607,0,0,0,0,0,0,0.0146,0.0176,0.0173,0.0162,0.0157,0.0151,0.0104,0.0093,0.0005,-0.0058,-0.0003,-0.0016,0,-0.0233,-0.028,-0.0327,-0.0343,-0.0313,-0.028,-0.0448,-0.0596,-0.0656,-0.0651,-0.0412,-0.0088,-0.0019,-0.0044,-0.0077,-0.0121,-0.0168,-0.0228,-0.028,-0.0335,-0.0404,-0.0481,-0.056,-0.0634,-0.0717,-0.0769,-0.0742,0,0,0,0,0,0,0.0154,0.0159,0.0132,0.0107,0.0088,0.0077,0.0025,0.0027,-0.0071,-0.0179,0,0,0,-0.0253,-0.0294,-0.033,-0.0346,-0.0305,-0.0231,-0.0382,-0.0552,-0.0632,-0.0621,-0.0275,0.0003,0.0011,-0.0005,-0.0041,-0.0082,-0.0126,-0.019,-0.0247,-0.0288,-0.0327,-0.0382,-0.0497,-0.0615,-0.072,-0.0775,-0.0772,0,0,0,0,0,0,0.0154,0.0159,0.0107,0.006,0.0019,-0.0008,-0.0082,-0.0003,-0.0135,-0.0184,-0.0104,0,0,-0.0324,-0.033,-0.0341,-0.0349,-0.0299,-0.0198,-0.0327,-0.05,-0.0591,-0.0541,-0.0211,0.0016,0.0049,0.0044,0.0011,-0.0025,-0.008,-0.0154,-0.0225,-0.0288,-0.0327,-0.0357,-0.0434,-0.0544,-0.0654,-0.0711,-0.0692,0,0,0,0,0,0.0041,0.0118,0.0124,0.0069,0.0003,-0.006,-0.0104,-0.0176,0,-0.0239,-0.0181,-0.0126,0,0,-0.0428,-0.0379,-0.0365,-0.0354,-0.0313,-0.0201,-0.0313,-0.0472,-0.0527,-0.0453,-0.0228,-0.0025,0.0066,0.0091,0.008,0.0055,-0.0003,-0.0091,-0.0184,-0.0275,-0.0349,-0.0393,-0.0437,-0.0508,-0.0577,-0.061,-0.0582,0,-0.0107,0.0,-0.0025,0,0.0019,0.0091,0.008,0.0025,-0.0058,-0.0135,-0.0198,-0.0239,-0.0211,-0.0313,-0.0217,-0.0157,0,-0.0222,-0.0437,-0.0417,-0.039,-0.0371,-0.0341,-0.0231,-0.0341,-0.0456,-0.0478,-0.0417,-0.0283,-0.0154,-0.006,0.0058,0.0113,0.0107,0.0071,-0.0016,-0.0135,-0.0258,-0.036,-0.0437,-0.0461,-0.0481,-0.0511,-0.0514,-0.0472,0,-0.0272,0,-0.0044,-0.0058,0,0.008,0.0058,-0.0022,-0.0124,-0.0211,-0.0297,-0.0349,-0.0335,-0.0365,-0.0277,-0.0082,0,-0.0294,-0.0382,-0.0412,-0.0404,-0.0396,-0.0376,-0.0286,-0.042,-0.0494,-0.0508,-0.0453,-0.0346,-0.0242,-0.0165,-0.0071,0.0049,0.011,0.0093,0.0038,-0.0107,-0.0277,-0.0398,-0.0475,-0.0486,-0.0445,-0.0415,-0.0398,-0.0357,0,-0.0352,-0.006,-0.0038,-0.003,0.0058,0.0047,-0.0008,-0.0099,-0.0206,-0.0305,-0.0426,-0.0536,-0.0577,-0.0478,-0.0154,0,0.0085,-0.033,-0.0396,-0.0412,-0.0417,-0.0437,-0.0423,-0.0398,-0.0552,-0.0604,-0.0602,-0.0519,-0.0379,-0.0222,-0.0093,-0.0088,-0.0058,0.0038,0.0069,0.0036,-0.0096,-0.0335,-0.0494,-0.0538,-0.0489,-0.0382,-0.0305,-0.0294,-0.028,-0.0044,-0.0157,-0.0016,0.0003,0.0,0.0025,-0.0016,-0.0102,-0.019,-0.0291,-0.0401,-0.058,-0.0797,-0.0953,-0.0275,0,0.0431,0.0107,-0.0305,-0.0431,-0.0448,-0.0461,-0.0489,-0.0472,-0.0593,-0.07,-0.07,-0.0689,-0.056,-0.0283,-0.0033,0.0085,0.0047,-0.0055,-0.0033,0.0038,-0.0008,-0.0137,-0.0412,-0.0593,-0.0607,-0.0434,-0.0206,-0.0124,-0.0176,-0.0222,-0.0047,-0.0011,0.0038,0.003,0.0008,-0.0022,-0.0069,-0.0146,-0.0244,-0.0349,-0.0472,-0.0689,-0.0981,-0.1415,0,0.0555,0.0385,0.0005,-0.0341,-0.0467,-0.0494,-0.0519,-0.0552,-0.0591,-0.0764,-0.0794,-0.0755,-0.0681,-0.0401,0.0027,0.0266,0.0269,0.0107,-0.0044,-0.0016,0.008,-0.003,-0.0261,-0.0555,-0.0698,-0.0621,-0.0316,-0.0058,-0.0173,-0.031,-0.0299,-0.0014,0.0047,0.0069,0.0047,0.0005,-0.0049,-0.0099,-0.0162,-0.0283,-0.0374,-0.0497,-0.0645,-0.0948,-0.1296,-0.0225,0.0203,-0.0003,-0.0272,-0.0426,-0.0516,-0.0555,-0.0577,-0.0632,-0.0758,-0.0829,-0.0813,-0.0725,-0.045,0.0014,0.0354,0.0428,0.0275,-0.003,-0.0104,0.0154,0.0272,0.0022,-0.0396,-0.0739,-0.0821,-0.0613,-0.033,-0.0497,-0.0766,-0.0618,-0.0368,0.0063,0.0093,0.0104,0.0066,-0.0008,-0.0077,-0.0118,-0.0151,-0.0302,-0.0404,-0.0541,-0.0286,-0.0992,-0.0909,-0.0439,-0.0382,-0.0464,-0.05,-0.0536,-0.0582,-0.0613,-0.0651,-0.0766,-0.0868,-0.0824,-0.0711,-0.0448,0.0008,0.0396,0.047,0.0363,0.0038,-0.033,-0.0058,0.0505,0.0541,0.006,-0.05,-0.0854,-0.0854,-0.0711,-0.0843,-0.1376,-0.1178,-0.0536,-0.0258,0.0148,0.0148,0.0132,0.0063,-0.0041,-0.0121,-0.0137,-0.0047,-0.0151,-0.0676,-0.0791,0,-0.0794,-0.0769,-0.0689,-0.0684,-0.0678,-0.0692,-0.0742,-0.0775,-0.0755,-0.0805,-0.0893,-0.0854,-0.0662,-0.036,0.0052,0.042,0.0527,0.0368,0.0099,-0.0396,-0.058,0.0074,0.0764,0.0656,0.0066,-0.0505,-0.0813,-0.086,-0.1049,-0.1516,-0.1645,-0.0736,-0.0148,-0.0091,0.0206,0.0176,0.0115,0.0025,-0.0099,-0.0206,-0.0305,0.0022,0,-0.07,-0.0838,-0.0434,-0.0659,-0.0805,-0.084,-0.0846,-0.0846,-0.0912,-0.1049,-0.1159,-0.1118,-0.0997,-0.0854,-0.0621,-0.028,0.0118,0.0459,0.058,0.0448,0.0129,-0.025,-0.078,-0.0645,0.0074,0.0739,0.0541,-0.0014,-0.0481,-0.0805,-0.1027,-0.1371,-0.1714,-0.1066,-0.0151,0.003,-0.0085,0.0184,0.0143,0.0052,-0.0049,-0.017,-0.0324,-0.0643,0,0.0324,-0.0541,-0.0876,-0.0725,-0.0816,-0.0851,-0.0862,-0.0764,-0.0651,-0.0651,-0.0827,-0.1112,-0.1233,-0.1044,-0.0678,-0.0242,0.0157,0.0459,0.0604,0.0516,0.0233,-0.0162,-0.0549,-0.0849,-0.0571,-0.0049,0.0552,0.042,-0.0187,-0.0604,-0.0928,-0.1288,-0.1568,-0.1244,-0.0368,0.0014,0.0033,0.0016]}],[{"header":{"parameterUnit":"m.s-1","parameterCategory":2,"la1":30.5641,"la2":29.4642,"lo1":-89.4342,"lo2":-87.9343,"dy":0.0333,"dx":0.0333,"nx":46,"ny":34,"refTime":"2025-11-10T00:00:00:Z","depth":"4","parameterNumber":2,"parameterNumberName":"U-component_of_CURRENTS"},"data":[0,0,0,0,0,0,0,0,0,0,0,0,0,0,0,0,0,0,0,0,0,0,0,0,0,0,0,0,0,0,0,0,0,0,0,0,0,0,0,0,0,-0.0214,-0.0431,0.0005,0.0453,0,0,0,0,0,0,0,0,0,0,0,0,0,0,0,0,0,0,0,0,0,0,0,0,0,0,0,0,0,0,0,0,0,0,0,0,0,0,0,0,0,0,-0.0077,0.0091,0.031,0.0214,0,0,0,0,0,0,0,0,0,0,0,0,0,0,0,0,0,0,0,0,0,0,0,0,0,0,0,0,0,0,0,0,0,0,0,0,0,0,0,0,0,0,-0.0151,-0.0047,0.0085,0.0102,0,0,0,0,0,0,0,0,0,0,0,0,0,0,0,0,0,0,0,0,0,0,0,0,0,0,0,0,0,0,0,0,0,0,0,0,0,0,0,0,0,0,-0.0222,-0.0019,0.0137,0.0239,0,0,0,0,0,0,0,0,0,0,0,0,0,0,0,0,0,0,0,0,0,0,0,0,0,0,0,0,0,0,0,0,0,0,0,0,0,0,0,0,0,-0.0088,-0.014,0.0047,0.0077,0.0107,0,0,0,0,0,0,0,0,0,0,0,0,0,0,0,0,0,0,0,0,0,0,0,0,0,0,0,0,0,0,0,0,0,0,0,0,0,0,0,0,0,0.0041,0.0052,0.0014,0.0003,0.0066,0,0,0,0,0,0,0,0,0,0,0,0,0.0082,0.0228,0.0341,0.0417,0.0467,0.0486,0.0467,0.0393,0.0338,0,0,0,0,0,0,0,0,0,0,0,0,0.0022,0.006,0.008,0,0,0,0,0,0.0016,-0.006,-0.0203,-0.0302,-0.0203,0,0,0,0,0,0,0,0,0,0.0093,0.0211,0.0283,0.0324,0.0327,0.0368,0.0431,0.0516,0.0599,0.0599,0.0541,0.0621,0.0692,0.0593,0.0522,0.0626,0.0876,0.1019,0,0,0,0,0.0011,-0.0022,-0.0055,-0.0121,-0.0201,0,0,0,0,0,-0.0225,-0.0409,-0.0478,-0.0629,-0.0552,0,0,0,0,-0.0082,0.0008,0.0294,0.0426,0.0497,0.0533,0.0472,0.0396,0.0357,0.0349,0.0379,0.0448,0.0571,0.0678,0.067,0.0591,0.0547,0.0566,0.0629,0.078,0.0893,0.0868,0.0915,0.0961,0.0722,0.0442,0.0379,0.0242,-0.0011,-0.008,-0.0093,-0.0126,-0.0132,-0.0363,-0.0791,-0.1014,-0.109,-0.0802,-0.053,-0.0731,-0.0799,-0.0687,0,0,0,-0.0082,0.0055,0.0385,0.0475,0.0439,0.039,0.0404,0.0396,0.0379,0.045,0.047,0.0437,0.0448,0.0643,0.0895,0.084,0.0623,0.0396,0.0338,0.0516,0.0623,0.0689,0.0709,0.0953,0.1324,0.111,0.0766,0.075,0.0615,0.0327,0.0104,-0.0049,-0.0027,0.0209,0.0184,0.0014,0,0,0,-0.053,-0.1263,-0.1154,-0.0698,0,0,-0.0113,-0.0074,0.0143,0.031,0.0407,0.0352,0.0299,0.0297,0,0,0,0.0255,0.0456,0.0341,0.0283,0,0.0176,0.0387,0.042,0,0,0,0,0,0,0,-0.0371,-0.053,0.0016,0.0623,0.0681,0.0412,0.0352,0,0,-0.0052,0.0025,-0.0036,-0.0604,-0.1346,-0.0805,0.0074,0,0,0,-0.011,-0.0066,0.0008,0.0071,0.0308,0.0445,0.0472,0.0453,0.0497,0.0618,0.0824,0.1071,0.103,0.0876,0,0,0.0126,0.039,0.0621,0.0884,0.0992,0.0904,0.0753,0.0582,0.045,0.0327,0.0198,0.0137,0,0,0,-0.0071,-0.0069,0.0209,0.0492,0.0102,-0.0206,-0.0187,-0.0222,-0.0332,-0.036,0,0.0228,0.0264,0.0027,0.0036,0.0448,-0.0022,-0.0277,0.0047,0.0335,0.0472,0.0563,0.0632,0.0659,0.0681,0.0753,0.0824,0.0854,0.095,0.1016,0.0967,0.0857,0.0753,0.0783,0.0871,0.0915,0.0832,0.07,0.0563,0.0448,0.0371,0.0313,0.0434,0.0558,0.0593,0.0434,0.0206,0.0157,0.0206,0.0338,0.0434,0.0401,0.0247,0.0036,-0.0261,-0.0168,-0.0396,-0.0398,-0.0203,-0.0154,-0.0239,0,-0.0272,-0.0313,0.0184,0.0475,0.0549,0,0,0.0151,0.0434,0.0621,0.0692,0.0739,0.0829,0.0904,0.0926,0.0937,0.0934,0.0923,0.0873,0.0794,0.0695,0.061,0.0533,0.0467,0.0428,0.0428,0.0508,0.0544,0.0464,0.0335,0.0297,0.0363,0.047,0.0467,0.0324,0.0286,0.0387,0.0541,0.0558,0.0494,0.0244,-0.0019,-0.0049,-0.0157,-0.0412,0.0088,-0.0085,-0.0033,0.0316,0.0371,0,0,0,0.0201,0.0525,0.0684,0.07,0.0678,0.0692,0.075,0.0838,0.0981,0.1068,0.1016,0.089,0.0758,0.0637,0.0552,0.0494,0.0464,0.0453,0.0459,0.0461,0.0439,0.0379,0.0313,0.0291,0.0316,0.0343,0.0343,0.0299,0.0242,0.0214,0.0258,0.0354,0.0456,0.0525,0.0478,0.0321,0.0126,-0.0036,-0.0005,0.0151,0.0313,0,0,0,0,0,0.0195,0.0503,0.0656,0.0676,0.061,0.0558,0.0571,0.0665,0.0959,0.1214,0.1088,0.0857,0.0703,0.0585,0.0492,0.0434,0.0412,0.0409,0.0412,0.0415,0.0412,0.0404,0.0407,0.0417,0.0409,0.0363,0.0302,0.0266,0.0236,0.0214,0.0211,0.0217,0.0209,0.0206,0.0239,0.0299,0.0316,0.0255,0,0,-0.0036,0.0049,0.0321,0.0478,0,0,0.0157,0.0409,0.05,0.0472,0.0415,0.0368,0.036,0.0335,0.0305,0,0.031,0.0588,0.0544,0.0483,0.0407,0.0357,0.0341,0.0346,0.0357,0.0363,0.0352,0.0338,0.033,0.0294,0.0233,0.0168,0.0124,0.0126,0.0173,0.0214,0.022,0.0201,0.0165,0.0118,0.0074,0.0047,0.003,-0.0003,0,0,0.0255,0.0522,0.0632,0.0596,0.0571,0.0717,0.0662,0.0483,0.0319,0.0217,0.019,0.0195,0.0214,0.0236,0.0118,-0.0016,0,0.0121,0.0294,0.0354,0.0308,0.0277,0.0291,0.0335,0.0319,0.0233,0.0129,0.003,-0.0038,-0.0074,-0.0071,-0.0044,-0.0011,0.0033,0.0104,0.0179,0.0217,0.0217,0.0181,0.0135,0.008,0.0025,-0.0022,-0.0058,0,0,0,0.014,0.028,0,0,0,0.0041,0.0096,0.0099,0.0077,0.0069,0.0082,0.0104,0.0115,0.0052,-0.0016,0,0.0074,0.0187,0.0236,0.0206,0.0201,0.0269,0.033,0.0277,0.0181,0.008,-0.0022,-0.0071,-0.0044,0.0022,0.0077,0.0107,0.0126,0.0132,0.0132,0.0132,0.0143,0.0157,0.017,0.0165,0.0126,0.0063,-0.0003,0,0,0,0,0,0,0,0.0099,0.0187,0.0151,0.0104,0.0069,0.0047,0.0047,0.0047,0.0025,-0.0005,-0.0016,0,0.0044,0.0113,0.0148,0.0135,0.0151,0.0258,0.0343,0.0327,0.0277,0.0209,0.0165,0.0187,0.0222,0.0242,0.0258,0.0277,0.0291,0.0294,0.0275,0.0222,0.0137,0.0066,0.0055,0.006,0.0052,0.0049,0.0041,0,0,0,0,0,0,0.0069,0.0132,0.0121,0.0115,0.0099,0.0071,0.0047,0.003,0.0008,-0.0074,-0.0107,-0.0074,0,0.0022,0.0052,0.0074,0.0077,0.011,0.0233,0.0343,0.0357,0.0352,0.0346,0.0343,0.0308,0.0264,0.0253,0.0255,0.0272,0.0299,0.0332,0.0365,0.0379,0.0352,0.0244,0.0082,-0.0049,-0.0085,-0.0066,-0.003,0,0,0,0,0,0,0.0016,0.0055,0.0082,0.0088,0.0077,0.0058,0.0027,0.0005,0.0,-0.0003,0,0,0,0.0,-0.0005,0.0003,0.0016,0.0058,0.0195,0.0321,0.0346,0.0357,0.0393,0.0349,0.0253,0.022,0.0228,0.0242,0.0253,0.0266,0.0294,0.0332,0.0376,0.0412,0.0431,0.0396,0.0242,0.0052,-0.0055,-0.0047,0,0,0,0,0,0,0.0019,0.0052,0.0066,0.0069,0.0058,0.0027,-0.0022,-0.0019,0.0003,0.0027,0.006,0,0,-0.0022,-0.0058,-0.006,-0.0044,-0.0003,0.0135,0.0275,0.0308,0.0324,0.0368,0.0299,0.0181,0.0165,0.0195,0.0236,0.0264,0.0269,0.0272,0.0286,0.0313,0.0354,0.0398,0.0428,0.0423,0.0354,0.0247,0.0165,0,0,0,0,0,0.0025,0.006,0.0074,0.0074,0.0069,0.0055,0.0027,0.0011,0,-0.0025,-0.0025,0.0003,0,0,-0.0044,-0.0096,-0.0102,-0.0088,-0.0058,0.0071,0.0209,0.0242,0.028,0.0327,0.0354,0.0299,0.0198,0.0184,0.0225,0.0288,0.0332,0.033,0.0305,0.0288,0.0291,0.0319,0.0368,0.0417,0.0428,0.0398,0.0349,0,-0.0071,-0.0052,-0.0014,0,0.0014,0.0044,0.0066,0.0074,0.0074,0.0066,0.0049,0.0038,-0.0025,-0.0063,-0.003,-0.0025,0,-0.0096,-0.0148,-0.0104,-0.0102,-0.0104,-0.0091,0.003,0.0162,0.0184,0.0211,0.0277,0.0341,0.0396,0.0398,0.0313,0.0261,0.0291,0.0374,0.0456,0.0442,0.036,0.0288,0.0264,0.0286,0.0343,0.0404,0.0437,0.0445,0,0.0214,0,0.0016,0.0036,0,0.0027,0.0077,0.0104,0.0102,0.0085,0.0055,0.0008,-0.0085,-0.0154,-0.0165,-0.0168,0,-0.006,-0.0118,-0.011,-0.0104,-0.0115,-0.0113,0.0008,0.0132,0.014,0.0181,0.0242,0.0266,0.0302,0.039,0.0459,0.0417,0.0368,0.0396,0.0494,0.0599,0.0547,0.0393,0.0277,0.0233,0.0275,0.0368,0.0486,0.0591,0,0.0096,0.0162,0.0154,0.0211,0.0269,0.028,0.0236,0.0184,0.0148,0.0113,0.0058,-0.0033,-0.0157,-0.0255,-0.0291,0,-0.0008,0.0,-0.0008,-0.0049,-0.008,-0.0104,-0.0115,0.0011,0.0115,0.0126,0.0198,0.0242,0.0286,0.0374,0.0456,0.0544,0.0599,0.0555,0.0508,0.053,0.0654,0.0717,0.056,0.0357,0.025,0.0277,0.0428,0.0637,0.0819,-0.0082,-0.0008,0.0126,0.019,0.0233,0.0247,0.025,0.0247,0.022,0.0187,0.0146,0.008,-0.0058,-0.0327,-0.0503,0,0.0146,0.025,0.0154,0.0044,-0.0011,-0.0052,-0.0085,-0.0063,0.0074,0.0126,0.0137,0.0239,0.0313,0.0428,0.0582,0.0711,0.0766,0.0777,0.0764,0.0695,0.0637,0.0656,0.0725,0.067,0.0497,0.0417,0.0483,0.0602,0.0706,0.0797,0.0058,0.0115,0.0192,0.0231,0.0253,0.0266,0.0264,0.0253,0.0239,0.0225,0.0214,0.0209,0.0209,0.0211,0,0.0233,0.0439,0.036,0.0239,0.0096,0.0019,-0.0027,-0.0052,0.0066,0.0179,0.0165,0.022,0.0346,0.0505,0.0673,0.0799,0.0851,0.081,0.0722,0.0711,0.0764,0.0783,0.078,0.0775,0.0739,0.0673,0.0604,0.0536,0.0464,0.0379,0.0376,0.014,0.0198,0.0231,0.025,0.0258,0.0261,0.0261,0.0261,0.0258,0.0266,0.0305,0.0415,0.0585,0.0981,0.1222,0.095,0.0591,0.0376,0.025,0.0124,0.0052,0.0014,0.0058,0.019,0.0214,0.0211,0.0349,0.0552,0.0733,0.0871,0.0898,0.0794,0.0634,0.0505,0.0511,0.0621,0.0742,0.0786,0.0731,0.064,0.0563,0.0407,0.0093,-0.019,-0.0269,-0.0228,0.0206,0.0239,0.0258,0.0266,0.0264,0.0255,0.0255,0.0277,0.0313,0.0319,0.0297,0.0547,0.0772,0.084,0.0854,0.0645,0.0483,0.0387,0.0302,0.022,0.0165,0.0146,0.0211,0.0264,0.0247,0.0365,0.0599,0.0799,0.0923,0.0975,0.0873,0.0645,0.0426,0.0288,0.0201,0.0217,0.0352,0.0437,0.0426,0.0346,0.0184,-0.0154,-0.0434,-0.0503,-0.0464,-0.045,0.0258,0.028,0.0286,0.028,0.0266,0.0247,0.0236,0.0324,0.0591,0.0596,0.0423,0,0.0261,0.0621,0.0731,0.075,0.0755,0.0747,0.0687,0.0591,0.0483,0.0428,0.0404,0.036,0.0434,0.0673,0.0906,0.1022,0.103,0.092,0.0689,0.0472,0.0305,0.0022,-0.0291,-0.0258,-0.0049,0.0019,0.0003,-0.0066,-0.0247,-0.0439,-0.0316,-0.0121,-0.0038,-0.0008,0.0316,0.0319,0.0305,0.0291,0.0275,0.0231,0.0091,-0.0016,0,0.0247,0.0618,0.067,0.0692,0.0849,0.0975,0.1123,0.1244,0.1316,0.1274,0.1123,0.0953,0.0783,0.0656,0.0673,0.0854,0.1071,0.1195,0.1165,0.0997,0.0722,0.0407,0.0255,0.0157,-0.025,-0.0758,-0.0764,-0.0445,-0.0357,-0.0415,-0.0494,-0.0541,-0.0266,0.0195,0.0376,0.0321,0.0203,0.0343,0.0316,0.0308,0.0316,0.0316,0.0286,0.0261,0,-0.0008,0.0176,0.053,0.0739,0.0887,0.1074,0.1373,0.161,0.1862,0.2101,0.2255,0.2258,0.2085,0.173,0.1373,0.1283,0.1362,0.1393,0.1288,0.1052,0.0722,0.0379,0.0107,0.0077,0.0082,-0.0225,-0.0736,-0.095,-0.0802,-0.0689,-0.0728,-0.0777,-0.0645,-0.0195,0.0148,0.0102,-0.0025,-0.0184]},{"header":{"parameterUnit":"m.s-1","parameterCategory":2,"la1":30.5641,"la2":29.4642,"lo1":-89.4342,"lo2":-87.9343,"dy":0.0333,"dx":0.0333,"nx":46,"ny":34,"refTime":"2025-11-10T00:00:00:Z","depth":"4","parameterNumber":3,"parameterNumberName":"V-component_of_CURRENTS"},"data":[0,0,0,0,0,0,0,0,0,0,0,0,0,0,0,0,0,0,0,0,0,0,0,0,0,0,0,0,0,0,0,0,0,0,0,0,0,0,0,0,0,-0.0829,-0.0547,0.0678,-0.0618,0,0,0,0,0,0,0,0,0,0,0,0,0,0,0,0,0,0,0,0,0,0,0,0,0,0,0,0,0,0,0,0,0,0,0,0,0,0,0,0,0,0,-0.0964,-0.006,0.07,-0.0832,0,0,0,0,0,0,0,0,0,0,0,0,0,0,0,0,0,0,0,0,0,0,0,0,0,0,0,0,0,0,0,0,0,0,0,0,0,0,0,0,0,0,-0.1066,0.0277,0.0393,-0.1057,0,0,0,0,0,0,0,0,0,0,0,0,0,0,0,0,0,0,0,0,0,0,0,0,0,0,0,0,0,0,0,0,0,0,0,0,0,0,0,0,0,0,-0.0849,0.0228,0.0346,-0.1162,0,0,0,0,0,0,0,0,0,0,0,0,0,0,0,0,0,0,0,0,0,0,0,0,0,0,0,0,0,0,0,0,0,0,0,0,0,0,0,0,0,-0.072,-0.05,0.0069,0.0176,-0.1299,0,0,0,0,0,0,0,0,0,0,0,0,0,0,0,0,0,0,0,0,0,0,0,0,0,0,0,0,0,0,0,0,0,0,0,0,0,0,0,0,0,-0.0769,-0.031,0.0038,0.0052,-0.125,0,0,0,0,0,0,0,0,0,0,0,0,0.0104,0.008,0.0047,0.0008,-0.0038,-0.0096,-0.0148,-0.0217,-0.0464,0,0,0,0,0,0,0,0,0,0,0,0,-0.0049,-0.0044,-0.0168,0,0,0,0,0,-0.0747,-0.0324,-0.0096,-0.008,-0.0983,0,0,0,0,0,0,0,0,0,0.0099,0.008,0.0014,0.0036,0.0066,0.0058,0.0025,-0.0038,-0.0143,-0.0269,-0.0338,-0.047,-0.0261,-0.0288,-0.0486,-0.0143,0.0382,-0.0744,0,0,0,0,-0.0055,-0.0258,-0.0118,-0.0099,-0.0365,0,0,0,0,0,-0.095,-0.0459,-0.036,-0.0195,-0.0667,0,0,0,0,-0.0264,0.0159,0.0173,0.0093,0.0074,0.0088,-0.0041,-0.0058,-0.0099,0.0044,0.008,0.0055,0.0003,-0.0201,-0.0423,-0.0505,-0.0497,-0.0294,-0.0253,-0.0294,-0.0104,0.0049,-0.0808,-0.058,-0.0445,-0.0385,-0.0426,-0.0151,-0.0363,-0.042,-0.0409,-0.0467,-0.0541,-0.0632,-0.0819,0.0,0.0,-0.056,-0.0772,-0.0538,-0.0233,-0.0338,0,0,0,-0.0338,-0.0107,0.0154,0.0135,0.0055,0.0071,0.0176,-0.008,-0.0063,-0.008,0.011,0.0074,0.0074,0.019,-0.0104,-0.067,-0.0678,-0.0654,-0.0162,-0.011,-0.0055,-0.0033,-0.0148,-0.0437,-0.0288,-0.0623,-0.0629,-0.0566,-0.0379,-0.0632,-0.0901,-0.0802,-0.019,-0.0272,-0.0835,-0.1093,0,0,0,-0.159,-0.0992,-0.011,-0.0082,0,0,-0.036,-0.0195,0.0044,0.0143,0.0058,-0.0052,-0.0025,0.0107,0,0,0,0.0319,0.0135,0.0038,0.017,0,-0.07,-0.0755,-0.0972,0,0,0,0,0,0,0,-0.078,-0.0437,-0.0357,-0.0255,-0.1046,-0.1239,-0.1258,0,0,-0.0989,-0.1236,-0.0909,-0.0992,-0.056,-0.1099,-0.1664,0,0,0,-0.0179,-0.0214,-0.0124,-0.0055,0.0107,0.0019,-0.017,-0.0118,0.0019,0.025,0.0038,-0.0077,0.0184,-0.0209,0,0,0.0233,-0.0343,-0.0596,-0.089,-0.0228,-0.0231,-0.0269,-0.0217,-0.0209,-0.025,-0.0352,-0.0813,0,0,0,-0.1206,-0.1263,-0.1321,-0.0857,-0.072,-0.0915,-0.1082,-0.0937,-0.1,-0.075,0,-0.1695,-0.0308,-0.0277,-0.0277,-0.0088,-0.0341,-0.0294,-0.0157,0.0132,0.0211,-0.011,-0.0058,-0.0027,0.0159,0.0126,0.008,0.0003,-0.0393,-0.0096,-0.0049,0.0113,-0.0179,-0.0431,-0.0525,-0.0297,-0.0277,-0.0305,-0.0277,-0.0277,-0.0308,-0.0374,-0.0659,-0.0346,-0.0467,-0.045,-0.1025,-0.1085,-0.1228,-0.0775,-0.0588,-0.0717,-0.0906,-0.1035,-0.1082,-0.1025,-0.0758,-0.1233,-0.0538,-0.0437,-0.0321,0,-0.0588,-0.0272,-0.0179,0.0244,0.0201,0,0,-0.0052,0.0192,0.0313,0.0316,0.0143,-0.006,-0.0044,-0.0014,0.0003,-0.0165,-0.0354,-0.042,-0.0354,-0.033,-0.0341,-0.0346,-0.0357,-0.0374,-0.0382,-0.0396,-0.033,-0.0404,-0.0404,-0.058,-0.0602,-0.0667,-0.0525,-0.0415,-0.0464,-0.064,-0.089,-0.0884,-0.0937,-0.072,-0.0912,-0.056,-0.0398,-0.0349,0.0209,-0.0736,0.0055,-0.0096,0.0151,0,0,0,0.0124,0.0393,0.045,0.0398,0.0231,0.008,0.0066,0.0102,0.0121,-0.0115,-0.0365,-0.0448,-0.0417,-0.0368,-0.0343,-0.0338,-0.0346,-0.0352,-0.0343,-0.0324,-0.0308,-0.0324,-0.036,-0.0407,-0.0412,-0.045,-0.0467,-0.0445,-0.0426,-0.0522,-0.0621,-0.0602,-0.0552,-0.0591,-0.0736,-0.0651,-0.0591,-0.0558,0.0104,-0.0448,-0.028,0,0,0,0,0,0.0209,0.0514,0.0522,0.0412,0.0264,0.0137,0.0157,0.0272,0.0486,-0.0044,-0.0566,-0.0574,-0.0514,-0.0423,-0.0357,-0.0324,-0.0316,-0.031,-0.0299,-0.0297,-0.0302,-0.0321,-0.0371,-0.0426,-0.0459,-0.0533,-0.0582,-0.0591,-0.0549,-0.0516,-0.0486,-0.0459,-0.0423,-0.0428,-0.0522,-0.0637,-0.0662,-0.0596,0,0,-0.0651,-0.0456,-0.0357,-0.0665,0,0,0.0299,0.0585,0.0566,0.0409,0.0258,0.0151,0.0179,0.0316,0.0599,0,-0.0363,-0.0689,-0.0582,-0.0459,-0.0363,-0.0327,-0.0308,-0.0313,-0.0354,-0.0393,-0.0412,-0.0417,-0.047,-0.0536,-0.0574,-0.0615,-0.0637,-0.0648,-0.0632,-0.056,-0.0503,-0.0481,-0.0464,-0.045,-0.0448,-0.0489,-0.0492,-0.0439,0,0,-0.025,-0.0272,-0.0041,-0.0332,0.0,0.0,0.0283,0.0472,0.05,0.0365,0.0231,0.0137,0.0148,0.0217,0.0332,-0.0027,0,-0.0604,-0.0533,-0.0448,-0.0365,-0.0341,-0.0327,-0.0409,-0.0505,-0.0549,-0.0558,-0.0519,-0.0541,-0.056,-0.0563,-0.0555,-0.0555,-0.0566,-0.0585,-0.0563,-0.0527,-0.0519,-0.0527,-0.0536,-0.0522,-0.0505,-0.047,-0.042,0,0,0,-0.0044,0.0146,0,0,0,0.0195,0.0291,0.0335,0.0264,0.0176,0.011,0.0093,0.011,0.0113,-0.0038,0,-0.042,-0.0428,-0.0417,-0.0379,-0.0363,-0.0368,-0.0525,-0.0621,-0.0637,-0.0629,-0.0549,-0.05,-0.042,-0.0382,-0.0376,-0.039,-0.0428,-0.0481,-0.0519,-0.0544,-0.0558,-0.0569,-0.0607,-0.0634,-0.0629,-0.0577,-0.0489,0,0,0,0,0,0,0,0.0137,0.017,0.0187,0.019,0.0154,0.0102,0.0066,0.0025,0.0008,-0.0027,-0.0058,0,-0.0327,-0.0365,-0.0409,-0.0401,-0.0379,-0.0382,-0.0552,-0.0656,-0.0684,-0.0676,-0.0549,-0.0338,-0.0198,-0.0173,-0.0192,-0.0228,-0.0283,-0.0352,-0.0417,-0.0481,-0.0544,-0.0585,-0.0618,-0.0673,-0.0728,-0.0731,-0.064,0,0,0,0,0,0,0.0077,0.0104,0.0104,0.0091,0.0091,0.0071,0.0033,0.0008,-0.0063,-0.0135,-0.003,-0.0033,0,-0.0291,-0.0343,-0.0407,-0.0417,-0.0382,-0.0343,-0.0505,-0.0645,-0.0703,-0.0695,-0.0453,-0.0126,-0.0055,-0.008,-0.0113,-0.0151,-0.0201,-0.0258,-0.0316,-0.0371,-0.0442,-0.0519,-0.0596,-0.067,-0.0747,-0.0805,-0.0772,0,0,0,0,0,0,0.0071,0.008,0.006,0.0036,0.0022,0.0,-0.0041,-0.0047,-0.0135,-0.0253,0,0,0,-0.0297,-0.0352,-0.0407,-0.0417,-0.0374,-0.0294,-0.0439,-0.0604,-0.0681,-0.067,-0.0319,-0.0038,-0.0025,-0.0044,-0.0077,-0.0115,-0.0159,-0.0217,-0.0277,-0.0324,-0.0363,-0.0423,-0.0533,-0.0651,-0.0753,-0.081,-0.0799,0,0,0,0,0,0,0.0066,0.0074,0.0033,-0.0014,-0.0047,-0.0077,-0.0137,-0.0036,-0.0198,-0.0261,-0.0126,0,0,-0.0349,-0.0379,-0.0409,-0.0415,-0.0368,-0.0258,-0.0385,-0.0555,-0.0637,-0.0591,-0.0255,-0.0027,0.0011,0.0003,-0.0025,-0.0063,-0.0113,-0.0179,-0.0253,-0.0316,-0.0357,-0.0398,-0.0475,-0.0585,-0.0692,-0.075,-0.0728,0,0,0,0,0,-0.0005,0.0052,0.0044,-0.0005,-0.0069,-0.0121,-0.0168,-0.0228,0,-0.0288,-0.0239,-0.0151,0,0,-0.0442,-0.0417,-0.0417,-0.0412,-0.0374,-0.0255,-0.0368,-0.0525,-0.0577,-0.05,-0.0275,-0.0069,0.0025,0.0049,0.0038,0.0011,-0.0044,-0.0124,-0.0214,-0.0302,-0.0376,-0.0426,-0.0475,-0.0549,-0.0621,-0.0654,-0.0623,0,-0.0165,0.0,-0.0074,0,-0.0003,0.0036,0.0,-0.0052,-0.0126,-0.0192,-0.025,-0.0286,-0.0236,-0.0332,-0.0244,-0.0176,0,-0.0228,-0.0445,-0.0437,-0.0428,-0.0415,-0.039,-0.028,-0.0393,-0.0505,-0.0525,-0.0464,-0.0332,-0.0198,-0.0104,0.0014,0.0071,0.0063,0.0027,-0.0058,-0.0176,-0.0288,-0.039,-0.0464,-0.0494,-0.0519,-0.0555,-0.0563,-0.0519,0,-0.0321,0,-0.0088,-0.0102,0,0.0019,-0.0022,-0.0102,-0.0187,-0.0266,-0.0335,-0.0371,-0.0338,-0.036,-0.0294,-0.0088,0,-0.0299,-0.0387,-0.0428,-0.0434,-0.0431,-0.0423,-0.033,-0.0464,-0.0541,-0.0552,-0.0497,-0.0387,-0.0283,-0.0206,-0.0113,0.0011,0.0069,0.0049,-0.0005,-0.0154,-0.0316,-0.0434,-0.0508,-0.0516,-0.0483,-0.0456,-0.0445,-0.0407,0,-0.0396,-0.0124,-0.0093,-0.0091,-0.0027,-0.0036,-0.0085,-0.0168,-0.0258,-0.0354,-0.0448,-0.0522,-0.0547,-0.047,-0.0162,0,-0.0019,-0.0354,-0.0401,-0.0428,-0.0445,-0.0464,-0.0464,-0.0428,-0.0585,-0.064,-0.0634,-0.0552,-0.0407,-0.025,-0.0126,-0.0124,-0.0099,0.0,0.003,-0.0005,-0.0143,-0.0379,-0.0536,-0.0577,-0.0522,-0.042,-0.0346,-0.0338,-0.033,-0.0107,-0.022,-0.0091,-0.0071,-0.0077,-0.0052,-0.0099,-0.0168,-0.0244,-0.0338,-0.0445,-0.0582,-0.075,-0.0904,-0.0272,0,0.0236,-0.0047,-0.0357,-0.0437,-0.0459,-0.0478,-0.0505,-0.0497,-0.0607,-0.0717,-0.0714,-0.07,-0.0569,-0.0294,-0.0047,0.0063,0.0016,-0.0093,-0.0071,-0.0003,-0.0052,-0.0181,-0.0453,-0.0637,-0.0651,-0.0472,-0.0247,-0.017,-0.0222,-0.0272,-0.0121,-0.0091,-0.0047,-0.0055,-0.0077,-0.0099,-0.0143,-0.0206,-0.0299,-0.0401,-0.0514,-0.0678,-0.0928,-0.134,0,0.0396,0.0203,-0.0126,-0.0396,-0.0478,-0.0492,-0.0516,-0.0552,-0.0593,-0.0766,-0.0794,-0.075,-0.067,-0.0398,0.0022,0.0253,0.0247,0.0077,-0.0077,-0.0052,0.0036,-0.0074,-0.0305,-0.0599,-0.0744,-0.0667,-0.0365,-0.011,-0.0228,-0.0357,-0.0346,-0.0107,-0.0041,-0.0027,-0.0049,-0.0091,-0.0135,-0.0176,-0.0231,-0.0338,-0.0426,-0.053,-0.0637,-0.0915,-0.1231,-0.0277,0.0107,-0.0049,-0.0275,-0.0445,-0.0514,-0.0527,-0.0555,-0.0623,-0.075,-0.0821,-0.0802,-0.0706,-0.0437,0.0014,0.0343,0.0409,0.0253,-0.0052,-0.0126,0.0124,0.0225,-0.0027,-0.0439,-0.0786,-0.0865,-0.0665,-0.0382,-0.0547,-0.0808,-0.0648,-0.0407,-0.0052,-0.0016,-0.0014,-0.0049,-0.0113,-0.017,-0.0198,-0.0225,-0.0354,-0.0459,-0.056,-0.0286,-0.0939,-0.0857,-0.0409,-0.0313,-0.0363,-0.0434,-0.0508,-0.0555,-0.0585,-0.0632,-0.075,-0.0851,-0.0805,-0.0687,-0.0428,0.0011,0.039,0.0456,0.0341,0.0022,-0.0338,-0.008,0.0467,0.0492,0.0011,-0.0544,-0.0904,-0.0901,-0.0764,-0.0893,-0.1409,-0.1211,-0.0563,-0.0294,0.0016,0.0016,-0.0008,-0.0069,-0.0151,-0.0217,-0.0214,-0.011,-0.0176,-0.0761,-0.0854,0,-0.0797,-0.0687,-0.0541,-0.0486,-0.0505,-0.0566,-0.0643,-0.0695,-0.0742,-0.0799,-0.0879,-0.0829,-0.0637,-0.0341,0.0058,0.0415,0.0516,0.0354,0.0082,-0.0404,-0.0591,0.0044,0.072,0.0607,0.0016,-0.0555,-0.0865,-0.0906,-0.1099,-0.1555,-0.1678,-0.0772,-0.0181,-0.0118,0.0063,0.0033,-0.0033,-0.0113,-0.0206,-0.0294,-0.036,-0.0008,0,-0.0835,-0.0978,-0.0393,-0.0566,-0.0574,-0.0536,-0.0549,-0.0621,-0.0769,-0.0939,-0.1066,-0.1071,-0.0986,-0.0835,-0.0588,-0.0255,0.0126,0.0456,0.0571,0.0437,0.0118,-0.0258,-0.0786,-0.0659,0.0044,0.0698,0.0503,-0.006,-0.053,-0.0851,-0.1074,-0.1417,-0.175,-0.1104,-0.0187,-0.0003,-0.0113,0.0049,0.0014,-0.0077,-0.0162,-0.0253,-0.0379,-0.0687,0,0.0038,-0.0634,-0.0733,-0.0401,-0.0431,-0.0448,-0.0544,-0.0588,-0.0687,-0.0832,-0.1041,-0.1252,-0.1291,-0.106,-0.0667,-0.0217,0.0176,0.0461,0.0596,0.0505,0.0222,-0.0162,-0.0549,-0.0854,-0.0593,-0.0082,0.0516,0.039,-0.0222,-0.0651,-0.0967,-0.1332,-0.1604,-0.1283,-0.0412,-0.0025,0.0,-0.0016]}],[{"header":{"parameterUnit":"m.s-1","parameterCategory":2,"la1":30.5641,"la2":29.4642,"lo1":-89.4342,"lo2":-87.9343,"dy":0.0333,"dx":0.0333,"nx":46,"ny":34,"refTime":"2025-11-10T00:00:00:Z","depth":"6","parameterNumber":2,"parameterNumberName":"U-component_of_CURRENTS"},"data":[0,0,0,0,0,0,0,0,0,0,0,0,0,0,0,0,0,0,0,0,0,0,0,0,0,0,0,0,0,0,0,0,0,0,0,0,0,0,0,0,0,0.0294,0.042,0.0717,0.084,0,0,0,0,0,0,0,0,0,0,0,0,0,0,0,0,0,0,0,0,0,0,0,0,0,0,0,0,0,0,0,0,0,0,0,0,0,0,0,0,0,0,0.0044,0.0173,0.0434,0.0448,0,0,0,0,0,0,0,0,0,0,0,0,0,0,0,0,0,0,0,0,0,0,0,0,0,0,0,0,0,0,0,0,0,0,0,0,0,0,0,0,0,0,-0.0063,0.0099,0.0398,0.0404,0,0,0,0,0,0,0,0,0,0,0,0,0,0,0,0,0,0,0,0,0,0,0,0,0,0,0,0,0,0,0,0,0,0,0,0,0,0,0,0,0,0,0.0115,0.0096,0.0478,0.0571,0,0,0,0,0,0,0,0,0,0,0,0,0,0,0,0,0,0,0,0,0,0,0,0,0,0,0,0,0,0,0,0,0,0,0,0,0,0,0,0,0,0.0143,0.0239,0.0173,0.022,0.0363,0,0,0,0,0,0,0,0,0,0,0,0,0,0,0,0,0,0,0,0,0,0,0,0,0,0,0,0,0,0,0,0,0,0,0,0,0,0,0,0,0,0.0033,0.0214,0.0211,0.0135,0.0225,0,0,0,0,0,0,0,0,0,0,0,0,0.008,0.0222,0.033,0.0407,0.0453,0.0475,0.0459,0.0387,0.0338,0,0,0,0,0,0,0,0,0,0,0,0,0.0022,0.0066,0.0085,0,0,0,0,0,-0.0016,0.0058,0.0074,0.0099,0.0203,0,0,0,0,0,0,0,0,0,-0.003,0.0044,0.0217,0.0269,0.0283,0.0346,0.0412,0.0472,0.053,0.0602,0.0656,0.0687,0.0629,0.0577,0.0747,0.0884,0.0959,0.106,0,0,0,0,0.0014,0.003,0.0036,0.0129,0.022,0,0,0,0,0,-0.0063,-0.011,-0.0126,-0.0093,-0.0008,0,0,0,0,-0.0085,-0.0346,-0.0352,-0.011,0.0096,0.0264,0.0242,0.0187,0.0206,0.0266,0.0352,0.0423,0.0505,0.0582,0.0629,0.0651,0.0648,0.064,0.064,0.0665,0.0662,0.103,0.1228,0.0766,0.0511,0.0382,0.0203,0.017,0.0173,0.0126,0.0247,0.0371,0.0247,-0.017,-0.0659,-0.0755,-0.0692,-0.0313,-0.0168,-0.0371,-0.0382,-0.0272,0,0,0,-0.0201,-0.0486,-0.0417,-0.0195,-0.0033,0.0071,0.0201,0.0209,0.0154,0.0192,0.0272,0.0354,0.0412,0.0555,0.0722,0.0703,0.0607,0.0522,0.0541,0.0604,0.0604,0.0643,0.0709,0.0838,0.1041,0.1033,0.0742,0.0613,0.0588,0.0412,0.0135,-0.0016,0.0198,0.0626,0.058,0.0294,0,0,0,-0.0288,-0.0711,-0.0769,-0.0577,0,0,-0.0211,-0.0489,-0.0571,-0.0434,-0.0222,-0.0055,-0.0014,-0.0019,0,0,0,0.0049,0.0242,0.0327,0.0269,0,0.0176,0.0396,0.0439,0,0,0,0,0,0,0,0.0176,0.0374,0.0459,0.0648,0.0588,0.0283,0.0151,0,0,0.017,0.0308,0.0154,-0.0319,-0.0769,-0.011,0.0637,0,0,0,-0.0203,-0.0423,-0.0379,-0.0442,-0.0437,-0.0173,0.0022,0.0041,-0.0011,-0.0044,0.0143,0.0442,0.0475,0.0393,0,0,0.0107,0.0349,0.058,0.081,0.0846,0.07,0.0637,0.0547,0.0437,0.0321,0.0162,0.0036,0,0,0,0.003,0.0214,0.0283,0.0181,-0.0025,0.0143,0.0341,0.0357,0.0253,0.017,0,0.0143,0.0038,-0.0151,-0.0104,0.0014,-0.0132,-0.0327,-0.0503,-0.0417,-0.0066,0.0096,0.0214,0.0302,0.0211,0.0201,0.0316,0.0398,0.0615,0.0794,0.081,0.075,0.0692,0.0733,0.0802,0.0786,0.0703,0.0621,0.0525,0.0434,0.0368,0.0316,0.0434,0.0478,0.0426,0.0346,0.022,0.0299,0.031,0.0228,0.0316,0.0407,0.0239,-0.0104,0.0019,0.0261,0.0244,0.0357,0.0187,-0.0055,-0.0082,0,-0.0165,-0.0346,-0.0346,-0.0291,-0.0253,0,0,0.0052,0.0162,0.028,0.0382,0.0464,0.058,0.0681,0.0747,0.0808,0.0835,0.0843,0.0802,0.0717,0.0618,0.0544,0.0489,0.0448,0.0423,0.0428,0.0472,0.0489,0.0431,0.0327,0.0299,0.0374,0.0472,0.0456,0.0319,0.0286,0.039,0.0508,0.05,0.0448,0.0211,-0.0027,-0.0214,-0.0428,-0.0527,0.017,-0.0022,-0.0341,-0.0481,-0.0464,0,0,0,0.0099,0.0264,0.0374,0.0442,0.0478,0.0508,0.0566,0.0678,0.084,0.0937,0.0906,0.0799,0.0684,0.058,0.0505,0.0464,0.0445,0.0445,0.0453,0.0456,0.0426,0.0363,0.031,0.0294,0.0319,0.0343,0.0341,0.0299,0.0247,0.0217,0.0261,0.0354,0.0453,0.0519,0.0448,0.0143,-0.0154,-0.0297,-0.0115,-0.0173,-0.0115,0,0,0,0,0,0.0041,0.017,0.031,0.0398,0.0428,0.0415,0.0434,0.0547,0.0832,0.1057,0.095,0.0761,0.0632,0.053,0.0461,0.0423,0.0404,0.0398,0.0398,0.0398,0.0396,0.0396,0.0404,0.0417,0.0412,0.0363,0.0305,0.0266,0.0239,0.022,0.022,0.0222,0.0209,0.0203,0.0239,0.0297,0.0288,0.0214,0,0,-0.0151,-0.0448,-0.0357,-0.0113,0,0,0.0049,0.014,0.0203,0.0247,0.0266,0.0258,0.0255,0.0247,0.0236,0,0.0288,0.0541,0.0489,0.0439,0.0393,0.0357,0.0335,0.0335,0.0343,0.0352,0.0341,0.0332,0.0327,0.0294,0.0233,0.0168,0.0126,0.0132,0.0176,0.022,0.0231,0.0209,0.017,0.0124,0.0074,0.0044,0.0027,-0.0008,0,0,-0.0121,-0.0247,-0.033,-0.0272,-0.0159,0.0022,0.0346,0.0346,0.0157,0.0082,0.0088,0.011,0.0129,0.0148,0.0058,-0.0044,0,0.011,0.0269,0.0321,0.0308,0.028,0.0283,0.0319,0.0305,0.0222,0.0118,0.0025,-0.0041,-0.0077,-0.0071,-0.0044,-0.0008,0.0041,0.011,0.0184,0.0225,0.0225,0.0192,0.0143,0.0088,0.003,-0.0019,-0.0058,0,0,0,0.0011,0.0022,0,0,0,0.0038,0.008,0.0049,0.0011,0.0,0.0019,0.0038,0.0044,0.0003,-0.0041,0,0.0066,0.017,0.0222,0.0214,0.0201,0.0255,0.031,0.0264,0.0168,0.0066,-0.003,-0.0077,-0.0047,0.0022,0.0077,0.011,0.0129,0.014,0.014,0.0143,0.0154,0.017,0.0181,0.0173,0.0132,0.0066,0.0003,0,0,0,0,0,0,0,0.0102,0.0187,0.0146,0.0085,0.0041,0.0016,0.0011,0.0005,-0.0008,-0.0022,-0.0027,0,0.0038,0.0102,0.014,0.0143,0.0148,0.0242,0.0327,0.031,0.0261,0.0195,0.0154,0.0179,0.022,0.0242,0.0261,0.028,0.0294,0.0297,0.0277,0.0228,0.0148,0.008,0.0066,0.0071,0.0058,0.0052,0.0047,0,0,0,0,0,0,0.0071,0.0135,0.0121,0.0107,0.0088,0.006,0.003,0.0005,-0.0019,-0.0091,-0.011,-0.0074,0,0.0019,0.0044,0.0066,0.008,0.0107,0.0217,0.0324,0.0338,0.0332,0.033,0.0332,0.0299,0.0258,0.0253,0.0258,0.0275,0.0302,0.0335,0.0365,0.0379,0.0352,0.025,0.0091,-0.0041,-0.0077,-0.006,-0.0025,0,0,0,0,0,0,0.0019,0.0055,0.0077,0.008,0.0069,0.0047,0.0014,-0.0016,-0.0025,-0.0022,0,0,0,-0.0003,-0.0014,-0.0003,0.0016,0.0052,0.0179,0.0302,0.0327,0.0338,0.0376,0.0338,0.0244,0.0214,0.0225,0.0242,0.0253,0.0269,0.0297,0.0338,0.0379,0.0412,0.0428,0.0396,0.0247,0.0058,-0.0047,-0.0038,0,0,0,0,0,0,0.0019,0.0047,0.0058,0.006,0.0049,0.0016,-0.003,-0.0033,-0.0014,0.0016,0.0052,0,0,-0.0025,-0.0063,-0.0066,-0.0044,-0.0008,0.0121,0.0255,0.0291,0.0305,0.0352,0.0288,0.0173,0.0159,0.0192,0.0233,0.0261,0.0269,0.0277,0.0294,0.0321,0.0357,0.0396,0.0423,0.0417,0.0354,0.0253,0.0173,0,0,0,0,0,0.0025,0.006,0.0066,0.006,0.0058,0.0044,0.0016,-0.0003,0,-0.0027,-0.003,-0.0005,0,0,-0.0044,-0.0102,-0.0104,-0.0088,-0.006,0.006,0.0192,0.0222,0.0261,0.031,0.0343,0.0294,0.0195,0.0179,0.0222,0.0283,0.0327,0.033,0.031,0.0297,0.0299,0.0324,0.0365,0.0407,0.042,0.0396,0.0352,0,-0.006,-0.0038,0.0,0,0.0008,0.0041,0.0063,0.006,0.0058,0.0055,0.0038,0.0027,-0.0033,-0.0069,-0.0036,-0.0027,0,-0.0093,-0.0148,-0.0107,-0.0104,-0.0102,-0.0091,0.0019,0.0146,0.0168,0.0192,0.0264,0.033,0.0387,0.0393,0.0308,0.0258,0.0288,0.0371,0.045,0.0439,0.0363,0.0299,0.0275,0.0291,0.0341,0.0396,0.0431,0.0442,0,0.0214,0,0.0022,0.0047,0,0.0033,0.008,0.0088,0.008,0.0071,0.0047,-0.0003,-0.0093,-0.0157,-0.0162,-0.0165,0,-0.006,-0.0121,-0.0113,-0.0104,-0.0113,-0.0115,-0.0003,0.0115,0.0124,0.0165,0.0228,0.0255,0.0291,0.0382,0.0453,0.0417,0.0371,0.0396,0.0492,0.0591,0.0541,0.0398,0.0288,0.0247,0.028,0.0368,0.0486,0.0591,0,0.0099,0.0173,0.017,0.0228,0.0286,0.0297,0.0236,0.0165,0.0121,0.0093,0.0044,-0.0044,-0.0159,-0.0253,-0.0283,0,-0.0011,-0.0005,-0.0014,-0.0052,-0.0077,-0.0102,-0.0115,0.0003,0.0099,0.011,0.0181,0.0228,0.0272,0.0365,0.045,0.0538,0.0596,0.0558,0.0514,0.0533,0.0651,0.0709,0.0558,0.0365,0.0266,0.0294,0.0439,0.0645,0.0824,-0.0071,0.0005,0.014,0.0209,0.0255,0.0269,0.0258,0.0236,0.0201,0.0162,0.0121,0.0058,-0.0071,-0.0319,-0.0478,0,0.0014,0.0052,0.0082,0.0036,-0.0014,-0.0052,-0.0085,-0.0063,0.0071,0.0118,0.0121,0.0214,0.0294,0.0415,0.0577,0.0709,0.0766,0.078,0.0766,0.0703,0.0648,0.0656,0.0717,0.0662,0.05,0.0431,0.05,0.0615,0.0717,0.0808,0.0066,0.0129,0.0206,0.0253,0.0277,0.0283,0.0266,0.0244,0.0222,0.0203,0.0184,0.0173,0.0176,0.0179,0,0.0058,0.014,0.0132,0.0115,0.0063,0.0016,-0.003,-0.0055,0.006,0.0176,0.0157,0.0192,0.0321,0.0486,0.0662,0.0797,0.0851,0.081,0.0725,0.0717,0.0772,0.0794,0.0783,0.0772,0.0731,0.0673,0.0613,0.0549,0.0481,0.0393,0.0387,0.0148,0.0209,0.025,0.0275,0.0283,0.0275,0.0258,0.025,0.0242,0.0247,0.0266,0.036,0.0519,0.0816,0.0893,0.0613,0.0335,0.0187,0.0124,0.0085,0.0047,0.0011,0.0052,0.0179,0.0209,0.0192,0.0319,0.0527,0.0725,0.0868,0.0898,0.0794,0.0632,0.0508,0.0519,0.0632,0.0753,0.0791,0.0728,0.0637,0.0566,0.042,0.0104,-0.0187,-0.0266,-0.0214,0.0211,0.0255,0.0283,0.0294,0.0283,0.0264,0.0253,0.0264,0.0288,0.0286,0.0253,0.0483,0.0692,0.0692,0.0632,0.042,0.0291,0.0231,0.0195,0.0168,0.0143,0.0135,0.0203,0.0253,0.0233,0.0338,0.058,0.0788,0.092,0.0975,0.0873,0.0643,0.0423,0.0291,0.022,0.0239,0.0365,0.0439,0.042,0.0349,0.0192,-0.0146,-0.0437,-0.0511,-0.0459,-0.0428,0.0269,0.0299,0.031,0.0302,0.0277,0.025,0.0233,0.0305,0.0522,0.0437,0.0209,0,0.0157,0.0409,0.05,0.0505,0.0525,0.0538,0.0527,0.0486,0.0431,0.0404,0.039,0.0349,0.0415,0.0656,0.0895,0.1019,0.103,0.0923,0.0689,0.0464,0.0294,0.003,-0.0255,-0.0228,-0.0038,0.0022,0.0003,-0.0063,-0.0244,-0.0456,-0.0346,-0.0129,-0.003,0.0003,0.0343,0.0346,0.0327,0.0305,0.0275,0.0225,0.0085,-0.0022,0,0.0022,0.0214,0.0327,0.0338,0.0492,0.0632,0.0791,0.0904,0.0975,0.0978,0.0915,0.084,0.0764,0.0654,0.067,0.0849,0.1063,0.1189,0.1165,0.0997,0.0722,0.0401,0.0242,0.0146,-0.0236,-0.0717,-0.0725,-0.0431,-0.0354,-0.0415,-0.0494,-0.0549,-0.0299,0.017,0.0379,0.033,0.0214,0.0376,0.0346,0.033,0.0321,0.0305,0.0266,0.0236,0,-0.0069,-0.0157,0.0008,0.0214,0.0387,0.0599,0.0887,0.1093,0.1258,0.1428,0.1615,0.1717,0.1681,0.1513,0.1318,0.1277,0.136,0.139,0.1288,0.1052,0.0722,0.0374,0.0099,0.0063,0.0074,-0.0217,-0.07,-0.0901,-0.0769,-0.0687,-0.0728,-0.0775,-0.0673,-0.0225,0.0148,0.011,-0.0019,-0.0179]},{"header":{"parameterUnit":"m.s-1","parameterCategory":2,"la1":30.5641,"la2":29.4642,"lo1":-89.4342,"lo2":-87.9343,"dy":0.0333,"dx":0.0333,"nx":46,"ny":34,"refTime":"2025-11-10T00:00:00:Z","depth":"6","parameterNumber":3,"parameterNumberName":"V-component_of_CURRENTS"},"data":[0,0,0,0,0,0,0,0,0,0,0,0,0,0,0,0,0,0,0,0,0,0,0,0,0,0,0,0,0,0,0,0,0,0,0,0,0,0,0,0,0,-0.064,-0.0049,0.0085,-0.0794,0,0,0,0,0,0,0,0,0,0,0,0,0,0,0,0,0,0,0,0,0,0,0,0,0,0,0,0,0,0,0,0,0,0,0,0,0,0,0,0,0,0,-0.0604,-0.0151,-0.0071,-0.0937,0,0,0,0,0,0,0,0,0,0,0,0,0,0,0,0,0,0,0,0,0,0,0,0,0,0,0,0,0,0,0,0,0,0,0,0,0,0,0,0,0,0,-0.0393,-0.014,-0.0365,-0.0964,0,0,0,0,0,0,0,0,0,0,0,0,0,0,0,0,0,0,0,0,0,0,0,0,0,0,0,0,0,0,0,0,0,0,0,0,0,0,0,0,0,0,-0.0305,-0.0137,-0.0341,-0.0981,0,0,0,0,0,0,0,0,0,0,0,0,0,0,0,0,0,0,0,0,0,0,0,0,0,0,0,0,0,0,0,0,0,0,0,0,0,0,0,0,0,-0.0459,-0.0412,-0.0192,-0.0382,-0.1074,0,0,0,0,0,0,0,0,0,0,0,0,0,0,0,0,0,0,0,0,0,0,0,0,0,0,0,0,0,0,0,0,0,0,0,0,0,0,0,0,0,-0.056,-0.0459,-0.0261,-0.05,-0.1104,0,0,0,0,0,0,0,0,0,0,0,0,0.0107,0.0093,0.0058,0.0025,-0.0014,-0.006,-0.0113,-0.0187,-0.0428,0,0,0,0,0,0,0,0,0,0,0,0,-0.0033,-0.0033,-0.0165,0,0,0,0,0,-0.0514,-0.0475,-0.0277,-0.0519,-0.0953,0,0,0,0,0,0,0,0,0,-0.0025,0.0044,0.006,0.0099,0.0107,0.0071,0.0036,0.0011,-0.0033,-0.0093,-0.017,-0.0297,-0.0019,0.0003,-0.0102,0.0184,0.0096,-0.0069,0,0,0,0,-0.0038,-0.0058,-0.0049,-0.0181,-0.0261,0,0,0,0,0,-0.0684,-0.0522,-0.0363,-0.0431,-0.0725,0,0,0,0,-0.0376,-0.0157,0.0074,-0.0074,-0.0063,-0.0014,-0.0038,0.0003,0.0025,0.0135,0.0096,0.006,0.0047,-0.0047,-0.017,-0.0217,-0.0214,-0.0069,-0.0008,-0.006,0.0099,-0.0121,-0.0063,0.047,0.0514,0.0346,0.0148,-0.0022,-0.0077,-0.0124,-0.0387,-0.0242,-0.0132,-0.0137,-0.0596,0.0,0.0,-0.0423,-0.0788,-0.0585,-0.0445,-0.0426,0,0,0,-0.0338,-0.0401,-0.0154,0.0016,-0.0082,-0.0063,0.0038,-0.006,-0.003,-0.0019,0.0088,0.0099,0.0069,0.0184,-0.0047,-0.0456,-0.0431,-0.0439,-0.006,-0.0011,-0.0011,0.0003,-0.0162,-0.0033,0.0233,0.036,0.0102,-0.0041,-0.0052,-0.0159,-0.0291,-0.0478,-0.0063,-0.0066,-0.0398,-0.0629,0,0,0,-0.1187,-0.0939,-0.0261,-0.0135,0,0,-0.0291,-0.0385,-0.0387,-0.0162,-0.0074,-0.0135,-0.006,0.003,0,0,0,0.0168,0.0102,0.0033,0.0154,0,-0.0552,-0.0599,-0.081,0,0,0,0,0,0,0,-0.0277,-0.0071,-0.0115,-0.0049,-0.0352,-0.056,-0.0821,0,0,-0.0574,-0.0558,-0.0508,-0.0717,-0.0808,-0.0689,-0.1203,0,0,0,-0.0096,-0.031,-0.0409,-0.0308,-0.0137,-0.0088,-0.0244,-0.014,-0.0044,-0.0047,0.0121,0.0206,0.0206,-0.0225,0,0,0.0201,-0.0316,-0.0536,-0.0777,-0.0143,-0.011,-0.0173,-0.0176,-0.0187,-0.0242,-0.0343,-0.0791,0,0,0,-0.0503,-0.0651,-0.0698,-0.0143,-0.0558,-0.0651,-0.0538,-0.0525,-0.0648,-0.0659,0,-0.0937,0.0319,0.0407,0.0214,-0.0049,-0.0464,-0.0385,-0.033,-0.0091,-0.008,-0.0157,-0.011,-0.0143,-0.0019,0.017,0.0201,0.0047,-0.0409,-0.0124,-0.0047,0.0096,-0.0179,-0.0398,-0.0461,-0.0198,-0.0195,-0.0244,-0.0239,-0.0255,-0.0294,-0.0365,-0.0643,-0.0088,-0.0222,-0.0393,-0.0761,-0.0868,-0.0755,-0.0434,-0.0519,-0.0687,-0.0835,-0.0876,-0.078,-0.0514,-0.0552,-0.0656,-0.0148,-0.0038,-0.0129,0,-0.0538,-0.028,-0.0244,-0.0019,-0.0047,0,0,-0.0165,0.0071,0.0244,0.0217,0.0033,-0.0151,-0.0091,-0.0044,-0.0025,-0.0173,-0.0341,-0.0379,-0.0308,-0.0286,-0.0308,-0.0324,-0.0346,-0.0363,-0.0376,-0.0379,-0.022,-0.0297,-0.0376,-0.0566,-0.0607,-0.0618,-0.0472,-0.0398,-0.047,-0.0651,-0.0862,-0.0846,-0.0742,-0.0728,-0.0687,-0.0522,-0.0461,-0.039,-0.017,-0.0431,-0.0143,-0.0052,0.0008,0,0,0,-0.0099,0.0201,0.031,0.0247,0.0104,-0.0016,-0.0019,0.0016,0.0044,-0.0143,-0.0365,-0.0434,-0.0404,-0.0357,-0.0341,-0.0346,-0.036,-0.0363,-0.0346,-0.0319,-0.0283,-0.0305,-0.0341,-0.0393,-0.0401,-0.0442,-0.0453,-0.0431,-0.0412,-0.0511,-0.0613,-0.0591,-0.0541,-0.0582,-0.0703,-0.0698,-0.056,-0.0456,-0.0085,-0.0201,-0.008,0,0,0,0,0,-0.0162,0.0343,0.0407,0.0255,0.0121,0.0022,0.0044,0.0154,0.0368,-0.0063,-0.053,-0.0547,-0.0497,-0.042,-0.0368,-0.0349,-0.0343,-0.0335,-0.0319,-0.0305,-0.0308,-0.0327,-0.0368,-0.0415,-0.045,-0.0527,-0.0571,-0.058,-0.0538,-0.0505,-0.047,-0.0434,-0.0401,-0.042,-0.0516,-0.0637,-0.0651,-0.0571,0,0,-0.0255,0.0231,0.0253,-0.0129,0,0,-0.0047,0.0461,0.047,0.0247,0.0107,0.0027,0.0066,0.0201,0.0486,0,-0.033,-0.0651,-0.056,-0.0456,-0.0387,-0.0352,-0.0335,-0.0332,-0.0368,-0.0396,-0.0412,-0.0415,-0.0467,-0.053,-0.0571,-0.061,-0.0632,-0.0643,-0.0626,-0.0552,-0.0489,-0.0461,-0.0448,-0.0437,-0.0434,-0.0483,-0.0486,-0.0439,0,0,-0.0228,0.0036,0.0181,-0.0066,0.0,0.0,0.0099,0.0387,0.0393,0.022,0.0102,0.0038,0.0063,0.0137,0.0253,-0.0049,0,-0.0582,-0.0522,-0.0453,-0.0396,-0.0363,-0.0346,-0.042,-0.0511,-0.0552,-0.0555,-0.0514,-0.0536,-0.0555,-0.0558,-0.0549,-0.0549,-0.0563,-0.058,-0.056,-0.0525,-0.0514,-0.0522,-0.0525,-0.0508,-0.0492,-0.0464,-0.0417,0,0,0,-0.0082,0.0074,0,0,0,0.0115,0.025,0.0253,0.0176,0.0102,0.0055,0.0052,0.0077,0.0071,-0.0055,0,-0.042,-0.0426,-0.0434,-0.0407,-0.0379,-0.0382,-0.0536,-0.0626,-0.0643,-0.0632,-0.0549,-0.0497,-0.0417,-0.0379,-0.0374,-0.0387,-0.0428,-0.0478,-0.0516,-0.0541,-0.0558,-0.0569,-0.0607,-0.0626,-0.0621,-0.0574,-0.0486,0,0,0,0,0,0,0,0.0121,0.0154,0.0168,0.0157,0.0121,0.0074,0.0044,0.0011,0.0003,-0.0033,-0.0071,0,-0.0332,-0.0368,-0.042,-0.0417,-0.0387,-0.039,-0.056,-0.0662,-0.0692,-0.0681,-0.0552,-0.0341,-0.0201,-0.0179,-0.0195,-0.0231,-0.0288,-0.0354,-0.042,-0.0483,-0.0547,-0.0585,-0.0618,-0.067,-0.0728,-0.0733,-0.0643,0,0,0,0,0,0,0.0055,0.0085,0.0088,0.0082,0.008,0.0058,0.0022,0.0,-0.0066,-0.0137,-0.0033,-0.0041,0,-0.0294,-0.0346,-0.0412,-0.0423,-0.0385,-0.0352,-0.0514,-0.0654,-0.0711,-0.0703,-0.0459,-0.0137,-0.0066,-0.0088,-0.0121,-0.0162,-0.0209,-0.0266,-0.0324,-0.0382,-0.045,-0.0525,-0.0596,-0.067,-0.075,-0.0808,-0.0777,0,0,0,0,0,0,0.0044,0.0055,0.0044,0.0027,0.0014,-0.0005,-0.0044,-0.0052,-0.014,-0.0255,0,0,0,-0.0299,-0.0352,-0.0407,-0.042,-0.0376,-0.0302,-0.0448,-0.061,-0.0687,-0.0676,-0.0327,-0.0052,-0.0038,-0.0058,-0.0088,-0.0124,-0.0168,-0.0222,-0.0286,-0.0335,-0.0376,-0.0437,-0.0544,-0.0656,-0.0755,-0.0813,-0.0805,0,0,0,0,0,0,0.0036,0.0052,0.0019,-0.0022,-0.0052,-0.0082,-0.0137,-0.0038,-0.0201,-0.0264,-0.0132,0,0,-0.0346,-0.0376,-0.0409,-0.0412,-0.0368,-0.0266,-0.0393,-0.056,-0.0645,-0.0599,-0.0266,-0.0041,-0.0003,-0.0011,-0.0041,-0.0077,-0.0124,-0.0187,-0.0258,-0.0321,-0.0368,-0.0412,-0.0492,-0.0599,-0.0706,-0.0755,-0.0733,0,0,0,0,0,-0.0022,0.0038,0.0027,-0.0019,-0.0074,-0.0124,-0.0168,-0.0222,0,-0.0286,-0.0236,-0.0154,0,0,-0.0434,-0.0409,-0.0415,-0.0409,-0.0374,-0.0261,-0.0376,-0.0533,-0.0585,-0.0514,-0.0288,-0.0082,0.0011,0.0033,0.0022,-0.0008,-0.006,-0.0137,-0.0225,-0.0308,-0.0382,-0.0437,-0.0492,-0.0569,-0.064,-0.067,-0.0637,0,-0.0184,0.0,-0.0093,0,-0.0011,0.0027,-0.0014,-0.0066,-0.0132,-0.019,-0.0244,-0.0277,-0.0228,-0.0324,-0.0239,-0.0176,0,-0.0228,-0.0437,-0.0428,-0.0423,-0.0415,-0.0393,-0.0286,-0.0401,-0.0519,-0.0536,-0.0478,-0.0349,-0.0211,-0.0118,0.0003,0.006,0.0049,0.0011,-0.008,-0.0192,-0.0299,-0.0396,-0.0472,-0.0505,-0.0536,-0.0577,-0.0588,-0.0547,0,-0.033,0,-0.0104,-0.0115,0,0.0008,-0.0033,-0.011,-0.019,-0.0261,-0.0324,-0.0357,-0.0324,-0.0352,-0.0288,-0.0088,0,-0.0297,-0.0382,-0.042,-0.0431,-0.0431,-0.0426,-0.0335,-0.0475,-0.0555,-0.0563,-0.0511,-0.0398,-0.0291,-0.0214,-0.0121,0.0003,0.006,0.0036,-0.0022,-0.0173,-0.0332,-0.0445,-0.0514,-0.0527,-0.0497,-0.0481,-0.0472,-0.0439,0,-0.0396,-0.0137,-0.0107,-0.011,-0.0058,-0.0058,-0.0093,-0.017,-0.0258,-0.0346,-0.0434,-0.05,-0.0527,-0.0459,-0.0159,0,-0.0179,-0.0349,-0.0393,-0.0426,-0.0445,-0.0461,-0.0467,-0.0434,-0.0596,-0.0651,-0.0645,-0.0558,-0.0407,-0.0247,-0.0126,-0.0126,-0.0104,-0.0005,0.0022,-0.0019,-0.0159,-0.0398,-0.0549,-0.0588,-0.0533,-0.0437,-0.0365,-0.0365,-0.036,-0.0126,-0.0233,-0.0113,-0.0096,-0.0104,-0.0082,-0.0121,-0.017,-0.0242,-0.0332,-0.0437,-0.056,-0.0711,-0.0862,-0.0264,0,-0.0063,-0.0173,-0.0363,-0.0428,-0.0453,-0.0475,-0.0503,-0.05,-0.0607,-0.072,-0.0717,-0.0695,-0.056,-0.0286,-0.0044,0.0066,0.0016,-0.0099,-0.008,-0.0011,-0.0063,-0.0195,-0.047,-0.0654,-0.0665,-0.0492,-0.0269,-0.0195,-0.0247,-0.0297,-0.0143,-0.0115,-0.0077,-0.0088,-0.0113,-0.0126,-0.0151,-0.0209,-0.0297,-0.0396,-0.0505,-0.0648,-0.0876,-0.1203,0,0.0151,-0.003,-0.0181,-0.0409,-0.0464,-0.0486,-0.0511,-0.0547,-0.0585,-0.0761,-0.0788,-0.0725,-0.0648,-0.0382,0.003,0.0255,0.0244,0.0077,-0.0077,-0.0058,0.0025,-0.0091,-0.0316,-0.0613,-0.0758,-0.0687,-0.0387,-0.014,-0.025,-0.0368,-0.0354,-0.014,-0.0077,-0.0069,-0.0093,-0.0129,-0.0157,-0.0187,-0.0236,-0.0338,-0.042,-0.0519,-0.061,-0.0865,-0.1079,-0.0294,-0.0008,-0.008,-0.0247,-0.0428,-0.0483,-0.0511,-0.0541,-0.0604,-0.0714,-0.0808,-0.0769,-0.0665,-0.0415,0.0025,0.0346,0.0409,0.0253,-0.0049,-0.0121,0.0121,0.0214,-0.0044,-0.0453,-0.0794,-0.0879,-0.0689,-0.0415,-0.0569,-0.0805,-0.064,-0.0401,-0.0126,-0.0082,-0.0082,-0.0115,-0.0159,-0.0195,-0.0209,-0.0231,-0.0349,-0.045,-0.0533,-0.0275,-0.0865,-0.075,-0.0341,-0.0211,-0.0231,-0.033,-0.0434,-0.05,-0.0549,-0.0599,-0.0689,-0.0813,-0.078,-0.0645,-0.0401,0.0025,0.0393,0.0456,0.0341,0.0022,-0.0332,-0.0071,0.0459,0.0472,-0.0005,-0.0558,-0.0912,-0.0915,-0.0783,-0.0917,-0.1379,-0.1192,-0.0558,-0.0288,-0.0099,-0.0093,-0.011,-0.0154,-0.0203,-0.0239,-0.022,-0.0121,-0.0173,-0.0739,-0.0808,0,-0.075,-0.0549,-0.0349,-0.0255,-0.0277,-0.0363,-0.0472,-0.0566,-0.0648,-0.0731,-0.0832,-0.0816,-0.0607,-0.031,0.0074,0.0417,0.0516,0.0352,0.0082,-0.0401,-0.058,0.0044,0.0703,0.0585,0.0,-0.0569,-0.0876,-0.092,-0.111,-0.1538,-0.1621,-0.0775,-0.0184,-0.0121,-0.0071,-0.0102,-0.0148,-0.0198,-0.025,-0.0305,-0.036,-0.0014,0,-0.092,-0.0895,-0.011,-0.0319,-0.0261,-0.017,-0.0148,-0.0217,-0.0396,-0.0621,-0.0808,-0.0901,-0.0923,-0.0829,-0.0582,-0.0233,0.0143,0.0461,0.0569,0.0434,0.0118,-0.0255,-0.0777,-0.0651,0.0038,0.0687,0.0486,-0.0071,-0.0541,-0.0857,-0.109,-0.1406,-0.1667,-0.109,-0.0209,-0.0016,-0.0124,-0.0124,-0.0124,-0.0176,-0.0217,-0.0272,-0.0379,-0.0626,0,-0.0387,-0.0527,-0.0294,0.0195,0.0206,0.014,0.0027,-0.0052,-0.0269,-0.061,-0.0904,-0.1088,-0.1107,-0.097,-0.0621,-0.0203,0.0181,0.0467,0.0596,0.05,0.0222,-0.0159,-0.0541,-0.0843,-0.0591,-0.0085,0.0511,0.0382,-0.0228,-0.0656,-0.097,-0.1307,-0.1533,-0.1247,-0.0428,-0.0049,-0.0019,-0.0036]}],[{"header":{"parameterUnit":"m.s-1","parameterCategory":2,"la1":30.5641,"la2":29.4642,"lo1":-89.4342,"lo2":-87.9343,"dy":0.0333,"dx":0.0333,"nx":46,"ny":34,"refTime":"2025-11-10T00:00:00:Z","depth":"8","parameterNumber":2,"parameterNumberName":"U-component_of_CURRENTS"},"data":[0,0,0,0,0,0,0,0,0,0,0,0,0,0,0,0,0,0,0,0,0,0,0,0,0,0,0,0,0,0,0,0,0,0,0,0,0,0,0,0,0,0.0242,0.0459,0.0549,0.036,0,0,0,0,0,0,0,0,0,0,0,0,0,0,0,0,0,0,0,0,0,0,0,0,0,0,0,0,0,0,0,0,0,0,0,0,0,0,0,0,0,0,0.0135,0.0332,0.0533,0.0396,0,0,0,0,0,0,0,0,0,0,0,0,0,0,0,0,0,0,0,0,0,0,0,0,0,0,0,0,0,0,0,0,0,0,0,0,0,0,0,0,0,0,0.0052,0.0239,0.0481,0.042,0,0,0,0,0,0,0,0,0,0,0,0,0,0,0,0,0,0,0,0,0,0,0,0,0,0,0,0,0,0,0,0,0,0,0,0,0,0,0,0,0,0,0.0228,0.0192,0.0412,0.0439,0,0,0,0,0,0,0,0,0,0,0,0,0,0,0,0,0,0,0,0,0,0,0,0,0,0,0,0,0,0,0,0,0,0,0,0,0,0,0,0,0,0.0217,0.0376,0.0286,0.0393,0.039,0,0,0,0,0,0,0,0,0,0,0,0,0,0,0,0,0,0,0,0,0,0,0,0,0,0,0,0,0,0,0,0,0,0,0,0,0,0,0,0,0,0.0071,0.0269,0.0343,0.0297,0.0225,0,0,0,0,0,0,0,0,0,0,0,0,0.0077,0.0214,0.0319,0.039,0.0437,0.0456,0.0442,0.0379,0.0332,0,0,0,0,0,0,0,0,0,0,0,0,0.0025,0.0066,0.0088,0,0,0,0,0,-0.0003,0.0173,0.0343,0.036,0.0255,0,0,0,0,0,0,0,0,0,-0.0041,0.0019,0.0184,0.0239,0.0261,0.033,0.0393,0.0442,0.0459,0.0472,0.0527,0.058,0.0547,0.0497,0.0634,0.0703,0.0648,0.0665,0,0,0,0,0.0016,0.0052,0.0129,0.0266,0.0352,0,0,0,0,0,0.0209,0.0327,0.0288,0.0352,0.0236,0,0,0,0,-0.0085,-0.0253,-0.031,-0.0258,-0.0184,-0.0022,0.0005,-0.0022,0.0069,0.0192,0.033,0.0401,0.0459,0.0486,0.0505,0.0552,0.0577,0.0558,0.0549,0.0558,0.05,0.0687,0.0684,0.017,0.0025,0.0085,-0.0058,-0.0022,0.0165,0.0261,0.0332,0.0346,0.0242,-0.0096,-0.0492,-0.0497,-0.0063,0.0376,0.0269,0.0113,0.0102,0.003,0,0,0,-0.0181,-0.0275,-0.0272,-0.0332,-0.0308,-0.0253,-0.0162,-0.011,-0.0082,-0.0066,0.008,0.0288,0.0385,0.0492,0.0593,0.0571,0.0503,0.0461,0.0494,0.0549,0.0566,0.0563,0.0569,0.0533,0.0286,0.0233,0.033,0.0299,0.0357,0.0404,0.0327,0.0302,0.0319,0.0439,0.0464,0.0354,0,0,0,-0.0027,-0.0129,-0.0341,-0.0439,0,0,-0.0203,-0.0341,-0.0286,-0.0352,-0.0371,-0.0319,-0.0316,-0.033,0,0,0,-0.0135,0.0003,0.0266,0.0255,0,0.0157,0.0352,0.0393,0,0,0,0,0,0,0,0.0363,0.0613,0.0417,0.0415,0.0508,0.0363,0.0209,0,0,0.0261,0.0417,0.0165,-0.0044,0.0047,0.0393,0.0577,0,0,0,-0.0195,-0.0368,-0.0294,-0.0313,-0.0382,-0.0379,-0.0393,-0.0368,-0.0288,-0.0236,-0.0214,-0.008,-0.0016,-0.0088,0,0,0.0096,0.0319,0.0536,0.0722,0.0736,0.0623,0.0558,0.05,0.0423,0.0316,0.0115,-0.0008,0,0,0,0.0225,0.0547,0.0346,0.0082,0.0099,0.0527,0.0522,0.0448,0.0445,0.0428,0,-0.0063,-0.0214,-0.0264,-0.0233,-0.0071,-0.014,-0.0313,-0.0379,-0.0431,-0.0428,-0.0297,-0.0099,-0.0124,-0.0341,-0.0398,-0.0225,-0.0033,0.0266,0.0547,0.0662,0.0656,0.0629,0.0676,0.0733,0.0709,0.0607,0.0541,0.0486,0.042,0.0363,0.0316,0.0431,0.0464,0.0206,0.0146,0.0324,0.0547,0.0547,0.033,0.0239,0.0363,0.0442,0.045,0.056,0.0428,0.058,0.0744,0.0547,0.0332,0.0214,0,-0.0118,-0.0283,-0.0368,-0.0379,-0.0349,0,0,-0.0154,-0.0321,-0.0253,-0.0063,0.0118,0.0288,0.0461,0.0591,0.0692,0.0744,0.0769,0.0739,0.0656,0.0563,0.05,0.0461,0.0434,0.0415,0.0423,0.0464,0.0456,0.0387,0.031,0.0302,0.0385,0.0437,0.0404,0.0308,0.0286,0.0305,0.0316,0.0423,0.0492,0.0533,0.0549,0.0401,0.0162,0.0036,0.0104,-0.0038,-0.0214,-0.0286,-0.0308,0,0,0,-0.0151,-0.0297,-0.0192,0.0027,0.0203,0.0302,0.0398,0.0541,0.0714,0.0813,0.0805,0.0725,0.0632,0.0544,0.0483,0.045,0.0437,0.0437,0.0448,0.045,0.0417,0.036,0.0308,0.0297,0.0319,0.0343,0.0341,0.0302,0.0247,0.022,0.0258,0.0341,0.0371,0.0393,0.0379,0.0305,0.0233,0.0102,-0.0118,-0.017,-0.0102,0,0,0,0,0,-0.0211,-0.0442,-0.0291,-0.0008,0.0173,0.0253,0.0305,0.0442,0.0706,0.0904,0.0821,0.0678,0.0577,0.05,0.0448,0.0415,0.0398,0.0393,0.0393,0.0393,0.039,0.0393,0.0404,0.042,0.0415,0.0368,0.031,0.0272,0.025,0.0236,0.0228,0.0222,0.0209,0.0201,0.0233,0.0236,0.0181,0.0137,0,0,-0.0066,-0.014,-0.0244,-0.0352,0,0,-0.0187,-0.0404,-0.0297,-0.0082,0.0052,0.0129,0.0148,0.0121,0.0093,0,0.0264,0.0492,0.045,0.0417,0.0385,0.0354,0.0332,0.033,0.0335,0.0346,0.0338,0.0332,0.0327,0.0294,0.0233,0.017,0.0137,0.0148,0.0192,0.0231,0.0236,0.0217,0.0181,0.0132,0.0077,0.0044,0.0022,-0.0011,0,0,-0.0129,-0.031,-0.0415,-0.0382,-0.0371,-0.025,0.0049,0.0011,-0.0148,-0.0121,-0.0052,0.0019,0.0049,-0.0011,-0.0071,-0.0069,0,0.0099,0.025,0.031,0.0305,0.028,0.0277,0.0308,0.0291,0.0211,0.0113,0.0022,-0.0041,-0.0077,-0.0071,-0.0044,-0.0005,0.0047,0.0121,0.0192,0.0233,0.0233,0.0201,0.0151,0.0093,0.0033,-0.0019,-0.0055,0,0,0,-0.0066,-0.0135,0,0,0,0.0014,0.0008,-0.0052,-0.0091,-0.0071,-0.0022,0.0,-0.006,-0.0091,-0.006,0,0.006,0.0159,0.0214,0.0217,0.0198,0.0247,0.0297,0.0247,0.0157,0.0058,-0.0036,-0.008,-0.0047,0.0022,0.0077,0.0113,0.0132,0.0143,0.0146,0.0151,0.0162,0.0179,0.019,0.0179,0.0137,0.0071,0.0005,0,0,0,0,0,0,0,0.0099,0.0187,0.014,0.0074,0.0027,0.0003,-0.0005,-0.0011,-0.0022,-0.003,-0.003,0,0.0036,0.0091,0.0135,0.0146,0.0146,0.0231,0.0313,0.0291,0.0244,0.0181,0.0143,0.0173,0.0217,0.0242,0.0261,0.0283,0.0297,0.0299,0.028,0.0231,0.0154,0.0085,0.0074,0.008,0.0066,0.0058,0.0049,0,0,0,0,0,0,0.0071,0.0135,0.0121,0.0102,0.008,0.0052,0.0019,-0.0008,-0.0036,-0.0102,-0.0113,-0.0074,0,0.0014,0.0036,0.0063,0.0082,0.0099,0.0203,0.031,0.0321,0.0316,0.0313,0.0319,0.0291,0.0255,0.025,0.0258,0.0275,0.0305,0.0338,0.0368,0.0382,0.0354,0.0253,0.0096,-0.003,-0.0063,-0.0049,-0.0019,0,0,0,0,0,0,0.0019,0.0055,0.0074,0.0074,0.006,0.0038,0.0005,-0.003,-0.0038,-0.0033,0,0,0,-0.0005,-0.0019,-0.0005,0.0016,0.0047,0.0165,0.0288,0.031,0.0319,0.036,0.0327,0.0236,0.0211,0.022,0.0239,0.0253,0.0272,0.0302,0.0341,0.0379,0.0409,0.0426,0.0396,0.025,0.0069,-0.0033,-0.0025,0,0,0,0,0,0,0.0019,0.0041,0.0052,0.0055,0.0041,0.0008,-0.0038,-0.0044,-0.0027,0.0011,0.0047,0,0,-0.0027,-0.0066,-0.0069,-0.0044,-0.0014,0.0107,0.0242,0.0272,0.0286,0.0335,0.0277,0.0165,0.0154,0.0187,0.0228,0.0258,0.0269,0.028,0.0299,0.0327,0.036,0.0393,0.0415,0.0412,0.0354,0.0255,0.0181,0,0,0,0,0,0.0025,0.0058,0.006,0.0052,0.0049,0.0038,0.0008,-0.0014,0,-0.003,-0.0036,-0.0014,0,0,-0.0044,-0.0102,-0.0107,-0.0088,-0.0066,0.0049,0.0179,0.0206,0.0242,0.0294,0.0332,0.0286,0.019,0.0176,0.0217,0.0277,0.0321,0.0327,0.0313,0.0305,0.031,0.033,0.0363,0.0398,0.0409,0.0393,0.0354,0,-0.0052,-0.0027,0.0005,0,0.0005,0.0038,0.0063,0.0049,0.0047,0.0047,0.003,0.0019,-0.0038,-0.0071,-0.0038,-0.003,0,-0.0093,-0.0148,-0.011,-0.0104,-0.0102,-0.0093,0.0011,0.0132,0.0151,0.0176,0.025,0.0319,0.0376,0.0385,0.0302,0.0253,0.0286,0.0365,0.0442,0.0434,0.0365,0.0308,0.0283,0.0297,0.0338,0.039,0.0426,0.0439,0,0.0211,0,0.0027,0.0052,0,0.0038,0.008,0.0074,0.0066,0.006,0.0036,-0.0011,-0.0099,-0.0159,-0.0162,-0.0162,0,-0.006,-0.0121,-0.0113,-0.0104,-0.011,-0.0115,-0.0011,0.0107,0.0104,0.0143,0.0214,0.0244,0.0283,0.0374,0.0445,0.0415,0.0371,0.0396,0.0489,0.0582,0.0536,0.0401,0.0299,0.0258,0.0286,0.0368,0.0486,0.0591,0,0.0099,0.0176,0.0179,0.0231,0.0288,0.0297,0.0233,0.0151,0.0104,0.0077,0.0033,-0.0052,-0.0162,-0.0244,-0.0272,0,-0.0014,-0.0011,-0.0016,-0.0055,-0.0077,-0.0102,-0.0118,-0.0003,0.0096,0.0082,0.0146,0.0203,0.0258,0.0354,0.0442,0.0533,0.0593,0.056,0.0519,0.0536,0.0645,0.0698,0.0552,0.0374,0.028,0.0308,0.045,0.0651,0.0829,-0.0066,0.0011,0.0146,0.0214,0.0261,0.0277,0.0261,0.0228,0.0184,0.0146,0.0104,0.0044,-0.008,-0.0302,-0.0445,0,-0.0074,-0.0104,0.0022,0.003,-0.0014,-0.0052,-0.0085,-0.0066,0.0058,0.011,0.0082,0.0168,0.0253,0.0398,0.0571,0.0706,0.0764,0.078,0.0766,0.0709,0.0654,0.0659,0.0706,0.0651,0.0503,0.0445,0.0514,0.0629,0.0728,0.0816,0.0069,0.0132,0.0209,0.0255,0.0283,0.0286,0.0264,0.0233,0.0206,0.0184,0.0162,0.0146,0.0148,0.0154,0,-0.0019,-0.0113,-0.0146,0.0016,0.0044,0.0014,-0.003,-0.0055,0.0038,0.0146,0.0132,0.0157,0.0264,0.0456,0.0656,0.0794,0.0851,0.0813,0.0728,0.0722,0.078,0.0802,0.0788,0.0766,0.0722,0.0673,0.0623,0.056,0.0489,0.0398,0.0393,0.0148,0.0209,0.0253,0.0277,0.0286,0.0275,0.0253,0.0236,0.0225,0.0228,0.0236,0.0313,0.0459,0.0709,0.0722,0.036,0.0033,-0.0005,0.0038,0.0055,0.0041,0.0011,0.0038,0.0151,0.0184,0.0168,0.0277,0.0492,0.0714,0.0865,0.0898,0.0797,0.0632,0.0508,0.053,0.0645,0.0764,0.0794,0.0725,0.0632,0.0569,0.0431,0.0115,-0.0184,-0.0261,-0.0201,0.0203,0.0255,0.0286,0.0294,0.0283,0.0261,0.0247,0.025,0.0269,0.0264,0.0225,0.0434,0.0621,0.0599,0.0508,0.0272,0.0124,0.0096,0.0107,0.0118,0.0113,0.0118,0.0181,0.0228,0.0214,0.031,0.0552,0.0777,0.0917,0.0975,0.0873,0.064,0.0415,0.0294,0.0239,0.0261,0.0379,0.0439,0.0415,0.0349,0.0206,-0.0126,-0.0445,-0.0519,-0.0445,-0.0401,0.0247,0.0288,0.0308,0.0302,0.0275,0.0244,0.0225,0.0286,0.0453,0.0335,0.0113,0,0.0093,0.0258,0.0316,0.0294,0.0313,0.0346,0.0371,0.0374,0.0365,0.0371,0.0374,0.0335,0.0398,0.064,0.0887,0.1016,0.103,0.0923,0.0689,0.0456,0.0283,0.0038,-0.0217,-0.0192,-0.0027,0.0022,0.0003,-0.0063,-0.0244,-0.047,-0.0368,-0.0137,-0.0022,0.0016,0.0332,0.0332,0.0319,0.0299,0.0269,0.0217,0.0077,-0.0027,0,-0.0071,0.0005,0.0069,0.0038,0.0184,0.0302,0.0464,0.0593,0.0687,0.0736,0.0753,0.075,0.0725,0.0645,0.0667,0.0843,0.106,0.1187,0.1165,0.0997,0.072,0.0396,0.0231,0.0135,-0.022,-0.0665,-0.0676,-0.0415,-0.0354,-0.0415,-0.0497,-0.0558,-0.0324,0.0148,0.0379,0.0335,0.022,0.0387,0.0343,0.0321,0.031,0.0294,0.025,0.022,0,-0.0036,-0.0192,-0.0266,-0.0239,-0.0096,0.0099,0.0439,0.0673,0.0865,0.0989,0.1099,0.1255,0.1357,0.1338,0.1266,0.1272,0.1357,0.139,0.1291,0.1052,0.072,0.0368,0.0088,0.0047,0.0066,-0.0203,-0.0654,-0.0838,-0.0731,-0.0684,-0.0731,-0.0764,-0.0676,-0.0239,0.0151,0.0113,-0.0014,-0.0176]},{"header":{"parameterUnit":"m.s-1","parameterCategory":2,"la1":30.5641,"la2":29.4642,"lo1":-89.4342,"lo2":-87.9343,"dy":0.0333,"dx":0.0333,"nx":46,"ny":34,"refTime":"2025-11-10T00:00:00:Z","depth":"8","parameterNumber":3,"parameterNumberName":"V-component_of_CURRENTS"},"data":[0,0,0,0,0,0,0,0,0,0,0,0,0,0,0,0,0,0,0,0,0,0,0,0,0,0,0,0,0,0,0,0,0,0,0,0,0,0,0,0,0,0.0302,0.0407,0.0157,-0.0135,0,0,0,0,0,0,0,0,0,0,0,0,0,0,0,0,0,0,0,0,0,0,0,0,0,0,0,0,0,0,0,0,0,0,0,0,0,0,0,0,0,0,0.0341,0.0179,-0.0008,-0.0228,0,0,0,0,0,0,0,0,0,0,0,0,0,0,0,0,0,0,0,0,0,0,0,0,0,0,0,0,0,0,0,0,0,0,0,0,0,0,0,0,0,0,0.0352,0.0047,-0.0173,-0.0184,0,0,0,0,0,0,0,0,0,0,0,0,0,0,0,0,0,0,0,0,0,0,0,0,0,0,0,0,0,0,0,0,0,0,0,0,0,0,0,0,0,0,0.0206,-0.0063,-0.028,-0.0151,0,0,0,0,0,0,0,0,0,0,0,0,0,0,0,0,0,0,0,0,0,0,0,0,0,0,0,0,0,0,0,0,0,0,0,0,0,0,0,0,0,0.0074,-0.0008,-0.0118,-0.0357,-0.0129,0,0,0,0,0,0,0,0,0,0,0,0,0,0,0,0,0,0,0,0,0,0,0,0,0,0,0,0,0,0,0,0,0,0,0,0,0,0,0,0,0,-0.0148,-0.0173,-0.0214,-0.0379,-0.0157,0,0,0,0,0,0,0,0,0,0,0,0,0.0113,0.0099,0.0069,0.0033,0.0003,-0.0038,-0.0082,-0.0154,-0.0385,0,0,0,0,0,0,0,0,0,0,0,0,-0.0019,-0.0025,-0.0157,0,0,0,0,0,-0.022,-0.0275,-0.0247,-0.031,-0.0195,0,0,0,0,0,0,0,0,0,-0.0027,0.0044,0.0091,0.0132,0.0121,0.008,0.0047,0.003,0.0019,0.0025,-0.0022,-0.0154,0.0085,0.0085,-0.0036,0.0231,0.0321,0.0305,0,0,0,0,-0.0027,0.0044,0.0055,-0.0005,-0.0049,0,0,0,0,0,-0.0027,-0.0272,-0.0294,-0.0286,-0.0151,0,0,0,0,-0.0354,-0.0228,-0.0129,-0.0124,-0.0099,-0.0025,0.0036,0.0066,0.0143,0.0179,0.0102,0.0063,0.006,0.0027,-0.0003,0.0027,0.0049,0.011,0.0077,-0.0016,0.0159,0.017,0.0236,0.0623,0.0618,0.0459,0.0387,0.0104,0.0129,0.0206,0.0173,0.017,0.0277,0.0049,-0.0319,0.0,0.0,0.0071,-0.0456,-0.05,-0.0508,-0.0209,0,0,0,-0.0302,-0.0349,-0.0239,-0.0124,-0.0107,-0.0099,-0.0058,0.0014,0.0022,0.0066,0.0118,0.0126,0.0066,0.0176,-0.0011,-0.0305,-0.0225,-0.0201,0.0066,0.0033,0.0003,0.0047,0.0011,0.0082,0.031,0.0755,0.047,0.0244,0.0228,0.0242,0.0371,0.022,0.0143,0.014,-0.0005,-0.0242,0,0,0,-0.0547,-0.0651,-0.036,-0.0168,0,0,-0.0283,-0.0321,-0.0346,-0.0203,-0.0093,-0.0055,0.0038,0.008,0,0,0,0.0151,0.0162,0.0033,0.0146,0,-0.0434,-0.0467,-0.0637,0,0,0,0,0,0,0,0.0107,0.0239,0.0049,0.011,0.0277,0.0148,-0.0168,0,0,0.0066,-0.0033,-0.0016,-0.0308,-0.0481,-0.0211,-0.0541,0,0,0,-0.011,-0.0302,-0.036,-0.0297,-0.0113,-0.0027,-0.0085,-0.0011,0.0033,-0.0143,0.0168,0.0582,0.0354,-0.0058,0,0,0.0184,-0.028,-0.0475,-0.0662,-0.0088,-0.0069,-0.0099,-0.0129,-0.0165,-0.0233,-0.0201,-0.0637,0,0,0,0.0157,-0.0071,-0.0085,0.0478,-0.006,-0.0063,0.0052,0.0014,-0.0179,-0.0247,0,0.0016,0.0456,0.0588,0.0486,-0.0055,-0.039,-0.0371,-0.0239,-0.0121,-0.0159,-0.0077,-0.0102,-0.0143,-0.0003,0.0261,0.0467,0.0225,-0.0261,-0.008,-0.0027,0.0093,-0.0165,-0.0357,-0.0401,-0.0146,-0.0124,-0.0165,-0.0201,-0.0233,-0.0286,-0.0352,-0.061,-0.0033,0.0052,-0.014,-0.0396,-0.05,-0.0343,-0.0025,-0.0288,-0.0566,-0.0623,-0.0585,-0.0401,-0.0049,0.0011,0.0,0.0382,0.0357,0.025,0,-0.0393,-0.0269,-0.0162,-0.0214,-0.0168,0,0,-0.019,0.0151,0.0324,0.0291,0.0044,-0.0143,-0.008,-0.0044,-0.003,-0.0165,-0.0313,-0.0338,-0.0258,-0.0233,-0.0266,-0.0299,-0.033,-0.0354,-0.0368,-0.0363,-0.0132,-0.0137,-0.0269,-0.0533,-0.0593,-0.0497,-0.0363,-0.0332,-0.0461,-0.0662,-0.0698,-0.0632,-0.0371,-0.036,-0.036,-0.028,-0.0236,-0.022,-0.019,-0.0294,-0.0088,-0.0047,-0.0126,0,0,0,-0.0206,0.0201,0.0319,0.0214,0.0063,-0.0047,-0.0052,-0.0019,0.0008,-0.0146,-0.0343,-0.0404,-0.0374,-0.0332,-0.0324,-0.0338,-0.0357,-0.0363,-0.0343,-0.031,-0.0269,-0.0283,-0.0324,-0.0376,-0.0385,-0.0426,-0.0434,-0.0417,-0.0404,-0.0497,-0.0585,-0.056,-0.0472,-0.0511,-0.0585,-0.0508,-0.0385,-0.0316,-0.0093,-0.0132,0.011,0,0,0,0,0,-0.0047,0.0363,0.0426,0.0176,0.0033,-0.0044,-0.0011,0.0082,0.0275,-0.0066,-0.0481,-0.0505,-0.0467,-0.0401,-0.0363,-0.0349,-0.0346,-0.0338,-0.0319,-0.0302,-0.0302,-0.0319,-0.036,-0.0401,-0.0434,-0.0505,-0.0544,-0.0555,-0.0514,-0.0481,-0.0442,-0.0415,-0.0385,-0.0409,-0.0505,-0.0547,-0.0475,-0.0423,0,0,-0.0107,-0.0137,0.0217,0.0379,0,0,-0.0014,0.0483,0.0483,0.0129,-0.0011,-0.0055,0.0003,0.0096,0.0324,0,-0.0297,-0.0599,-0.053,-0.0442,-0.0382,-0.0357,-0.0338,-0.0332,-0.0363,-0.0385,-0.0401,-0.0407,-0.0459,-0.0519,-0.0558,-0.0599,-0.0615,-0.0623,-0.0602,-0.0533,-0.047,-0.0439,-0.0426,-0.0417,-0.0423,-0.0472,-0.0472,-0.0434,0,0,-0.0214,-0.0181,-0.0005,0.019,0.0,0.0,-0.0025,0.0332,0.0341,0.0102,-0.0003,-0.0022,0.0022,0.0055,0.0066,-0.006,0,-0.0549,-0.05,-0.0442,-0.0396,-0.0365,-0.0349,-0.0415,-0.0503,-0.0544,-0.0549,-0.0508,-0.053,-0.0552,-0.0555,-0.0547,-0.0544,-0.0555,-0.0569,-0.0549,-0.0514,-0.0503,-0.0508,-0.0511,-0.0497,-0.0481,-0.0453,-0.0412,0,0,0,-0.0113,-0.0115,0,0,0,0.0091,0.0198,0.0198,0.0118,0.0052,0.0033,0.0041,0.0055,-0.0019,-0.0063,0,-0.0409,-0.0417,-0.0426,-0.0407,-0.0379,-0.0382,-0.0533,-0.0621,-0.0637,-0.0626,-0.0547,-0.0494,-0.0412,-0.0376,-0.0371,-0.0385,-0.0423,-0.0475,-0.0511,-0.0536,-0.0549,-0.056,-0.0599,-0.0621,-0.0615,-0.0569,-0.0481,0,0,0,0,0,0,0,0.0115,0.0143,0.0157,0.0146,0.0113,0.0066,0.0041,0.0011,0.0005,-0.003,-0.0077,0,-0.033,-0.0363,-0.0415,-0.0417,-0.0385,-0.039,-0.0558,-0.0659,-0.0689,-0.0678,-0.0552,-0.0341,-0.0201,-0.0179,-0.0195,-0.0231,-0.0288,-0.0354,-0.042,-0.0481,-0.0544,-0.058,-0.0613,-0.0667,-0.0728,-0.0733,-0.064,0,0,0,0,0,0,0.0047,0.0077,0.0082,0.008,0.0077,0.0058,0.0022,0.0,-0.0066,-0.0135,-0.0033,-0.0044,0,-0.0294,-0.0341,-0.0407,-0.042,-0.0385,-0.0352,-0.0514,-0.0651,-0.0711,-0.0703,-0.0461,-0.014,-0.0071,-0.0096,-0.0126,-0.0165,-0.0211,-0.0269,-0.0327,-0.0385,-0.0453,-0.0525,-0.0596,-0.0667,-0.0747,-0.0805,-0.0775,0,0,0,0,0,0,0.0033,0.0047,0.0041,0.0025,0.0014,-0.0008,-0.0044,-0.0052,-0.0137,-0.025,0,0,0,-0.0297,-0.0346,-0.0404,-0.0417,-0.0376,-0.0302,-0.0448,-0.061,-0.0689,-0.0678,-0.0332,-0.0058,-0.0047,-0.0066,-0.0096,-0.0129,-0.017,-0.0225,-0.0288,-0.0341,-0.0385,-0.0445,-0.0549,-0.0656,-0.0755,-0.081,-0.0802,0,0,0,0,0,0,0.0025,0.0047,0.0016,-0.0022,-0.0052,-0.008,-0.0132,-0.0038,-0.0198,-0.0261,-0.0135,0,0,-0.0341,-0.0368,-0.0404,-0.0409,-0.0368,-0.0266,-0.0396,-0.0563,-0.0648,-0.0604,-0.0275,-0.0049,-0.0014,-0.0022,-0.0049,-0.0085,-0.0132,-0.019,-0.0258,-0.0324,-0.0376,-0.0423,-0.0503,-0.0607,-0.0711,-0.0758,-0.0733,0,0,0,0,0,-0.003,0.0033,0.0022,-0.0022,-0.0074,-0.0121,-0.0162,-0.0217,0,-0.0277,-0.0231,-0.0154,0,0,-0.042,-0.0401,-0.0409,-0.0407,-0.0374,-0.0264,-0.0379,-0.0538,-0.0591,-0.0522,-0.0299,-0.0093,0.0,0.0022,0.0011,-0.0022,-0.0074,-0.0148,-0.0228,-0.0308,-0.0385,-0.0442,-0.05,-0.0582,-0.0654,-0.0678,-0.0645,0,-0.0192,0.0,-0.0104,0,-0.0016,0.0027,-0.0016,-0.0069,-0.0129,-0.0184,-0.0236,-0.0269,-0.022,-0.031,-0.0231,-0.0173,0,-0.0225,-0.0423,-0.0417,-0.0417,-0.0409,-0.0393,-0.0288,-0.0407,-0.0525,-0.0544,-0.0489,-0.036,-0.022,-0.0126,-0.0005,0.0049,0.0036,-0.0005,-0.0093,-0.0206,-0.0305,-0.0398,-0.0475,-0.0511,-0.0547,-0.0593,-0.0607,-0.0569,0,-0.033,0,-0.011,-0.0121,0,0.0005,-0.0036,-0.011,-0.0187,-0.0253,-0.0313,-0.0343,-0.031,-0.0335,-0.0277,-0.0088,0,-0.0291,-0.0374,-0.0415,-0.0426,-0.0428,-0.0426,-0.0341,-0.0478,-0.0563,-0.0574,-0.0519,-0.0407,-0.0297,-0.022,-0.0126,-0.0003,0.0055,0.0027,-0.0038,-0.019,-0.0346,-0.045,-0.0519,-0.053,-0.0508,-0.0497,-0.0494,-0.0467,0,-0.0387,-0.014,-0.011,-0.0115,-0.0066,-0.0066,-0.0093,-0.0165,-0.025,-0.0335,-0.0415,-0.0475,-0.05,-0.0439,-0.0154,0,-0.0203,-0.0332,-0.0387,-0.042,-0.0439,-0.0459,-0.047,-0.0437,-0.0596,-0.0659,-0.0648,-0.0555,-0.0404,-0.0244,-0.0124,-0.0129,-0.0107,-0.0008,0.0016,-0.003,-0.0173,-0.0412,-0.056,-0.0593,-0.0541,-0.0445,-0.0379,-0.0385,-0.0385,-0.0135,-0.0236,-0.0118,-0.0102,-0.0113,-0.0091,-0.0126,-0.017,-0.0233,-0.0324,-0.042,-0.053,-0.0665,-0.0799,-0.0253,0,-0.0211,-0.0225,-0.0338,-0.042,-0.0448,-0.0472,-0.05,-0.0505,-0.0596,-0.072,-0.0714,-0.0659,-0.053,-0.0277,-0.0036,0.0071,0.0016,-0.0099,-0.0082,-0.0016,-0.0069,-0.0203,-0.0483,-0.0662,-0.0673,-0.0503,-0.0283,-0.0211,-0.0266,-0.0316,-0.0148,-0.0124,-0.0085,-0.0099,-0.0121,-0.0132,-0.0154,-0.0203,-0.0288,-0.0385,-0.0483,-0.061,-0.0808,-0.1082,0,-0.0019,-0.0159,-0.0209,-0.0387,-0.0448,-0.0481,-0.0505,-0.0538,-0.056,-0.072,-0.0772,-0.0678,-0.0571,-0.0349,0.0036,0.0261,0.0247,0.0077,-0.0077,-0.006,0.0016,-0.0099,-0.0324,-0.0618,-0.0769,-0.0698,-0.0407,-0.0168,-0.0266,-0.0374,-0.0357,-0.0151,-0.0088,-0.0082,-0.0107,-0.014,-0.0162,-0.0187,-0.0233,-0.033,-0.0407,-0.0494,-0.0571,-0.0797,-0.0964,-0.0266,-0.0077,-0.0088,-0.0195,-0.0387,-0.0453,-0.0497,-0.053,-0.056,-0.061,-0.0761,-0.0725,-0.0585,-0.0365,0.0036,0.0349,0.0409,0.025,-0.0047,-0.0115,0.0118,0.0201,-0.0058,-0.0461,-0.0799,-0.0887,-0.0706,-0.0439,-0.0588,-0.0783,-0.0621,-0.0385,-0.0157,-0.0107,-0.0107,-0.0135,-0.017,-0.0201,-0.0209,-0.0231,-0.0338,-0.0431,-0.05,-0.0258,-0.0775,-0.0662,-0.0277,-0.0129,-0.0104,-0.0225,-0.0352,-0.0434,-0.05,-0.0549,-0.0571,-0.0689,-0.0736,-0.0588,-0.0354,0.0038,0.0393,0.0453,0.0338,0.0022,-0.0321,-0.0063,0.045,0.0453,-0.0019,-0.0566,-0.0917,-0.0923,-0.0805,-0.0926,-0.1324,-0.114,-0.0536,-0.0272,-0.0192,-0.0159,-0.0157,-0.0179,-0.0217,-0.0244,-0.0222,-0.0124,-0.0165,-0.0634,-0.067,0,-0.0629,-0.0426,-0.0214,-0.0071,-0.0071,-0.0162,-0.0291,-0.0415,-0.0522,-0.0599,-0.0689,-0.0747,-0.0574,-0.028,0.0085,0.042,0.0514,0.0349,0.0082,-0.0398,-0.0569,0.0047,0.0687,0.0558,-0.0011,-0.0574,-0.0882,-0.0928,-0.1121,-0.1489,-0.1527,-0.0755,-0.0184,-0.0118,-0.0217,-0.022,-0.0214,-0.0222,-0.0258,-0.0305,-0.0352,-0.0016,0,-0.0717,-0.0665,0.0082,-0.011,-0.0033,0.0082,0.0159,0.0135,-0.0025,-0.0244,-0.0467,-0.0656,-0.0772,-0.0764,-0.0571,-0.022,0.0154,0.0464,0.0569,0.0434,0.0115,-0.0255,-0.0766,-0.0645,0.0036,0.067,0.0467,-0.008,-0.0544,-0.086,-0.1096,-0.1357,-0.1568,-0.1057,-0.022,-0.0025,-0.0129,-0.0283,-0.0255,-0.0225,-0.0228,-0.0272,-0.0368,-0.0582,0,-0.0354,-0.031,-0.0074,0.0294,0.0343,0.0363,0.0448,0.0437,0.0286,-0.0047,-0.0483,-0.0766,-0.0838,-0.0775,-0.056,-0.019,0.0184,0.047,0.0596,0.05,0.0222,-0.0157,-0.0533,-0.0832,-0.0588,-0.0088,0.0503,0.0368,-0.0228,-0.0656,-0.0975,-0.1236,-0.1395,-0.1184,-0.0431,-0.0066,-0.0033,-0.0049]}],[{"header":{"parameterUnit":"m.s-1","parameterCategory":2,"la1":30.5641,"la2":29.4642,"lo1":-89.4342,"lo2":-87.9343,"dy":0.0333,"dx":0.0333,"nx":46,"ny":34,"refTime":"2025-11-10T00:00:00:Z","depth":"10","parameterNumber":2,"parameterNumberName":"U-component_of_CURRENTS"},"data":[0,0,0,0,0,0,0,0,0,0,0,0,0,0,0,0,0,0,0,0,0,0,0,0,0,0,0,0,0,0,0,0,0,0,0,0,0,0,0,0,0,0.0151,0.0302,0.0255,0.0005,0,0,0,0,0,0,0,0,0,0,0,0,0,0,0,0,0,0,0,0,0,0,0,0,0,0,0,0,0,0,0,0,0,0,0,0,0,0,0,0,0,0,0.0058,0.0198,0.0338,0.0104,0,0,0,0,0,0,0,0,0,0,0,0,0,0,0,0,0,0,0,0,0,0,0,0,0,0,0,0,0,0,0,0,0,0,0,0,0,0,0,0,0,0,0.0022,0.0168,0.0349,0.0154,0,0,0,0,0,0,0,0,0,0,0,0,0,0,0,0,0,0,0,0,0,0,0,0,0,0,0,0,0,0,0,0,0,0,0,0,0,0,0,0,0,0,0.022,0.019,0.0283,0.0137,0,0,0,0,0,0,0,0,0,0,0,0,0,0,0,0,0,0,0,0,0,0,0,0,0,0,0,0,0,0,0,0,0,0,0,0,0,0,0,0,0,0.0121,0.0275,0.0277,0.0236,0.0102,0,0,0,0,0,0,0,0,0,0,0,0,0,0,0,0,0,0,0,0,0,0,0,0,0,0,0,0,0,0,0,0,0,0,0,0,0,0,0,0,0,0.0066,0.0231,0.0297,0.0118,-0.008,0,0,0,0,0,0,0,0,0,0,0,0,0.0074,0.0209,0.0308,0.0376,0.0417,0.0437,0.0428,0.0368,0.0324,0,0,0,0,0,0,0,0,0,0,0,0,0.0025,0.0069,0.0088,0,0,0,0,0,0.0,0.0148,0.0283,0.0206,-0.0014,0,0,0,0,0,0,0,0,0,-0.0044,0.0014,0.0176,0.0228,0.025,0.0316,0.0376,0.0423,0.0437,0.045,0.05,0.0544,0.0516,0.0472,0.0591,0.0645,0.0538,0.05,0,0,0,0,0.0016,0.0055,0.0126,0.0261,0.0343,0,0,0,0,0,0.0118,0.022,0.0231,0.0236,0.0055,0,0,0,0,-0.0082,-0.0247,-0.0302,-0.0255,-0.019,-0.0115,-0.0126,-0.0102,0.0027,0.0181,0.0319,0.0382,0.0434,0.0456,0.0472,0.0514,0.0536,0.0525,0.0519,0.0525,0.0467,0.0566,0.0536,0.0118,0.0008,0.0077,-0.0058,-0.0022,0.0118,0.0159,0.0266,0.0332,0.0236,-0.0091,-0.0464,-0.0467,-0.0052,0.0357,0.028,0.014,0.0148,0.0019,0,0,0,-0.0176,-0.0264,-0.0261,-0.0321,-0.0297,-0.0255,-0.0236,-0.0217,-0.0184,-0.0129,0.0071,0.0277,0.0368,0.0459,0.0541,0.0522,0.047,0.0439,0.0475,0.0522,0.0536,0.0533,0.0533,0.0453,0.0168,0.0118,0.0264,0.028,0.0211,0.0099,0.0055,0.0085,0.0203,0.0404,0.0407,0.0288,0,0,0,0.0033,0.0074,-0.0041,-0.0266,0,0,-0.0198,-0.0327,-0.0272,-0.0338,-0.036,-0.031,-0.0264,-0.0233,0,0,0,-0.0132,0.0,0.0253,0.0244,0,0.0148,0.0332,0.0368,0,0,0,0,0,0,0,0.019,0.0407,0.0371,0.0187,0.0093,0.0137,0.0159,0,0,0.0192,0.0319,0.0143,0.0008,0.0077,0.0316,0.0461,0,0,0,-0.019,-0.0354,-0.0283,-0.0299,-0.0368,-0.0357,-0.0321,-0.0305,-0.028,-0.0233,-0.0198,-0.0203,-0.0247,-0.0269,0,0,0.0091,0.0302,0.05,0.0656,0.0602,0.0453,0.0453,0.0467,0.0407,0.0305,0.0146,0.0044,0,0,0,0.0135,0.0313,0.0168,-0.0088,0.0126,0.0396,0.0409,0.0352,0.033,0.0338,0,-0.0063,-0.0217,-0.0272,-0.0269,-0.0077,-0.0137,-0.0299,-0.0365,-0.0412,-0.0376,-0.0283,-0.0214,-0.0198,-0.0277,-0.0308,-0.0236,-0.0179,0.0096,0.0437,0.0591,0.0602,0.0585,0.0626,0.0643,0.0607,0.0511,0.0481,0.0456,0.0407,0.0354,0.0321,0.0385,0.0407,0.0154,0.0063,0.0291,0.0555,0.0596,0.0508,0.033,0.0417,0.0582,0.0555,0.0508,0.0313,0.0396,0.0398,0.0288,0.0148,0.0082,0,-0.0115,-0.0275,-0.0354,-0.0365,-0.0335,0,0,-0.0104,-0.0244,-0.0269,-0.022,-0.0099,0.0129,0.0368,0.0525,0.0629,0.0678,0.0678,0.0673,0.0604,0.0519,0.0467,0.0439,0.042,0.0407,0.0417,0.0456,0.0437,0.0346,0.0264,0.0269,0.0363,0.0387,0.0343,0.0288,0.0269,0.0297,0.0324,0.0379,0.0428,0.0569,0.0703,0.0566,0.0338,0.0211,0.0099,-0.0041,-0.0209,-0.0277,-0.0297,0,0,0,-0.0124,-0.0277,-0.0308,-0.0228,-0.0014,0.0201,0.0343,0.0489,0.0648,0.0736,0.0698,0.0654,0.0585,0.0514,0.0461,0.0437,0.0426,0.0431,0.0439,0.0442,0.0412,0.0354,0.0308,0.0297,0.0319,0.0341,0.0338,0.0299,0.025,0.0239,0.0264,0.0283,0.0269,0.0275,0.0363,0.0409,0.0321,0.0201,-0.0118,-0.017,-0.0104,0,0,0,0,0,-0.0129,-0.0291,-0.0327,-0.0288,-0.0093,0.0146,0.0275,0.0407,0.0643,0.081,0.0739,0.0588,0.053,0.0472,0.0434,0.0409,0.0393,0.0387,0.0385,0.0385,0.0385,0.039,0.0401,0.0423,0.0426,0.0396,0.0341,0.0297,0.0266,0.0244,0.0231,0.0225,0.0209,0.019,0.019,0.0176,0.0135,0.0082,0,0,-0.0066,-0.0137,-0.0159,-0.0179,0,0,-0.0055,-0.0217,-0.033,-0.0294,-0.0168,0.0025,0.0126,0.0082,0.0041,0,0.0247,0.0448,0.0415,0.0398,0.0379,0.0354,0.033,0.0324,0.033,0.0335,0.0332,0.033,0.033,0.0305,0.0253,0.0206,0.0184,0.0195,0.0228,0.025,0.025,0.0231,0.0192,0.0135,0.0077,0.0036,0.0005,-0.0025,0,0,-0.0126,-0.0299,-0.039,-0.036,-0.028,-0.0222,-0.0102,-0.0146,-0.0275,-0.0272,-0.0195,-0.0052,0.0033,-0.0077,-0.0132,-0.008,0,0.0093,0.0233,0.0299,0.0305,0.028,0.0272,0.0291,0.0269,0.0195,0.0104,0.0016,-0.0038,-0.0058,-0.0047,-0.0022,0.0022,0.008,0.0151,0.0217,0.025,0.0247,0.0214,0.0162,0.0099,0.0036,-0.0016,-0.0055,0,0,0,-0.0066,-0.0135,0,0,0,0.0003,-0.0038,-0.0135,-0.0179,-0.0121,-0.0033,-0.0008,-0.008,-0.0104,-0.0069,0,0.0058,0.0146,0.0209,0.0217,0.0198,0.0233,0.0272,0.022,0.0137,0.0044,-0.0044,-0.0085,-0.0049,0.0022,0.008,0.0118,0.0143,0.0157,0.0168,0.0173,0.0184,0.0198,0.0206,0.0192,0.0146,0.0077,0.0011,0,0,0,0,0,0,0,0.0099,0.0184,0.0137,0.0071,0.0022,-0.0003,-0.0011,-0.0016,-0.0027,-0.0033,-0.0033,0,0.0033,0.0082,0.0129,0.0146,0.014,0.0214,0.0286,0.0266,0.0225,0.0165,0.0132,0.0168,0.0217,0.0242,0.0264,0.0283,0.0299,0.0302,0.0286,0.0242,0.017,0.0107,0.0096,0.0099,0.0082,0.0071,0.0058,0,0,0,0,0,0,0.0069,0.0132,0.0118,0.0096,0.0074,0.0047,0.0016,-0.0016,-0.0041,-0.0104,-0.0115,-0.0074,0,0.0014,0.0027,0.0058,0.0082,0.0093,0.0187,0.0286,0.0297,0.0288,0.0291,0.0305,0.0283,0.025,0.0247,0.0258,0.0277,0.0305,0.0341,0.0368,0.0382,0.0357,0.0258,0.011,-0.0008,-0.0038,-0.0025,-0.0003,0,0,0,0,0,0,0.0019,0.0052,0.0071,0.0071,0.0058,0.0033,0.0003,-0.0036,-0.0044,-0.0036,0,0,0,-0.0005,-0.0022,-0.0011,0.0019,0.0038,0.0143,0.0261,0.0283,0.0291,0.0338,0.0313,0.0231,0.0206,0.0217,0.0236,0.0253,0.0275,0.0305,0.0346,0.0379,0.0407,0.0426,0.0396,0.0258,0.0085,-0.0008,-0.0003,0,0,0,0,0,0,0.0016,0.0038,0.0047,0.0052,0.0038,0.0003,-0.0041,-0.0049,-0.003,0.0008,0.0044,0,0,-0.0027,-0.0069,-0.0069,-0.0044,-0.0019,0.0077,0.0214,0.0247,0.0258,0.0316,0.0264,0.0157,0.0151,0.0184,0.0225,0.0253,0.0269,0.0283,0.0305,0.0335,0.0363,0.039,0.0407,0.0407,0.0354,0.0264,0.0192,0,0,0,0,0,0.0025,0.0055,0.0058,0.0049,0.0044,0.0033,0.0003,-0.0019,0,-0.003,-0.0038,-0.0016,0,0,-0.0044,-0.0102,-0.0107,-0.0088,-0.0071,0.0016,0.0148,0.0179,0.0217,0.0275,0.0319,0.0277,0.0184,0.017,0.0211,0.0272,0.0316,0.0324,0.0316,0.0313,0.0319,0.0332,0.036,0.0387,0.0401,0.0387,0.0357,0,-0.0049,-0.0025,0.0008,0,0.0003,0.0038,0.006,0.0047,0.0041,0.0041,0.0025,0.0014,-0.0041,-0.0074,-0.0038,-0.0033,0,-0.0091,-0.0143,-0.011,-0.0104,-0.0099,-0.0099,-0.0025,0.0096,0.0121,0.0154,0.0233,0.0305,0.0365,0.0379,0.0299,0.0253,0.0283,0.0363,0.0434,0.0428,0.0368,0.0319,0.0294,0.0299,0.0332,0.0382,0.0417,0.0437,0,0.0206,0,0.0027,0.0055,0,0.0038,0.008,0.0069,0.0058,0.0055,0.0033,-0.0014,-0.0099,-0.0157,-0.0159,-0.0159,0,-0.006,-0.0118,-0.0113,-0.0104,-0.0107,-0.0118,-0.0063,0.0052,0.0069,0.0099,0.0176,0.0225,0.0272,0.0365,0.0439,0.0412,0.0374,0.0396,0.0483,0.0574,0.053,0.0404,0.031,0.0269,0.0291,0.0368,0.0483,0.0588,0,0.0096,0.0173,0.0179,0.0228,0.0283,0.0294,0.0228,0.0146,0.0096,0.0071,0.0027,-0.0055,-0.0159,-0.0233,-0.0261,0,-0.0016,-0.0014,-0.0019,-0.0055,-0.0077,-0.0099,-0.0118,-0.0063,0.0008,-0.0008,0.0041,0.014,0.0233,0.0346,0.0437,0.053,0.0591,0.0563,0.0525,0.0538,0.064,0.0687,0.0549,0.0379,0.0294,0.0321,0.0459,0.0656,0.0832,-0.0063,0.0011,0.0146,0.0214,0.0258,0.0275,0.0255,0.022,0.0176,0.0135,0.0096,0.0036,-0.008,-0.0283,-0.0409,0,-0.008,-0.0115,-0.0014,0.0025,-0.0016,-0.0052,-0.0082,-0.0071,-0.0014,-0.0003,-0.0055,0.0063,0.0195,0.0371,0.0563,0.0706,0.0764,0.078,0.0769,0.0714,0.0662,0.0659,0.0695,0.064,0.0503,0.0459,0.053,0.0643,0.0739,0.0821,0.0069,0.0132,0.0209,0.0253,0.028,0.0283,0.0258,0.0225,0.0195,0.0173,0.0148,0.0129,0.0129,0.0137,0,-0.0069,-0.0173,-0.0176,-0.0055,0.0036,0.0011,-0.003,-0.0058,-0.0014,0.0071,0.0016,0.0074,0.0201,0.0412,0.064,0.0791,0.0849,0.0813,0.0731,0.0725,0.0788,0.081,0.0791,0.0761,0.0711,0.067,0.0629,0.0571,0.0497,0.0407,0.0398,0.0146,0.0206,0.025,0.0275,0.028,0.0269,0.0247,0.0228,0.0217,0.0214,0.022,0.0286,0.0415,0.0634,0.0634,0.0302,0.0005,-0.0118,-0.0047,0.0041,0.0036,0.0008,0.0014,0.0099,0.0126,0.0113,0.0236,0.045,0.0692,0.0862,0.0898,0.0797,0.0629,0.0508,0.0538,0.0659,0.0775,0.0799,0.0722,0.0626,0.0569,0.0442,0.0129,-0.0176,-0.025,-0.0179,0.0198,0.025,0.028,0.0291,0.0277,0.0255,0.0239,0.0239,0.0255,0.0247,0.0209,0.0396,0.0566,0.0544,0.0467,0.025,0.0074,0.0014,0.0041,0.008,0.008,0.0088,0.0143,0.0195,0.0173,0.0275,0.0519,0.0758,0.0912,0.0975,0.0873,0.0637,0.0409,0.0297,0.0264,0.0291,0.0393,0.0442,0.0412,0.0349,0.0214,-0.011,-0.0439,-0.0519,-0.0417,-0.0365,0.0165,0.0275,0.0302,0.0294,0.0269,0.0236,0.022,0.0272,0.0423,0.0305,0.0093,0,0.0082,0.0228,0.0275,0.0222,0.0181,0.0184,0.0233,0.0266,0.0294,0.0332,0.0368,0.0319,0.0371,0.0615,0.0873,0.1011,0.103,0.0923,0.0687,0.0445,0.0269,0.0052,-0.0168,-0.0148,-0.0016,0.0022,0.0003,-0.0063,-0.0255,-0.0486,-0.0382,-0.0137,-0.0008,0.0036,0.0148,0.0253,0.0305,0.0291,0.0261,0.0209,0.0074,-0.003,0,-0.0069,-0.0003,0.0052,0.0019,0.0113,0.0176,0.022,0.0294,0.0423,0.0525,0.0607,0.067,0.0698,0.0637,0.0648,0.0832,0.1052,0.1181,0.1162,0.0997,0.072,0.039,0.0214,0.0124,-0.0201,-0.0602,-0.0613,-0.0396,-0.0354,-0.0415,-0.0503,-0.0558,-0.0346,0.0124,0.0379,0.0338,0.0225,0.0168,0.0242,0.0308,0.0302,0.0283,0.0239,0.0209,0,-0.0036,-0.019,-0.0261,-0.0236,-0.0124,0.0025,0.011,0.0266,0.0497,0.0717,0.0871,0.095,0.1099,0.1206,0.1222,0.1263,0.1354,0.139,0.1288,0.1052,0.072,0.0365,0.0077,0.0033,0.0055,-0.019,-0.0599,-0.0758,-0.0681,-0.0681,-0.0744,-0.0747,-0.0648,-0.0242,0.0146,0.0115,-0.0011,-0.017]},{"header":{"parameterUnit":"m.s-1","parameterCategory":2,"la1":30.5641,"la2":29.4642,"lo1":-89.4342,"lo2":-87.9343,"dy":0.0333,"dx":0.0333,"nx":46,"ny":34,"refTime":"2025-11-10T00:00:00:Z","depth":"10","parameterNumber":3,"parameterNumberName":"V-component_of_CURRENTS"},"data":[0,0,0,0,0,0,0,0,0,0,0,0,0,0,0,0,0,0,0,0,0,0,0,0,0,0,0,0,0,0,0,0,0,0,0,0,0,0,0,0,0,0.0195,0.0297,0.0148,0.0148,0,0,0,0,0,0,0,0,0,0,0,0,0,0,0,0,0,0,0,0,0,0,0,0,0,0,0,0,0,0,0,0,0,0,0,0,0,0,0,0,0,0,0.022,0.0165,0.0025,0.0082,0,0,0,0,0,0,0,0,0,0,0,0,0,0,0,0,0,0,0,0,0,0,0,0,0,0,0,0,0,0,0,0,0,0,0,0,0,0,0,0,0,0,0.0244,0.0047,-0.0113,0.0049,0,0,0,0,0,0,0,0,0,0,0,0,0,0,0,0,0,0,0,0,0,0,0,0,0,0,0,0,0,0,0,0,0,0,0,0,0,0,0,0,0,0,0.0159,-0.006,-0.0159,0.0074,0,0,0,0,0,0,0,0,0,0,0,0,0,0,0,0,0,0,0,0,0,0,0,0,0,0,0,0,0,0,0,0,0,0,0,0,0,0,0,0,0,0.014,0.0008,-0.0113,-0.0121,0.0151,0,0,0,0,0,0,0,0,0,0,0,0,0,0,0,0,0,0,0,0,0,0,0,0,0,0,0,0,0,0,0,0,0,0,0,0,0,0,0,0,0,-0.0058,-0.0135,-0.0184,-0.0099,0.011,0,0,0,0,0,0,0,0,0,0,0,0,0.0113,0.0102,0.0071,0.0038,0.0008,-0.003,-0.0071,-0.014,-0.0357,0,0,0,0,0,0,0,0,0,0,0,0,-0.0014,-0.0022,-0.0154,0,0,0,0,0,-0.0165,-0.0217,-0.0179,-0.011,0.003,0,0,0,0,0,0,0,0,0,-0.0027,0.0044,0.0096,0.0135,0.0124,0.0082,0.0049,0.0036,0.0027,0.0033,-0.0011,-0.0135,0.0093,0.0091,-0.0025,0.022,0.0286,0.0264,0,0,0,0,-0.0022,0.0055,0.0055,-0.0003,-0.0047,0,0,0,0,0,0.0008,-0.0179,-0.0107,-0.0135,0.0022,0,0,0,0,-0.0341,-0.0222,-0.0129,-0.0121,-0.0096,-0.0022,0.0093,0.0115,0.0162,0.0179,0.0102,0.0066,0.0063,0.0036,0.0014,0.0041,0.0066,0.0113,0.0082,-0.0005,0.0157,0.0157,0.0214,0.0486,0.0505,0.0426,0.0376,0.0102,0.0093,0.0165,0.0096,0.0168,0.0272,0.006,-0.0294,0.0,0.0,0.0074,-0.0258,-0.0209,-0.0222,-0.0107,0,0,0,-0.0288,-0.0335,-0.0231,-0.0121,-0.0107,-0.0088,-0.0091,0.0071,0.0066,0.0082,0.0118,0.0126,0.0066,0.017,-0.0005,-0.0269,-0.0198,-0.0179,0.0066,0.0036,0.0005,0.0047,0.0014,0.0082,0.0244,0.0533,0.0376,0.0239,0.0184,0.0162,0.019,0.0121,0.0137,0.0135,0.0025,-0.0195,0,0,0,-0.0308,-0.0428,-0.0157,-0.0118,0,0,-0.0275,-0.031,-0.0335,-0.0198,-0.0091,-0.0052,0.0022,0.0038,0,0,0,0.0027,0.011,0.003,0.0137,0,-0.0401,-0.0428,-0.058,0,0,0,0,0,0,0,0.0126,0.0165,0.0049,0.0071,0.0209,0.0129,-0.0049,0,0,0.0088,0.0003,0.0033,-0.0176,-0.0352,-0.0115,-0.0415,0,0,0,-0.011,-0.0294,-0.0346,-0.0286,-0.011,-0.0027,-0.0038,0.003,0.003,-0.014,0.0126,0.0239,0.0137,0.0038,0,0,0.0176,-0.0264,-0.0437,-0.0593,-0.0044,0.0025,-0.0044,-0.0104,-0.0146,-0.022,-0.0168,-0.0423,0,0,0,0.0192,0.0085,0.0033,0.0467,0.0244,0.0148,0.0124,0.0063,-0.008,-0.0162,0,0.0027,0.0431,0.042,0.0352,-0.0055,-0.0376,-0.0357,-0.0231,-0.0118,-0.0148,-0.003,-0.0033,-0.0093,-0.0027,0.0151,0.0195,0.0143,-0.008,-0.0058,-0.0022,0.0091,-0.0154,-0.0327,-0.0338,-0.0096,-0.0058,-0.0126,-0.0173,-0.0217,-0.0272,-0.0258,-0.0456,-0.0005,0.0168,0.0099,-0.008,-0.0107,0.0041,0.0294,0.0047,-0.0272,-0.0239,-0.0162,-0.0066,0.0093,0.0201,0.033,0.0445,0.042,0.0349,0,-0.0376,-0.0258,-0.0157,-0.0209,-0.0154,0,0,-0.0074,0.0055,0.0118,0.0121,0.006,-0.0102,-0.0066,-0.0041,-0.0027,-0.0154,-0.0277,-0.0299,-0.022,-0.0201,-0.0239,-0.0277,-0.0316,-0.0343,-0.0354,-0.0343,-0.011,-0.0027,-0.0126,-0.0415,-0.0459,-0.0343,-0.0231,-0.0239,-0.0371,-0.0472,-0.0415,-0.0319,-0.0091,-0.0033,0.0016,0.0151,0.0143,0.0091,-0.019,-0.0269,-0.0085,-0.0044,-0.0121,0,0,0,-0.0107,0.0011,0.0044,0.0077,0.0066,-0.0049,-0.0052,-0.0022,0.0,-0.0137,-0.0308,-0.0371,-0.0343,-0.0308,-0.0308,-0.033,-0.0352,-0.0357,-0.0341,-0.0302,-0.0253,-0.0266,-0.031,-0.0365,-0.0371,-0.0379,-0.0379,-0.0379,-0.0382,-0.0423,-0.0428,-0.0417,-0.0357,-0.0321,-0.0288,-0.0192,-0.0118,-0.008,-0.0093,-0.0113,0.011,0,0,0,0,0,-0.0025,0.0011,0.0047,0.0038,-0.0014,-0.0074,-0.0019,0.0066,0.0236,-0.0063,-0.0439,-0.045,-0.0437,-0.0382,-0.0352,-0.0346,-0.0346,-0.0338,-0.0316,-0.0297,-0.0294,-0.0308,-0.0335,-0.0365,-0.0393,-0.0448,-0.0483,-0.05,-0.047,-0.0448,-0.0417,-0.0401,-0.0374,-0.0374,-0.0387,-0.0346,-0.0269,-0.0231,0,0,-0.0099,-0.0135,0.0148,0.0354,0,0,-0.003,0.0047,0.0052,-0.0019,-0.0107,-0.0102,-0.0003,0.0063,0.0261,0,-0.0269,-0.0547,-0.0497,-0.0426,-0.0376,-0.0357,-0.0341,-0.033,-0.0352,-0.0365,-0.0385,-0.0382,-0.0417,-0.047,-0.0508,-0.0541,-0.0558,-0.0569,-0.0549,-0.0489,-0.0437,-0.0415,-0.0404,-0.0401,-0.0409,-0.0431,-0.042,-0.0393,0,0,-0.0209,-0.0179,-0.0038,0.0176,0.0,0.0,-0.0033,0.0093,0.0041,-0.0055,-0.0102,-0.0052,0.0016,0.003,0.0,-0.0063,0,-0.0519,-0.0472,-0.0431,-0.039,-0.0368,-0.0349,-0.0404,-0.0481,-0.0522,-0.053,-0.0492,-0.05,-0.0511,-0.0511,-0.0511,-0.0514,-0.0522,-0.0536,-0.0522,-0.0492,-0.0478,-0.0483,-0.0486,-0.0483,-0.0467,-0.0442,-0.0407,0,0,0,-0.0113,-0.0113,0,0,0,0.0088,0.0154,0.0107,0.0041,0.0008,0.0027,0.0041,0.0049,-0.0049,-0.0066,0,-0.0396,-0.0398,-0.0417,-0.0404,-0.0379,-0.0379,-0.0514,-0.0602,-0.0623,-0.0615,-0.0538,-0.0483,-0.0398,-0.0363,-0.036,-0.0376,-0.0415,-0.0461,-0.0497,-0.0519,-0.0533,-0.0544,-0.0582,-0.0607,-0.0602,-0.0558,-0.0475,0,0,0,0,0,0,0,0.011,0.0135,0.0151,0.0143,0.011,0.0066,0.0038,0.0011,0.0005,-0.003,-0.0077,0,-0.0321,-0.0349,-0.0407,-0.0412,-0.0385,-0.039,-0.0538,-0.0643,-0.0681,-0.067,-0.0547,-0.0338,-0.0198,-0.0176,-0.0195,-0.0231,-0.0286,-0.0352,-0.0415,-0.0472,-0.0533,-0.0569,-0.0602,-0.0656,-0.072,-0.0728,-0.0634,0,0,0,0,0,0,0.0041,0.0074,0.0082,0.008,0.0077,0.0058,0.0022,0.0,-0.0063,-0.0132,-0.0033,-0.0044,0,-0.0286,-0.033,-0.0401,-0.0417,-0.0382,-0.0352,-0.0497,-0.064,-0.0706,-0.0695,-0.0461,-0.0143,-0.0074,-0.0099,-0.0129,-0.0165,-0.0211,-0.0269,-0.033,-0.0387,-0.0453,-0.0525,-0.0591,-0.0659,-0.0739,-0.0799,-0.0766,0,0,0,0,0,0,0.003,0.0044,0.0038,0.0025,0.0014,-0.0005,-0.0041,-0.0052,-0.0135,-0.0244,0,0,0,-0.0291,-0.0332,-0.0398,-0.0412,-0.0374,-0.0305,-0.0437,-0.0604,-0.0684,-0.0676,-0.0335,-0.0063,-0.0055,-0.0074,-0.0099,-0.0132,-0.017,-0.0225,-0.0288,-0.0343,-0.039,-0.045,-0.0552,-0.0656,-0.075,-0.0802,-0.0791,0,0,0,0,0,0,0.0022,0.0044,0.0014,-0.0022,-0.0049,-0.008,-0.0129,-0.0038,-0.0192,-0.0255,-0.0135,0,0,-0.033,-0.0354,-0.0398,-0.0407,-0.0368,-0.0272,-0.039,-0.056,-0.0648,-0.0604,-0.028,-0.0055,-0.0025,-0.0033,-0.0058,-0.0093,-0.0135,-0.0192,-0.0258,-0.0324,-0.0379,-0.0431,-0.0511,-0.0615,-0.0714,-0.0755,-0.0728,0,0,0,0,0,-0.0036,0.0033,0.0019,-0.0022,-0.0074,-0.0118,-0.0159,-0.0211,0,-0.0269,-0.0225,-0.0151,0,0,-0.0404,-0.0387,-0.0401,-0.0401,-0.0371,-0.0269,-0.0379,-0.0538,-0.0593,-0.0527,-0.0308,-0.0102,-0.0011,0.0014,0.0003,-0.003,-0.0082,-0.0157,-0.0231,-0.0308,-0.0385,-0.0445,-0.0508,-0.0591,-0.0662,-0.0684,-0.0651,0,-0.0192,0.0,-0.0107,0,-0.0016,0.003,-0.0016,-0.0069,-0.0126,-0.0181,-0.0228,-0.0261,-0.0214,-0.0299,-0.0222,-0.017,0,-0.022,-0.0401,-0.0404,-0.0409,-0.0407,-0.0393,-0.0299,-0.0409,-0.0533,-0.0555,-0.05,-0.0371,-0.0231,-0.0132,-0.0011,0.0044,0.0027,-0.0016,-0.0107,-0.0217,-0.031,-0.0398,-0.0475,-0.0514,-0.0555,-0.0607,-0.0621,-0.0585,0,-0.0321,0,-0.011,-0.0121,0,0.0005,-0.0036,-0.011,-0.0181,-0.0247,-0.0302,-0.033,-0.0297,-0.0324,-0.0269,-0.0085,0,-0.0283,-0.0357,-0.0404,-0.042,-0.0426,-0.0428,-0.0357,-0.0483,-0.0574,-0.0582,-0.053,-0.0417,-0.0302,-0.0222,-0.0129,-0.0005,0.0049,0.0019,-0.0049,-0.0203,-0.0357,-0.0456,-0.0519,-0.053,-0.0514,-0.0508,-0.0514,-0.0492,0,-0.0374,-0.014,-0.011,-0.0115,-0.0069,-0.0066,-0.0093,-0.0162,-0.0244,-0.0324,-0.0398,-0.0453,-0.0472,-0.0415,-0.0148,0,-0.0201,-0.0316,-0.0374,-0.0412,-0.0437,-0.0456,-0.047,-0.0448,-0.0585,-0.0659,-0.0621,-0.0538,-0.0396,-0.0244,-0.0124,-0.0129,-0.011,-0.0011,0.0011,-0.0036,-0.0184,-0.0423,-0.0566,-0.0596,-0.0544,-0.045,-0.0393,-0.0401,-0.0407,-0.0135,-0.0231,-0.0121,-0.0102,-0.0113,-0.0093,-0.0126,-0.0165,-0.0228,-0.0313,-0.0407,-0.0505,-0.0621,-0.0736,-0.0236,0,-0.0206,-0.0206,-0.0308,-0.0409,-0.0442,-0.0467,-0.0497,-0.0511,-0.0533,-0.0678,-0.0651,-0.0558,-0.0464,-0.0253,-0.003,0.0074,0.0019,-0.0102,-0.0088,-0.0019,-0.0074,-0.0211,-0.0492,-0.067,-0.0681,-0.0511,-0.0297,-0.0225,-0.0283,-0.0332,-0.0151,-0.0124,-0.0088,-0.0099,-0.0121,-0.0132,-0.0151,-0.0198,-0.028,-0.0371,-0.0464,-0.0574,-0.0744,-0.0975,0,-0.0066,-0.0165,-0.0187,-0.0332,-0.0437,-0.0472,-0.0497,-0.0525,-0.0483,-0.056,-0.067,-0.0547,-0.045,-0.0277,0.0052,0.0264,0.0247,0.0074,-0.0077,-0.006,0.0008,-0.0107,-0.0332,-0.0623,-0.0775,-0.0709,-0.042,-0.0192,-0.028,-0.0376,-0.0354,-0.0151,-0.0088,-0.0085,-0.011,-0.014,-0.0162,-0.0184,-0.0228,-0.0319,-0.0393,-0.0472,-0.0538,-0.0733,-0.0868,-0.0247,-0.0096,-0.0093,-0.0151,-0.0324,-0.0431,-0.0481,-0.0505,-0.0475,-0.0398,-0.0599,-0.0602,-0.0467,-0.0283,0.0066,0.0354,0.0409,0.025,-0.0044,-0.0107,0.0121,0.019,-0.0069,-0.0467,-0.0802,-0.089,-0.0714,-0.0464,-0.0588,-0.0739,-0.0585,-0.036,-0.0162,-0.0113,-0.0113,-0.0137,-0.017,-0.0198,-0.0206,-0.0225,-0.0324,-0.0412,-0.0472,-0.0244,-0.0709,-0.0602,-0.0253,-0.0118,-0.0066,-0.0135,-0.0272,-0.0379,-0.0445,-0.0459,-0.0387,-0.0461,-0.0626,-0.05,-0.0283,0.0066,0.0398,0.045,0.0335,0.0025,-0.0313,-0.0055,0.0442,0.0428,-0.0036,-0.0574,-0.0917,-0.0928,-0.0819,-0.0898,-0.1222,-0.1035,-0.0492,-0.025,-0.0236,-0.0168,-0.0159,-0.0181,-0.0217,-0.0242,-0.022,-0.0121,-0.0157,-0.0593,-0.0602,0,-0.0577,-0.0376,-0.0181,-0.0025,0.0036,-0.0008,-0.014,-0.0275,-0.0371,-0.0417,-0.0503,-0.0621,-0.0519,-0.0233,0.0107,0.0426,0.0514,0.0349,0.008,-0.0393,-0.0558,0.0049,0.0665,0.0522,-0.0027,-0.058,-0.0887,-0.0931,-0.1123,-0.136,-0.1371,-0.07,-0.017,-0.011,-0.0294,-0.025,-0.0217,-0.0222,-0.0255,-0.0299,-0.0343,-0.0016,0,-0.0665,-0.0582,0.0082,-0.0096,-0.0011,0.0115,0.0253,0.0316,0.0233,0.0052,-0.0151,-0.036,-0.0555,-0.0643,-0.0508,-0.0192,0.0168,0.047,0.0569,0.0431,0.0115,-0.025,-0.0755,-0.0634,0.0036,0.0651,0.0439,-0.0088,-0.0547,-0.0862,-0.109,-0.1291,-0.1415,-0.0992,-0.0222,-0.003,-0.0129,-0.0286,-0.028,-0.0222,-0.0225,-0.0266,-0.0357,-0.0552,0,-0.0346,-0.0291,-0.0052,0.0286,0.033,0.0341,0.0448,0.056,0.0588,0.0396,0.0003,-0.039,-0.0593,-0.0596,-0.0459,-0.0165,0.0192,0.0472,0.0596,0.0497,0.022,-0.0151,-0.0522,-0.0819,-0.0582,-0.0091,0.0489,0.0349,-0.0231,-0.0659,-0.0972,-0.1151,-0.1231,-0.1096,-0.0428,-0.0082,-0.0044,-0.006]}],[{"header":{"parameterUnit":"m.s-1","parameterCategory":2,"la1":30.5641,"la2":29.4642,"lo1":-89.4342,"lo2":-87.9343,"dy":0.0333,"dx":0.0333,"nx":46,"ny":34,"refTime":"2025-11-10T00:00:00:Z","depth":"12","parameterNumber":2,"parameterNumberName":"U-component_of_CURRENTS"},"data":[0,0,0,0,0,0,0,0,0,0,0,0,0,0,0,0,0,0,0,0,0,0,0,0,0,0,0,0,0,0,0,0,0,0,0,0,0,0,0,0,0,0,0,0,0,0,0,0,0,0,0,0,0,0,0,0,0,0,0,0,0,0,0,0,0,0,0,0,0,0,0,0,0,0,0,0,0,0,0,0,0,0,0,0,0,0,0,0,0,0,0,0,0,0,0,0,0,0,0,0,0,0,0,0,0,0,0,0,0,0,0,0,0,0,0,0,0,0,0,0,0,0,0,0,0,0,0,0,0,0,0,0,0,0,0,0,0,0,0,0,0,0,0,0,0,0,0,0,0,0,0,0,0,0,0,0,0,0,0,0,0,0,0,0,0,0,0,0,0,0,0,0,0,0,0,0,0,0,0,0,0,0,0,0,0,0,0,0,0,0,0,0,0,0,0,0,0,0,0,0,0,0,0,0,0,0,0,0,0,0,0,0,0,0,0,0,0,0,0,0,0,0,0,0,0,0,0,0,0,0,0,0,0,0,0,0,0,0,0,0,0,0,0,0,0,0,0,0,0,0,0,0,0,0,0,0,0,0,0,0,0,0,0,0,0,0,0,0,0,0,0,0,0,0,0,0,0,0,0,0,0,0,0,0,0,0,0,0,0,0,0,0,0,0,0,0,0,0,0,0,0,0,0,0,0,0,0,0,0,0,0,0,0,0,0,0,0,0,0,0,0,0,0,0,0,0,0,0,0,0,0,0,0,0,0,0,0,0,0,0,0,0,0,0,0,0,0,0,0,0,0,0,0,0,0,0,0,0,0,0,0,0,0,0,0,0,0,0,0,0,0,0,0,0,0,0,0,0,0,0,0,0,0,0,0,0,0,0,0,0,0,0,0,0,0,0,0,0,0,0,0,0,0,0,0,0,0,0,0,0,0,0,0,0,0,0,0,0,0,0,0,0,0,0,0,0,0,0,0,0,0,0,0,0,0,0,0,0,0,0,0,0,0,0,0,0,0,0,0,0,0,0,0,0,0,0,0,0,0,0,0,0,0,0,0,0,0,0,0,0,0,0,0,0,0,0,0,0,0,0,0,0,0,0,0,0,0,0,0,0,0,0,0,0,0,0,0,0,0,0,0,0,0,0,0,0,0,0,0,0,0,0,0,0,0,0,0,0,0,0,0,0,0,0,0,0,0,0.0428,0.0426,0.0442,0.0393,0,0,0,0,0,0,0,0,0,-0.0115,0.0069,0,0,0,0,0,0,0,0,0,0,0,0,0,0,0,0,0,0,0,0,0,0,0,0,0,0,0,0,0,0,0.056,0.0448,0.0423,0.0417,0.0385,0.0341,0.0313,0,0.0385,0.0143,0.0027,0.0201,0.0385,0.0428,0.0302,0.0187,0.0269,0.0401,0.0417,0.0423,0,0.0302,0,0.0203,0.0132,0.0077,0,0,0,0,0,0,0,0,0,0,0,0,0,0,0,0,0,0,0,0.0626,0.0547,0.0478,0.0437,0.042,0.0407,0.0396,0.0409,0.0442,0.042,0.0332,0.0242,0.0225,0.0297,0.0324,0.0291,0.0261,0.0255,0.0272,0.0258,0.028,0.033,0.0407,0.0461,0.0332,0.019,0.0151,0,0,0,0,0,0,0,0,0,0,0,0,0,0,0,0,0,0,0,0.0607,0.0533,0.0483,0.0445,0.0423,0.0417,0.0423,0.0434,0.0437,0.0404,0.0349,0.0305,0.0294,0.0316,0.0335,0.0332,0.0299,0.0255,0.0253,0.0261,0.025,0.0217,0.0203,0.0277,0.0316,0.0239,0.0162,0,0,0,0,0,0,0,0,0,0,0,0,0,0,0,0,0,0,0,0,0.0478,0.0448,0.042,0.0401,0.039,0.0382,0.0379,0.0379,0.0376,0.0379,0.0393,0.0417,0.0439,0.0442,0.0423,0.0376,0.0308,0.0255,0.0236,0.0225,0.0206,0.0176,0.0159,0.0146,0.011,0.0055,0,0,0,0,0,0,0,0,0,0,0,0,0,0,0,0,0,0,0,0,0.0382,0.0379,0.0371,0.0352,0.0327,0.0316,0.0316,0.0319,0.0321,0.033,0.0346,0.0338,0.0299,0.0266,0.0255,0.0264,0.0277,0.028,0.0269,0.0242,0.0198,0.0137,0.0077,0.0033,-0.0003,-0.0033,0,0,0,0,0,0,0,0,0,0,0,0,0,0,0,0,0,0,0,0,0.0222,0.0288,0.0302,0.028,0.0264,0.0266,0.0239,0.0168,0.0088,0.0019,-0.0008,-0.0014,-0.0003,0.0022,0.0071,0.0135,0.0201,0.0253,0.0275,0.0266,0.0233,0.0179,0.0104,0.0036,-0.0016,-0.0055,0,0,0,0,0,0,0,0,0,0,0,0,0,0,0,0,0,0,0,0,0,0.0201,0.0217,0.0195,0.0209,0.0231,0.019,0.0118,0.003,-0.0058,-0.0093,-0.0052,0.0027,0.0091,0.0132,0.0162,0.0181,0.0198,0.0209,0.0217,0.0231,0.0236,0.0211,0.0157,0.0085,0.0019,0,0,0,0,0,0,0,0,0,0,0,0,0,0,0,0,0,0,0,0,0,0.0124,0.0146,0.0137,0.0162,0.0236,0.0236,0.0201,0.014,0.0115,0.0159,0.0214,0.0242,0.0264,0.0286,0.0302,0.0308,0.0297,0.0258,0.0198,0.0143,0.0132,0.0129,0.0113,0.0099,0.008,0,0,0,0,0,0,0,0,0,0,0,0,0,0,0,0,0,0,0,0,0,0.0055,0.0082,0.0088,0.014,0.0239,0.0266,0.0253,0.025,0.028,0.0275,0.0244,0.0247,0.0258,0.0277,0.0308,0.0341,0.0371,0.0385,0.0363,0.0269,0.0129,0.0027,0.0005,0.0016,0.003,0,0,0,0,0,0,0,0,0,0,0,0,0,0,0,0,0,0,0,0,0,-0.0011,0.0019,0.0033,0.0071,0.0198,0.025,0.0247,0.0288,0.0291,0.0222,0.0203,0.0214,0.0236,0.0253,0.0277,0.031,0.0349,0.0382,0.0404,0.0423,0.0396,0.0266,0.0115,0.0036,0.0036,0,0,0,0,0,0,0,0,0,0,0,0,0,0,0,0,0,0,0,0,0,-0.0071,-0.0044,-0.0025,0.0016,0.0137,0.0206,0.0211,0.0272,0.0244,0.0148,0.0146,0.0179,0.022,0.025,0.0269,0.0286,0.031,0.0341,0.0365,0.0387,0.0401,0.0401,0.0357,0.0275,0.0209,0,0,0,0,0,0,0,0,0,0,0,0,0,0,0,0,0,0,0,0,0,-0.0107,-0.0085,-0.0074,-0.0069,0.0052,0.0132,0.0179,0.0247,0.0302,0.0269,0.0179,0.0165,0.0206,0.0264,0.031,0.0321,0.0319,0.0321,0.0327,0.0338,0.0354,0.0379,0.039,0.0385,0.036,0,0,0,0,0,0,0,0,0,0,0,0,0,0,0,0,0,0,0,0,-0.0107,-0.0104,-0.0096,-0.0104,-0.0096,-0.0011,0.006,0.011,0.0203,0.0288,0.0354,0.0368,0.0294,0.0247,0.028,0.0354,0.0426,0.0423,0.0368,0.0327,0.0305,0.0305,0.033,0.0371,0.0409,0.0431,0,0,0,0,0,0,0,0,0,0,0,0,0,0,0,0,0,0,0,0,-0.011,-0.0102,-0.0104,-0.0129,-0.0154,-0.0099,-0.0049,0.0005,0.0099,0.0184,0.0255,0.0354,0.0434,0.0409,0.0374,0.0396,0.0478,0.0563,0.0522,0.0407,0.0321,0.028,0.0297,0.0368,0.0481,0.0585,0,0,0,0,0,0,0,0,0,0,0,0,0,0,0,0,0,0,0,0,-0.0055,-0.0077,-0.0096,-0.0135,-0.0198,-0.0198,-0.0192,-0.0126,0.0014,0.0184,0.0332,0.0428,0.0525,0.0588,0.0563,0.053,0.0541,0.0634,0.0676,0.0541,0.0387,0.0308,0.0335,0.0467,0.0662,0.0835,0,0,0,0,0,0,0,0,0,0,0,0,0,0,0,0,0,0,0,0.0022,-0.0016,-0.0052,-0.0082,-0.0115,-0.0148,-0.0165,-0.0198,-0.0066,0.0104,0.0341,0.0558,0.0703,0.0764,0.0777,0.0769,0.072,0.0667,0.0659,0.0684,0.0626,0.0503,0.0467,0.0544,0.0656,0.0747,0.0829,0,0,0,0,0,0,0,0,0,0,0,0,0,0,0,0,0,0,0,0.0027,0.0008,-0.003,-0.0058,-0.0104,-0.0011,-0.0049,-0.0058,0.014,0.0363,0.0623,0.0788,0.0849,0.0813,0.0731,0.0731,0.0797,0.0819,0.0791,0.0753,0.07,0.0667,0.064,0.0585,0.0505,0.0412,0.0407,0,0,0,0,0,0,0,0,0,0,0,0,0,0,0,0,0,0,-0.0052,0.003,0.003,0.0005,-0.0025,0.0022,0.0129,0.0047,0.019,0.0404,0.067,0.086,0.0898,0.0797,0.0626,0.0511,0.0549,0.0673,0.0786,0.0805,0.0717,0.0623,0.0566,0.0461,0.0151,-0.0168,-0.0233,-0.0146,0,0,0,0,0,0,0,0,0,0,0,0,0,0,0,0,0,0.0008,0.0025,0.006,0.006,0.0055,0.0077,0.019,0.0129,0.0228,0.0481,0.0742,0.0909,0.0975,0.0873,0.0634,0.0401,0.0299,0.0294,0.0327,0.0409,0.0442,0.0407,0.0349,0.0217,-0.0093,-0.0415,-0.0481,-0.0376,-0.0321,0,0,0,0,0,0,0,0,0,0,0,0,0,0,0,0,0.0165,0.0148,0.0159,0.0179,0.0214,0.0272,0.0363,0.0308,0.0335,0.0585,0.086,0.1005,0.1027,0.0923,0.0684,0.0434,0.0255,0.0066,-0.0107,-0.0096,-0.0003,0.0022,0.0,-0.006,-0.0258,-0.0483,-0.0382,-0.0129,0.0014,0.0055,0,0,0,0,0,0,0,0,0,0,0,0,0,0,0,0,0.019,0.0231,0.0321,0.045,0.0574,0.0654,0.0634,0.0637,0.0819,0.1044,0.1178,0.1159,0.0997,0.072,0.0385,0.0198,0.011,-0.0179,-0.0527,-0.0538,-0.0374,-0.0354,-0.0417,-0.0497,-0.0527,-0.0341,0.0099,0.0376,0.0343,0.0231,0,0,0,0,0,0,0,0,0,0,0,0,0,0,0,0.0151,0.0233,0.0407,0.0676,0.084,0.0906,0.1088,0.1189,0.1255,0.1351,0.1387,0.1288,0.1052,0.072,0.036,0.0066,0.0014,0.0047,-0.0173,-0.0536,-0.0659,-0.0623,-0.0678,-0.0744,-0.0711,-0.058,-0.022,0.0137,0.0118,-0.0008,-0.017]},{"header":{"parameterUnit":"m.s-1","parameterCategory":2,"la1":30.5641,"la2":29.4642,"lo1":-89.4342,"lo2":-87.9343,"dy":0.0333,"dx":0.0333,"nx":46,"ny":34,"refTime":"2025-11-10T00:00:00:Z","depth":"12","parameterNumber":3,"parameterNumberName":"V-component_of_CURRENTS"},"data":[0,0,0,0,0,0,0,0,0,0,0,0,0,0,0,0,0,0,0,0,0,0,0,0,0,0,0,0,0,0,0,0,0,0,0,0,0,0,0,0,0,0,0,0,0,0,0,0,0,0,0,0,0,0,0,0,0,0,0,0,0,0,0,0,0,0,0,0,0,0,0,0,0,0,0,0,0,0,0,0,0,0,0,0,0,0,0,0,0,0,0,0,0,0,0,0,0,0,0,0,0,0,0,0,0,0,0,0,0,0,0,0,0,0,0,0,0,0,0,0,0,0,0,0,0,0,0,0,0,0,0,0,0,0,0,0,0,0,0,0,0,0,0,0,0,0,0,0,0,0,0,0,0,0,0,0,0,0,0,0,0,0,0,0,0,0,0,0,0,0,0,0,0,0,0,0,0,0,0,0,0,0,0,0,0,0,0,0,0,0,0,0,0,0,0,0,0,0,0,0,0,0,0,0,0,0,0,0,0,0,0,0,0,0,0,0,0,0,0,0,0,0,0,0,0,0,0,0,0,0,0,0,0,0,0,0,0,0,0,0,0,0,0,0,0,0,0,0,0,0,0,0,0,0,0,0,0,0,0,0,0,0,0,0,0,0,0,0,0,0,0,0,0,0,0,0,0,0,0,0,0,0,0,0,0,0,0,0,0,0,0,0,0,0,0,0,0,0,0,0,0,0,0,0,0,0,0,0,0,0,0,0,0,0,0,0,0,0,0,0,0,0,0,0,0,0,0,0,0,0,0,0,0,0,0,0,0,0,0,0,0,0,0,0,0,0,0,0,0,0,0,0,0,0,0,0,0,0,0,0,0,0,0,0,0,0,0,0,0,0,0,0,0,0,0,0,0,0,0,0,0,0,0,0,0,0,0,0,0,0,0,0,0,0,0,0,0,0,0,0,0,0,0,0,0,0,0,0,0,0,0,0,0,0,0,0,0,0,0,0,0,0,0,0,0,0,0,0,0,0,0,0,0,0,0,0,0,0,0,0,0,0,0,0,0,0,0,0,0,0,0,0,0,0,0,0,0,0,0,0,0,0,0,0,0,0,0,0,0,0,0,0,0,0,0,0,0,0,0,0,0,0,0,0,0,0,0,0,0,0,0,0,0,0,0,0,0,0,0,0,0,0,0,0,0,0,0,0,0,0,0,0,0,0,0,0,0,0,0,0,0,0,0,0,0,0,0,0.003,-0.003,-0.0091,-0.0135,0,0,0,0,0,0,0,0,0,0.0426,0.0244,0,0,0,0,0,0,0,0,0,0,0,0,0,0,0,0,0,0,0,0,0,0,0,0,0,0,0,0,0,0,-0.008,-0.0033,-0.0093,-0.0151,-0.0195,-0.0258,-0.0247,0,0.0005,0.0173,0.0118,-0.0027,-0.0055,0.0107,0.0269,0.0107,-0.0066,-0.0052,-0.0049,-0.0036,0,0.0195,0,0.0396,0.0409,0.0343,0,0,0,0,0,0,0,0,0,0,0,0,0,0,0,0,0,0,0,-0.0275,-0.0187,-0.017,-0.0214,-0.0261,-0.0302,-0.0332,-0.0335,-0.0316,-0.0093,-0.0014,-0.0077,-0.0305,-0.0305,-0.019,-0.0107,-0.0148,-0.028,-0.0305,-0.0239,-0.0173,-0.0019,0.0063,0.0165,0.0272,0.0233,0.0195,0,0,0,0,0,0,0,0,0,0,0,0,0,0,0,0,0,0,0,-0.0343,-0.031,-0.0288,-0.0294,-0.0321,-0.0346,-0.0352,-0.0335,-0.0294,-0.0239,-0.025,-0.0297,-0.0354,-0.0332,-0.0286,-0.0272,-0.0294,-0.033,-0.0332,-0.0319,-0.0324,-0.0286,-0.0209,-0.0115,-0.0027,0.0003,0.0036,0,0,0,0,0,0,0,0,0,0,0,0,0,0,0,0,0,0,0,0,-0.0398,-0.0363,-0.0343,-0.0343,-0.0346,-0.0338,-0.0313,-0.0288,-0.028,-0.0286,-0.0294,-0.0294,-0.0305,-0.0313,-0.0324,-0.0363,-0.0382,-0.0382,-0.0387,-0.0385,-0.036,-0.0321,-0.031,-0.0247,-0.0187,-0.0146,0,0,0,0,0,0,0,0,0,0,0,0,0,0,0,0,0,0,0,0,-0.0461,-0.0407,-0.0371,-0.0354,-0.0338,-0.0324,-0.0327,-0.0327,-0.0343,-0.0327,-0.0341,-0.0379,-0.0417,-0.0437,-0.0453,-0.0467,-0.0467,-0.0434,-0.0398,-0.0385,-0.0376,-0.0374,-0.0396,-0.0401,-0.0387,-0.0365,0,0,0,0,0,0,0,0,0,0,0,0,0,0,0,0,0,0,0,0,-0.0456,-0.0417,-0.0387,-0.0365,-0.0343,-0.0382,-0.0434,-0.047,-0.0492,-0.0445,-0.0426,-0.0434,-0.0445,-0.0453,-0.0459,-0.047,-0.0483,-0.0475,-0.0453,-0.0445,-0.0448,-0.0459,-0.0464,-0.0453,-0.0434,-0.0401,0,0,0,0,0,0,0,0,0,0,0,0,0,0,0,0,0,0,0,0,0,-0.0407,-0.0398,-0.0376,-0.0371,-0.047,-0.0558,-0.0588,-0.0596,-0.0516,-0.0453,-0.0365,-0.0335,-0.0338,-0.0357,-0.0393,-0.0439,-0.0472,-0.0492,-0.0503,-0.0516,-0.0552,-0.0588,-0.0588,-0.0544,-0.0461,0,0,0,0,0,0,0,0,0,0,0,0,0,0,0,0,0,0,0,0,0,-0.0396,-0.0407,-0.0382,-0.0376,-0.0486,-0.0613,-0.0659,-0.0656,-0.0536,-0.0332,-0.0192,-0.0173,-0.019,-0.0228,-0.028,-0.0346,-0.0407,-0.0459,-0.0516,-0.0547,-0.058,-0.0643,-0.0709,-0.0711,-0.0618,0,0,0,0,0,0,0,0,0,0,0,0,0,0,0,0,0,0,0,0,0,-0.039,-0.0412,-0.0379,-0.0346,-0.0448,-0.0615,-0.0684,-0.067,-0.0459,-0.0143,-0.0077,-0.0102,-0.0129,-0.0165,-0.0211,-0.0269,-0.033,-0.0387,-0.045,-0.0516,-0.058,-0.0645,-0.0722,-0.078,-0.0744,0,0,0,0,0,0,0,0,0,0,0,0,0,0,0,0,0,0,0,0,0,-0.0385,-0.0407,-0.0371,-0.0305,-0.039,-0.0585,-0.0667,-0.0643,-0.0338,-0.0069,-0.006,-0.008,-0.0104,-0.0135,-0.017,-0.0225,-0.0288,-0.0346,-0.0393,-0.0456,-0.0552,-0.0651,-0.0736,-0.0786,-0.0769,0,0,0,0,0,0,0,0,0,0,0,0,0,0,0,0,0,0,0,0,0,-0.0385,-0.0401,-0.0365,-0.0277,-0.0338,-0.0547,-0.0637,-0.0591,-0.0286,-0.0063,-0.0033,-0.0041,-0.0066,-0.0099,-0.0137,-0.0192,-0.0258,-0.0324,-0.0379,-0.0437,-0.0516,-0.0618,-0.0714,-0.0747,-0.0717,0,0,0,0,0,0,0,0,0,0,0,0,0,0,0,0,0,0,0,0,0,-0.0387,-0.0396,-0.0368,-0.0277,-0.0324,-0.053,-0.0593,-0.0536,-0.0319,-0.011,-0.0019,0.0005,-0.0008,-0.0041,-0.0093,-0.0162,-0.0233,-0.0308,-0.0382,-0.0445,-0.0514,-0.0599,-0.067,-0.0687,-0.0654,0,0,0,0,0,0,0,0,0,0,0,0,0,0,0,0,0,0,0,0,-0.0393,-0.0396,-0.0401,-0.039,-0.031,-0.0368,-0.0527,-0.0558,-0.0511,-0.0382,-0.0239,-0.0137,-0.0016,0.0038,0.0016,-0.003,-0.0121,-0.0225,-0.0313,-0.0398,-0.0472,-0.0514,-0.0563,-0.0615,-0.0634,-0.0602,0,0,0,0,0,0,0,0,0,0,0,0,0,0,0,0,0,0,0,0,-0.0387,-0.0409,-0.042,-0.0426,-0.0365,-0.0426,-0.0563,-0.0577,-0.0514,-0.0417,-0.0305,-0.0225,-0.0135,-0.0008,0.0044,0.0011,-0.0063,-0.0217,-0.0365,-0.0459,-0.0519,-0.053,-0.0519,-0.0522,-0.0533,-0.0516,0,0,0,0,0,0,0,0,0,0,0,0,0,0,0,0,0,0,0,0,-0.0396,-0.0428,-0.0453,-0.0467,-0.0396,-0.0448,-0.0599,-0.0519,-0.0464,-0.0363,-0.0239,-0.0121,-0.0129,-0.011,-0.0014,0.0008,-0.0044,-0.0195,-0.0434,-0.0571,-0.0596,-0.0544,-0.0456,-0.0401,-0.0415,-0.0426,0,0,0,0,0,0,0,0,0,0,0,0,0,0,0,0,0,0,0,-0.0396,-0.0426,-0.0459,-0.0489,-0.0486,-0.033,-0.0426,-0.0492,-0.0332,-0.0324,-0.0203,-0.0022,0.008,0.0019,-0.0104,-0.0091,-0.0025,-0.008,-0.0217,-0.05,-0.0678,-0.0687,-0.0516,-0.0308,-0.0239,-0.0297,-0.0349,0,0,0,0,0,0,0,0,0,0,0,0,0,0,0,0,0,0,0,-0.0417,-0.0456,-0.0486,-0.0486,-0.0332,-0.022,-0.0415,-0.0305,-0.0228,-0.0165,0.008,0.0269,0.0247,0.0074,-0.0077,-0.0063,0.0,-0.0115,-0.0335,-0.0629,-0.078,-0.0717,-0.0445,-0.0231,-0.0294,-0.0379,-0.0346,0,0,0,0,0,0,0,0,0,0,0,0,0,0,0,0,0,0,-0.031,-0.0409,-0.0461,-0.0478,-0.0343,-0.0074,-0.0214,-0.0338,-0.0247,-0.017,0.0107,0.0357,0.0409,0.025,-0.0041,-0.0099,0.0121,0.0179,-0.0082,-0.0475,-0.0805,-0.0895,-0.0725,-0.0519,-0.0582,-0.0687,-0.0538,-0.0327,0,0,0,0,0,0,0,0,0,0,0,0,0,0,0,0,0,-0.0129,-0.0242,-0.0346,-0.0401,-0.0354,-0.0132,-0.0096,-0.039,-0.0352,-0.0181,0.0102,0.0404,0.045,0.0335,0.0025,-0.0299,-0.0041,0.0431,0.0401,-0.0049,-0.058,-0.092,-0.0934,-0.0827,-0.0893,-0.1099,-0.0906,-0.0431,-0.0217,0,0,0,0,0,0,0,0,0,0,0,0,0,0,0,0,0.0041,0.0019,-0.0063,-0.017,-0.0225,-0.0179,-0.0201,-0.0428,-0.0426,-0.0173,0.014,0.0431,0.0514,0.0346,0.008,-0.0385,-0.0541,0.0055,0.0637,0.0478,-0.0044,-0.0585,-0.089,-0.0937,-0.1082,-0.1231,-0.1214,-0.0626,-0.0154,-0.0096,0,0,0,0,0,0,0,0,0,0,0,0,0,0,0,0,0.0319,0.0313,0.0233,0.0091,-0.0066,-0.0283,-0.0494,-0.0431,-0.0159,0.0187,0.0475,0.0569,0.0428,0.0115,-0.0247,-0.0739,-0.0623,0.0033,0.0623,0.0401,-0.0102,-0.0549,-0.0865,-0.106,-0.1178,-0.122,-0.0901,-0.022,-0.0033,-0.0132,0,0,0,0,0,0,0,0,0,0,0,0,0,0,0,0.0525,0.0582,0.0552,0.0371,0.0005,-0.0319,-0.0442,-0.0365,-0.0124,0.0201,0.0481,0.0596,0.0494,0.022,-0.0146,-0.0508,-0.0805,-0.0577,-0.0093,0.0472,0.0321,-0.0236,-0.0659,-0.0959,-0.1079,-0.1079,-0.0997,-0.0428,-0.0091,-0.0052,-0.0069]}],[{"header":{"parameterUnit":"m.s-1","parameterCategory":2,"la1":30.5641,"la2":29.4642,"lo1":-89.4342,"lo2":-87.9343,"dy":0.0333,"dx":0.0333,"nx":46,"ny":34,"refTime":"2025-11-10T00:00:00:Z","depth":"15","parameterNumber":2,"parameterNumberName":"U-component_of_CURRENTS"},"data":[0,0,0,0,0,0,0,0,0,0,0,0,0,0,0,0,0,0,0,0,0,0,0,0,0,0,0,0,0,0,0,0,0,0,0,0,0,0,0,0,0,0,0,0,0,0,0,0,0,0,0,0,0,0,0,0,0,0,0,0,0,0,0,0,0,0,0,0,0,0,0,0,0,0,0,0,0,0,0,0,0,0,0,0,0,0,0,0,0,0,0,0,0,0,0,0,0,0,0,0,0,0,0,0,0,0,0,0,0,0,0,0,0,0,0,0,0,0,0,0,0,0,0,0,0,0,0,0,0,0,0,0,0,0,0,0,0,0,0,0,0,0,0,0,0,0,0,0,0,0,0,0,0,0,0,0,0,0,0,0,0,0,0,0,0,0,0,0,0,0,0,0,0,0,0,0,0,0,0,0,0,0,0,0,0,0,0,0,0,0,0,0,0,0,0,0,0,0,0,0,0,0,0,0,0,0,0,0,0,0,0,0,0,0,0,0,0,0,0,0,0,0,0,0,0,0,0,0,0,0,0,0,0,0,0,0,0,0,0,0,0,0,0,0,0,0,0,0,0,0,0,0,0,0,0,0,0,0,0,0,0,0,0,0,0,0,0,0,0,0,0,0,0,0,0,0,0,0,0,0,0,0,0,0,0,0,0,0,0,0,0,0,0,0,0,0,0,0,0,0,0,0,0,0,0,0,0,0,0,0,0,0,0,0,0,0,0,0,0,0,0,0,0,0,0,0,0,0,0,0,0,0,0,0,0,0,0,0,0,0,0,0,0,0,0,0,0,0,0,0,0,0,0,0,0,0,0,0,0,0,0,0,0,0,0,0,0,0,0,0,0,0,0,0,0,0,0,0,0,0,0,0,0,0,0,0,0,0,0,0,0,0,0,0,0,0,0,0,0,0,0,0,0,0,0,0,0,0,0,0,0,0,0,0,0,0,0,0,0,0,0,0,0,0,0,0,0,0,0,0,0,0,0,0,0,0,0,0,0,0,0,0,0,0,0,0,0,0,0,0,0,0,0,0,0,0,0,0,0,0,0,0,0,0,0,0,0,0,0,0,0,0,0,0,0,0,0,0,0,0,0,0,0,0,0,0,0,0,0,0,0,0,0,0,0,0,0,0,0,0,0,0,0,0,0,0,0,0,0,0,0,0,0,0,0,0,0,0,0,0,0,0,0,0,0,0,0,0,0,0,0,0,0,0,0,0,0,0,0,0,0,0,0,0,0,0,0,0,0,0,0,0,0,0,0,0,0,0,0,0,0,0,0,0,0,0,0,0,0,0,0,0,0,0,0,0,0,0,0,0,0,0,0,0,0,0,0,0.0176,0.0261,0,0,0,0,0,0,0,0,0,0,0,0,0,0,0,0,0,0,0,0,0,0,0,0,0,0,0,0,0,0,0,0,0.0396,0.0387,0,0,0,0,0,0,0.022,0.028,0.0294,0.0269,0.0253,0.0244,0.025,0.0233,0.0269,0,0,0,0,0,0,0,0,0,0,0,0,0,0,0,0,0,0,0,0,0,0,0,0,0,0,0,0,0.0412,0.0396,0.0393,0.0398,0.0409,0.0412,0.0382,0.0332,0.0294,0.0286,0.0308,0.0324,0.0316,0.0286,0.0253,0.025,0.0255,0.0236,0.0201,0.0176,0.0231,0.0266,0.0209,0.0146,0,0,0,0,0,0,0,0,0,0,0,0,0,0,0,0,0,0,0,0,0,0.0417,0.0393,0.0385,0.0379,0.0374,0.0368,0.0363,0.0352,0.0346,0.0354,0.0374,0.0412,0.0453,0.0453,0.0404,0.0332,0.0269,0.0239,0.0225,0.0203,0.0168,0.0146,0.0135,0.0102,0.0047,0,0,0,0,0,0,0,0,0,0,0,0,0,0,0,0,0,0,0,0,0,0.0354,0.0354,0.0343,0.0321,0.0297,0.0283,0.028,0.0299,0.0341,0.0387,0.0426,0.0456,0.0459,0.0445,0.0412,0.0368,0.0327,0.0283,0.0247,0.0203,0.014,0.0077,0.003,-0.0008,-0.0038,0,0,0,0,0,0,0,0,0,0,0,0,0,0,0,0,0,0,0,0,0,0,0.0291,0.0275,0.0233,0.019,0.0168,0.014,0.0099,0.008,0.0085,0.0091,0.0115,0.0154,0.0211,0.0269,0.031,0.0324,0.0319,0.0297,0.0264,0.0201,0.0118,0.0041,-0.0014,-0.0052,0,0,0,0,0,0,0,0,0,0,0,0,0,0,0,0,0,0,0,0,0,0,0.0211,0.019,0.0132,0.0096,0.0099,0.0071,-0.0003,-0.0063,-0.0088,-0.0033,0.0058,0.0126,0.0176,0.0217,0.0244,0.0269,0.0288,0.0294,0.0297,0.0308,0.0302,0.0242,0.0135,0.0038,0,0,0,0,0,0,0,0,0,0,0,0,0,0,0,0,0,0,0,0,0,0,0.014,0.0126,0.008,0.0096,0.0113,0.0104,0.0066,0.0069,0.0137,0.0209,0.0242,0.0266,0.0291,0.031,0.0321,0.0319,0.0299,0.0264,0.0228,0.0209,0.0231,0.0277,0.0228,0.0132,0,0,0,0,0,0,0,0,0,0,0,0,0,0,0,0,0,0,0,0,0,0,0.008,0.0066,0.0011,0.0041,0.0118,0.0132,0.0154,0.0225,0.0253,0.0239,0.0244,0.0258,0.028,0.031,0.0343,0.0371,0.0387,0.0371,0.0294,0.0176,0.0115,0.0132,0.0137,0.0121,0,0,0,0,0,0,0,0,0,0,0,0,0,0,0,0,0,0,0,0,0,0,0.0016,0.0008,-0.0058,-0.0008,0.0077,0.0115,0.0184,0.0236,0.0209,0.0195,0.0211,0.0233,0.0253,0.028,0.0313,0.0352,0.0382,0.0401,0.0417,0.0398,0.0297,0.019,0.014,0.0126,0,0,0,0,0,0,0,0,0,0,0,0,0,0,0,0,0,0,0,0,0,0,-0.0041,-0.0052,-0.0148,-0.0126,-0.0003,0.0071,0.017,0.0201,0.0137,0.0137,0.0173,0.0211,0.0244,0.0266,0.0291,0.0319,0.0349,0.0368,0.0382,0.039,0.0393,0.0363,0.0305,0.0253,0,0,0,0,0,0,0,0,0,0,0,0,0,0,0,0,0,0,0,0,0,0,-0.0082,-0.0096,-0.0231,-0.0203,-0.0099,0.0016,0.0143,0.0236,0.0244,0.017,0.0154,0.0198,0.0255,0.0299,0.0316,0.0321,0.0332,0.0341,0.0343,0.0349,0.0363,0.0376,0.0379,0.0365,0,0,0,0,0,0,0,0,0,0,0,0,0,0,0,0,0,0,0,0,0,0,-0.0093,-0.0118,-0.0319,-0.0288,-0.0206,-0.0082,0.0058,0.0187,0.0305,0.0349,0.0286,0.0244,0.0277,0.0346,0.0412,0.0412,0.0371,0.0341,0.0319,0.0308,0.0321,0.0357,0.0393,0.042,0,0,0,0,0,0,0,0,0,0,0,0,0,0,0,0,0,0,0,0,0,0,-0.0099,-0.014,-0.0357,-0.0398,-0.0327,-0.028,-0.0159,0.0027,0.0187,0.0332,0.0423,0.0404,0.0374,0.0396,0.047,0.0544,0.0508,0.0409,0.0335,0.0297,0.0302,0.0365,0.0472,0.058,0,0,0,0,0,0,0,0,0,0,0,0,0,0,0,0,0,0,0,0,0,0,-0.0091,-0.0137,-0.0354,-0.0398,-0.036,-0.0313,-0.0195,0.0027,0.028,0.042,0.0519,0.0585,0.0566,0.0536,0.0544,0.0621,0.0651,0.053,0.0396,0.033,0.0357,0.0483,0.067,0.084,0,0,0,0,0,0,0,0,0,0,0,0,0,0,0,0,0,0,0,0,0,-0.0049,-0.008,-0.0148,-0.0316,-0.019,-0.0206,-0.019,0.0088,0.0319,0.0541,0.0698,0.0764,0.0777,0.0772,0.0725,0.0676,0.0656,0.0659,0.0599,0.05,0.0475,0.0552,0.0662,0.0755,0.0835,0,0,0,0,0,0,0,0,0,0,0,0,0,0,0,0,0,0,0,0,0,-0.003,-0.0058,-0.019,-0.0247,0.008,-0.0071,0.0058,0.0335,0.0596,0.0786,0.0849,0.0813,0.0733,0.0736,0.0805,0.0829,0.0794,0.0736,0.0681,0.0665,0.0662,0.0623,0.0544,0.0439,0.0426,0,0,0,0,0,0,0,0,0,0,0,0,0,0,0,0,0,0,0,0,0,0.0003,-0.0047,-0.0137,0.0085,0.0181,0.0132,0.0368,0.0634,0.0851,0.0895,0.0797,0.0623,0.0511,0.0566,0.07,0.0805,0.081,0.0714,0.0618,0.0566,0.0481,0.0222,-0.0096,-0.0184,-0.0082,0,0,0,0,0,0,0,0,0,0,0,0,0,0,0,0,0,0,0,0,0.0052,0.0041,-0.0025,0.0011,0.0261,0.0157,0.0415,0.0709,0.0904,0.0975,0.0873,0.0629,0.039,0.0308,0.0346,0.0387,0.0434,0.0445,0.0404,0.0346,0.0231,-0.0019,-0.0308,-0.039,-0.0302,-0.0239,0,0,0,0,0,0,0,0,0,0,0,0,0,0,0,0,0,0,0,0.0157,0.0157,0.0151,0.0206,0.0374,0.0266,0.0522,0.0827,0.0997,0.1027,0.0923,0.0681,0.0415,0.0231,0.0093,-0.0005,-0.0005,0.0019,0.0022,0.0,-0.0063,-0.0233,-0.0415,-0.0335,-0.0102,0.0052,0.0096,0,0,0,0,0,0,0,0,0,0,0,0,0,0,0,0,0,0,0.0214,0.025,0.0346,0.0541,0.0651,0.0615,0.0794,0.103,0.117,0.1156,0.0997,0.0717,0.0376,0.0173,0.0088,-0.0137,-0.0393,-0.0409,-0.0335,-0.0354,-0.0417,-0.0459,-0.0396,-0.0233,0.0104,0.0374,0.0346,0.0239,0,0,0,0,0,0,0,0,0,0,0,0,0,0,0,0,0,0.0239,0.0332,0.0626,0.0849,0.0953,0.1137,0.1244,0.1343,0.1384,0.1288,0.1052,0.0717,0.0354,0.0047,-0.0011,0.003,-0.014,-0.0417,-0.0494,-0.0519,-0.0662,-0.0695,-0.0569,-0.0401,-0.0137,0.0132,0.0118,-0.0005,-0.0165]},{"header":{"parameterUnit":"m.s-1","parameterCategory":2,"la1":30.5641,"la2":29.4642,"lo1":-89.4342,"lo2":-87.9343,"dy":0.0333,"dx":0.0333,"nx":46,"ny":34,"refTime":"2025-11-10T00:00:00:Z","depth":"15","parameterNumber":3,"parameterNumberName":"V-component_of_CURRENTS"},"data":[0,0,0,0,0,0,0,0,0,0,0,0,0,0,0,0,0,0,0,0,0,0,0,0,0,0,0,0,0,0,0,0,0,0,0,0,0,0,0,0,0,0,0,0,0,0,0,0,0,0,0,0,0,0,0,0,0,0,0,0,0,0,0,0,0,0,0,0,0,0,0,0,0,0,0,0,0,0,0,0,0,0,0,0,0,0,0,0,0,0,0,0,0,0,0,0,0,0,0,0,0,0,0,0,0,0,0,0,0,0,0,0,0,0,0,0,0,0,0,0,0,0,0,0,0,0,0,0,0,0,0,0,0,0,0,0,0,0,0,0,0,0,0,0,0,0,0,0,0,0,0,0,0,0,0,0,0,0,0,0,0,0,0,0,0,0,0,0,0,0,0,0,0,0,0,0,0,0,0,0,0,0,0,0,0,0,0,0,0,0,0,0,0,0,0,0,0,0,0,0,0,0,0,0,0,0,0,0,0,0,0,0,0,0,0,0,0,0,0,0,0,0,0,0,0,0,0,0,0,0,0,0,0,0,0,0,0,0,0,0,0,0,0,0,0,0,0,0,0,0,0,0,0,0,0,0,0,0,0,0,0,0,0,0,0,0,0,0,0,0,0,0,0,0,0,0,0,0,0,0,0,0,0,0,0,0,0,0,0,0,0,0,0,0,0,0,0,0,0,0,0,0,0,0,0,0,0,0,0,0,0,0,0,0,0,0,0,0,0,0,0,0,0,0,0,0,0,0,0,0,0,0,0,0,0,0,0,0,0,0,0,0,0,0,0,0,0,0,0,0,0,0,0,0,0,0,0,0,0,0,0,0,0,0,0,0,0,0,0,0,0,0,0,0,0,0,0,0,0,0,0,0,0,0,0,0,0,0,0,0,0,0,0,0,0,0,0,0,0,0,0,0,0,0,0,0,0,0,0,0,0,0,0,0,0,0,0,0,0,0,0,0,0,0,0,0,0,0,0,0,0,0,0,0,0,0,0,0,0,0,0,0,0,0,0,0,0,0,0,0,0,0,0,0,0,0,0,0,0,0,0,0,0,0,0,0,0,0,0,0,0,0,0,0,0,0,0,0,0,0,0,0,0,0,0,0,0,0,0,0,0,0,0,0,0,0,0,0,0,0,0,0,0,0,0,0,0,0,0,0,0,0,0,0,0,0,0,0,0,0,0,0,0,0,0,0,0,0,0,0,0,0,0,0,0,0,0,0,0,0,0,0,0,0,0,0,0,0,0,0,0,0,0,0,0,0,0,0,0,0,0,0,0,0,0,0,0,0,0,0,0,0,0,0,0,0,0,0,0,0,0,0,0,0,0,0,0,0.0107,-0.0058,0,0,0,0,0,0,0,0,0,0,0,0,0,0,0,0,0,0,0,0,0,0,0,0,0,0,0,0,0,0,0,0,-0.0242,-0.0286,0,0,0,0,0,0,-0.0283,-0.0269,-0.0126,-0.0049,-0.0124,-0.0244,-0.0247,-0.0201,-0.0157,0,0,0,0,0,0,0,0,0,0,0,0,0,0,0,0,0,0,0,0,0,0,0,0,0,0,0,0,-0.0269,-0.0299,-0.0327,-0.0335,-0.0316,-0.0275,-0.022,-0.0228,-0.0272,-0.0324,-0.0291,-0.0184,-0.0146,-0.0192,-0.0264,-0.0275,-0.0275,-0.0283,-0.025,-0.0157,-0.0058,0.0011,0.0022,0.0052,0,0,0,0,0,0,0,0,0,0,0,0,0,0,0,0,0,0,0,0,0,-0.0338,-0.0319,-0.033,-0.0341,-0.0332,-0.0308,-0.0272,-0.0244,-0.0233,-0.0209,-0.0151,-0.0085,-0.0044,-0.0047,-0.0118,-0.0206,-0.0277,-0.033,-0.0343,-0.0324,-0.0283,-0.0266,-0.0209,-0.0162,-0.0121,0,0,0,0,0,0,0,0,0,0,0,0,0,0,0,0,0,0,0,0,0,-0.0382,-0.0352,-0.0349,-0.0335,-0.0302,-0.025,-0.0206,-0.0173,-0.0159,-0.0165,-0.0146,-0.0154,-0.0195,-0.0222,-0.0258,-0.0291,-0.0316,-0.0327,-0.0335,-0.033,-0.0335,-0.0363,-0.0371,-0.036,-0.0343,0,0,0,0,0,0,0,0,0,0,0,0,0,0,0,0,0,0,0,0,0,0,-0.0371,-0.0363,-0.0324,-0.0275,-0.0255,-0.0244,-0.0277,-0.0247,-0.0244,-0.0266,-0.0291,-0.0316,-0.033,-0.0354,-0.0376,-0.0374,-0.0371,-0.0371,-0.0379,-0.0385,-0.0407,-0.0428,-0.0417,-0.0387,0,0,0,0,0,0,0,0,0,0,0,0,0,0,0,0,0,0,0,0,0,0,-0.0385,-0.0371,-0.031,-0.0264,-0.0313,-0.0363,-0.042,-0.0385,-0.0341,-0.0283,-0.0266,-0.0286,-0.0305,-0.0341,-0.0382,-0.0409,-0.0423,-0.0437,-0.0445,-0.0486,-0.0492,-0.0486,-0.0483,-0.0437,0,0,0,0,0,0,0,0,0,0,0,0,0,0,0,0,0,0,0,0,0,0,-0.0393,-0.0371,-0.0294,-0.0239,-0.0343,-0.0459,-0.0533,-0.0467,-0.0305,-0.0176,-0.0162,-0.0184,-0.022,-0.0269,-0.033,-0.0382,-0.0428,-0.047,-0.0489,-0.0533,-0.0588,-0.0626,-0.0643,-0.0571,0,0,0,0,0,0,0,0,0,0,0,0,0,0,0,0,0,0,0,0,0,0,-0.0396,-0.036,-0.0269,-0.019,-0.0343,-0.0494,-0.0563,-0.0423,-0.0143,-0.0077,-0.0102,-0.0132,-0.0165,-0.0209,-0.0266,-0.0327,-0.0385,-0.0439,-0.0494,-0.0555,-0.061,-0.0681,-0.0722,-0.0684,0,0,0,0,0,0,0,0,0,0,0,0,0,0,0,0,0,0,0,0,0,0,-0.0393,-0.0349,-0.0242,-0.0143,-0.0335,-0.05,-0.0533,-0.033,-0.0074,-0.0069,-0.0085,-0.0107,-0.0135,-0.017,-0.0225,-0.0288,-0.0346,-0.0396,-0.0459,-0.0549,-0.0634,-0.0706,-0.0739,-0.0711,0,0,0,0,0,0,0,0,0,0,0,0,0,0,0,0,0,0,0,0,0,0,-0.0387,-0.0343,-0.0222,-0.0091,-0.0335,-0.0511,-0.0505,-0.0291,-0.0069,-0.0044,-0.0049,-0.0074,-0.0104,-0.0143,-0.0192,-0.0253,-0.0319,-0.0382,-0.0442,-0.0525,-0.0621,-0.0706,-0.0725,-0.0689,0,0,0,0,0,0,0,0,0,0,0,0,0,0,0,0,0,0,0,0,0,0,-0.0382,-0.0343,-0.0217,-0.0077,-0.0343,-0.05,-0.0508,-0.0324,-0.0118,-0.003,-0.0008,-0.0019,-0.0055,-0.0107,-0.0173,-0.0233,-0.0302,-0.0379,-0.0448,-0.0519,-0.0604,-0.0673,-0.0687,-0.0654,0,0,0,0,0,0,0,0,0,0,0,0,0,0,0,0,0,0,0,0,0,0,-0.0387,-0.0363,-0.022,-0.0126,-0.0341,-0.0486,-0.0489,-0.0382,-0.0244,-0.0146,-0.0027,0.003,0.0005,-0.0047,-0.014,-0.0239,-0.0319,-0.0396,-0.047,-0.0514,-0.0569,-0.0629,-0.0651,-0.0623,0,0,0,0,0,0,0,0,0,0,0,0,0,0,0,0,0,0,0,0,0,0,-0.0407,-0.0396,-0.0228,-0.0085,-0.031,-0.0387,-0.0382,-0.0363,-0.0294,-0.0225,-0.0137,-0.0011,0.0041,0.0,-0.008,-0.0242,-0.0382,-0.0461,-0.0514,-0.0527,-0.0522,-0.0536,-0.0558,-0.0552,0,0,0,0,0,0,0,0,0,0,0,0,0,0,0,0,0,0,0,0,0,0,-0.0437,-0.042,-0.0168,0.008,-0.0176,-0.0173,-0.0192,-0.017,-0.0192,-0.0118,-0.0129,-0.0113,-0.0014,0.0005,-0.0052,-0.0211,-0.0453,-0.058,-0.0596,-0.0544,-0.0459,-0.0412,-0.0437,-0.0459,0,0,0,0,0,0,0,0,0,0,0,0,0,0,0,0,0,0,0,0,0,-0.0442,-0.0467,-0.0382,0.0077,0.0222,-0.011,0.0025,0.0014,0.0003,0.0011,0.0082,0.0022,-0.0104,-0.0093,-0.0027,-0.0085,-0.0228,-0.0511,-0.0689,-0.0689,-0.0522,-0.0316,-0.0255,-0.0316,-0.0368,0,0,0,0,0,0,0,0,0,0,0,0,0,0,0,0,0,0,0,0,0,-0.0464,-0.0437,-0.0137,0.0379,0.0217,-0.0011,0.0154,0.0124,0.0168,0.0275,0.025,0.0074,-0.0074,-0.0063,-0.0008,-0.0126,-0.0341,-0.0634,-0.0788,-0.0722,-0.0489,-0.0321,-0.0349,-0.0365,-0.033,0,0,0,0,0,0,0,0,0,0,0,0,0,0,0,0,0,0,0,0,0,-0.0448,-0.0264,0.0242,0.047,0.006,0.0148,0.0151,0.0214,0.0379,0.0409,0.025,-0.0036,-0.0082,0.0124,0.0157,-0.0102,-0.0481,-0.0808,-0.0898,-0.0739,-0.0656,-0.0585,-0.0585,-0.0445,-0.0261,0,0,0,0,0,0,0,0,0,0,0,0,0,0,0,0,0,0,0,0,-0.0371,-0.0294,0.008,0.0489,0.0184,0.0047,0.0063,0.0201,0.0415,0.045,0.0332,0.0027,-0.028,-0.0019,0.0409,0.0349,-0.008,-0.0585,-0.092,-0.0942,-0.0895,-0.0868,-0.0843,-0.0676,-0.033,-0.0151,0,0,0,0,0,0,0,0,0,0,0,0,0,0,0,0,0,0,0,-0.014,-0.0137,0.0058,0.0368,0.0113,-0.0137,-0.0036,0.0206,0.0445,0.0514,0.0343,0.008,-0.0368,-0.0514,0.0066,0.058,0.0393,-0.0074,-0.0591,-0.0895,-0.0975,-0.1057,-0.0934,-0.0915,-0.05,-0.0121,-0.0071,0,0,0,0,0,0,0,0,0,0,0,0,0,0,0,0,0,0,0.0244,0.0209,0.0269,0.0258,-0.0104,-0.0294,-0.0091,0.022,0.0486,0.0569,0.0426,0.0113,-0.0242,-0.0711,-0.0602,0.0033,0.0563,0.0321,-0.0121,-0.0552,-0.0868,-0.1005,-0.1038,-0.0909,-0.0736,-0.0209,-0.0038,-0.0132,0,0,0,0,0,0,0,0,0,0,0,0,0,0,0,0,0,0.0516,0.0538,0.0514,0.0126,-0.0181,-0.0236,-0.0063,0.0225,0.0486,0.0596,0.0492,0.022,-0.014,-0.0483,-0.0775,-0.0566,-0.0099,0.0431,0.0255,-0.0244,-0.0656,-0.0923,-0.1008,-0.0873,-0.0802,-0.0396,-0.0096,-0.0063,-0.0082]}],[{"header":{"parameterUnit":"m.s-1","parameterCategory":2,"la1":30.5641,"la2":29.4642,"lo1":-89.4342,"lo2":-87.9343,"dy":0.0333,"dx":0.0333,"nx":46,"ny":34,"refTime":"2025-11-10T00:00:00:Z","depth":"20","parameterNumber":2,"parameterNumberName":"U-component_of_CURRENTS"},"data":[0,0,0,0,0,0,0,0,0,0,0,0,0,0,0,0,0,0,0,0,0,0,0,0,0,0,0,0,0,0,0,0,0,0,0,0,0,0,0,0,0,0,0,0,0,0,0,0,0,0,0,0,0,0,0,0,0,0,0,0,0,0,0,0,0,0,0,0,0,0,0,0,0,0,0,0,0,0,0,0,0,0,0,0,0,0,0,0,0,0,0,0,0,0,0,0,0,0,0,0,0,0,0,0,0,0,0,0,0,0,0,0,0,0,0,0,0,0,0,0,0,0,0,0,0,0,0,0,0,0,0,0,0,0,0,0,0,0,0,0,0,0,0,0,0,0,0,0,0,0,0,0,0,0,0,0,0,0,0,0,0,0,0,0,0,0,0,0,0,0,0,0,0,0,0,0,0,0,0,0,0,0,0,0,0,0,0,0,0,0,0,0,0,0,0,0,0,0,0,0,0,0,0,0,0,0,0,0,0,0,0,0,0,0,0,0,0,0,0,0,0,0,0,0,0,0,0,0,0,0,0,0,0,0,0,0,0,0,0,0,0,0,0,0,0,0,0,0,0,0,0,0,0,0,0,0,0,0,0,0,0,0,0,0,0,0,0,0,0,0,0,0,0,0,0,0,0,0,0,0,0,0,0,0,0,0,0,0,0,0,0,0,0,0,0,0,0,0,0,0,0,0,0,0,0,0,0,0,0,0,0,0,0,0,0,0,0,0,0,0,0,0,0,0,0,0,0,0,0,0,0,0,0,0,0,0,0,0,0,0,0,0,0,0,0,0,0,0,0,0,0,0,0,0,0,0,0,0,0,0,0,0,0,0,0,0,0,0,0,0,0,0,0,0,0,0,0,0,0,0,0,0,0,0,0,0,0,0,0,0,0,0,0,0,0,0,0,0,0,0,0,0,0,0,0,0,0,0,0,0,0,0,0,0,0,0,0,0,0,0,0,0,0,0,0,0,0,0,0,0,0,0,0,0,0,0,0,0,0,0,0,0,0,0,0,0,0,0,0,0,0,0,0,0,0,0,0,0,0,0,0,0,0,0,0,0,0,0,0,0,0,0,0,0,0,0,0,0,0,0,0,0,0,0,0,0,0,0,0,0,0,0,0,0,0,0,0,0,0,0,0,0,0,0,0,0,0,0,0,0,0,0,0,0,0,0,0,0,0,0,0,0,0,0,0,0,0,0,0,0,0,0,0,0,0,0,0,0,0,0,0,0,0,0,0,0,0,0,0,0,0,0,0,0,0,0,0,0,0,0,0,0,0,0,0,0,0,0,0,0,0,0,0,0,0,0,0,0,0,0,0,0,0,0,0,0,0,0,0,0,0,0,0,0,0,0,0,0,0,0,0,0,0,0,0,0,0,0,0,0,0,0,0,0,0,0,0,0,0,0,0,0,0,0,0,0,0,0,0,0,0,0,0,0,0,0,0,0,0,0,0,0,0,0,0,0,0,0,0,0,0,0,0,0,0,0,0,0,0,0,0,0,0,0,0,0,0,0,0,0,0,0,0,0,0,0,0,0,0,0,0,0,0,0,0,0,0,0,0,0,0,0,0,0,0,0,0,0,0,0,0,0,0,0,0,0,0,0,0,0,0,0,0,0,0,0,0,0,0,0,0,0,0,0.0382,0.0393,0.0371,0,0,0,0,0,0,0,0,0,0,0,0,0,0,0,0,0,0,0,0,0,0,0,0,0,0,0,0,0,0,0,0,0,0,0,0.0264,0.0222,0.0203,0.0228,0.0275,0.0316,0.0379,0.0445,0.0494,0.0516,0.0489,0.0417,0.0332,0.0277,0.0242,0.0198,0,0,0,0,0,0,0,0,0,0,0,0,0,0,0,0,0,0,0,0,0,0,0,0,0,0,0,0,0,0.0201,0.006,0.0025,0.0129,0.0247,0.0357,0.0437,0.0481,0.0497,0.0536,0.0588,0.0602,0.0536,0.0437,0.0365,0.0313,0.0269,0.0209,0.0124,0.0044,-0.0011,-0.0049,0,0,0,0,0,0,0,0,0,0,0,0,0,0,0,0,0,0,0,0,0,0,0,0,0.0022,-0.0071,0.0025,0.0146,0.0184,0.0206,0.0211,0.0209,0.0236,0.0286,0.0343,0.0393,0.0426,0.0456,0.0472,0.0472,0.0481,0.0464,0.0404,0.031,0.0192,0.008,0,0,0,0,0,0,0,0,0,0,0,0,0,0,0,0,0,0,0,0,0,0,0,0,-0.0063,-0.0143,0.0019,0.0102,0.0107,0.0074,0.0107,0.019,0.0247,0.028,0.0308,0.0335,0.036,0.0379,0.0396,0.0428,0.0464,0.053,0.064,0.0651,0.053,0.0316,0,0,0,0,0,0,0,0,0,0,0,0,0,0,0,0,0,0,0,0,0,0,0,0,-0.0135,-0.0211,-0.0025,0.0066,0.0044,0.0082,0.0184,0.0228,0.0242,0.0255,0.028,0.031,0.0346,0.0371,0.039,0.0401,0.0393,0.0423,0.0525,0.0599,0.0563,0.0398,0,0,0,0,0,0,0,0,0,0,0,0,0,0,0,0,0,0,0,0,0,0,0,0,-0.0198,-0.0294,-0.0113,-0.0011,-0.0008,0.0099,0.0179,0.0184,0.0206,0.0228,0.0253,0.0283,0.0321,0.0357,0.0379,0.0393,0.0407,0.0412,0.0437,0.0464,0.0461,0.0376,0,0,0,0,0,0,0,0,0,0,0,0,0,0,0,0,0,0,0,0,0,0,0,0,-0.0253,-0.0371,-0.0275,-0.0143,-0.0088,0.0066,0.0126,0.0132,0.0165,0.0203,0.0236,0.0264,0.0297,0.033,0.036,0.0371,0.0374,0.0374,0.0374,0.0379,0.039,0.0368,0,0,0,0,0,0,0,0,0,0,0,0,0,0,0,0,0,0,0,0,0,0,0,0,-0.0286,-0.0439,-0.0442,-0.0321,-0.0146,-0.0019,0.0099,0.0135,0.0146,0.0187,0.0239,0.0283,0.0308,0.0327,0.0346,0.0357,0.0352,0.0341,0.0343,0.0357,0.0368,0.0371,0,0,0,0,0,0,0,0,0,0,0,0,0,0,0,0,0,0,0,0,0,0,0,0,0,-0.0489,-0.0522,-0.0379,-0.031,-0.0195,0.0,0.0187,0.0239,0.0233,0.0266,0.0327,0.0379,0.039,0.0374,0.036,0.0341,0.0316,0.0313,0.0338,0.0374,0.0409,0,0,0,0,0,0,0,0,0,0,0,0,0,0,0,0,0,0,0,0,0,0,0,0,0,-0.0527,-0.0472,-0.036,-0.0242,-0.0209,-0.014,0.008,0.033,0.039,0.0374,0.0393,0.0448,0.0503,0.0478,0.0412,0.0357,0.0319,0.0308,0.036,0.0464,0.0571,0,0,0,0,0,0,0,0,0,0,0,0,0,0,0,0,0,0,0,0,0,0,0,0,0,-0.0475,-0.0379,-0.0231,-0.0124,-0.0071,0.0063,0.0294,0.0489,0.0577,0.0566,0.0541,0.0544,0.0591,0.0593,0.05,0.0407,0.036,0.0382,0.0497,0.0676,0.0843,0,0,0,0,0,0,0,0,0,0,0,0,0,0,0,0,0,0,0,0,0,0,0,0,0,-0.0357,-0.0187,0.0063,0.0049,0.0206,0.0478,0.0689,0.0761,0.0777,0.0775,0.0731,0.0684,0.0645,0.0602,0.0547,0.0492,0.0486,0.0571,0.0695,0.0786,0.0851,0,0,0,0,0,0,0,0,0,0,0,0,0,0,0,0,0,0,0,0,0,0,0,0,0,-0.0192,0.0264,0.022,0.0308,0.0547,0.0775,0.0846,0.0813,0.0736,0.0742,0.0819,0.084,0.0797,0.0717,0.0659,0.0662,0.0684,0.0659,0.0588,0.0514,0.0505,0,0,0,0,0,0,0,0,0,0,0,0,0,0,0,0,0,0,0,0,0,0,0,0,-0.0187,0.0198,0.0338,0.0374,0.0618,0.0849,0.0895,0.0794,0.0621,0.0516,0.0604,0.0758,0.0846,0.0824,0.0709,0.061,0.0555,0.0409,0.0214,0.0044,-0.0022,0.008,0,0,0,0,0,0,0,0,0,0,0,0,0,0,0,0,0,0,0,0,0,0,0,0,0.0,0.036,0.0357,0.0659,0.089,0.0975,0.0873,0.0615,0.0363,0.0319,0.0448,0.0516,0.0492,0.0448,0.0396,0.0349,0.0192,0.0044,-0.0052,-0.0137,-0.0115,-0.0058,0,0,0,0,0,0,0,0,0,0,0,0,0,0,0,0,0,0,0,0,0,0,0.0049,0.0096,0.0426,0.0376,0.0761,0.0981,0.1025,0.0923,0.0678,0.0374,0.0176,0.014,0.0181,0.0154,0.0052,0.0019,0.0,-0.0085,-0.0211,-0.0198,-0.0104,-0.0003,0.0132,0.0187,0,0,0,0,0,0,0,0,0,0,0,0,0,0,0,0,0,0,0,0,0,0.0148,0.0382,0.0643,0.0689,0.1003,0.1162,0.1151,0.0994,0.0709,0.0352,0.0115,0.0041,-0.006,-0.0151,-0.0179,-0.0264,-0.0365,-0.0415,-0.0404,-0.0247,-0.0058,0.0184,0.0374,0.0354,0.0253,0,0,0,0,0,0,0,0,0,0,0,0,0,0,0,0,0,0,0,0.0217,0.0327,0.0802,0.0961,0.1228,0.1338,0.1382,0.1288,0.1052,0.0714,0.0341,0.0016,-0.006,-0.0003,-0.008,-0.0206,-0.0201,-0.0299,-0.0525,-0.0503,-0.0341,-0.0132,0.0033,0.0132,0.0121,-0.0003,-0.0162]},{"header":{"parameterUnit":"m.s-1","parameterCategory":2,"la1":30.5641,"la2":29.4642,"lo1":-89.4342,"lo2":-87.9343,"dy":0.0333,"dx":0.0333,"nx":46,"ny":34,"refTime":"2025-11-10T00:00:00:Z","depth":"20","parameterNumber":3,"parameterNumberName":"V-component_of_CURRENTS"},"data":[0,0,0,0,0,0,0,0,0,0,0,0,0,0,0,0,0,0,0,0,0,0,0,0,0,0,0,0,0,0,0,0,0,0,0,0,0,0,0,0,0,0,0,0,0,0,0,0,0,0,0,0,0,0,0,0,0,0,0,0,0,0,0,0,0,0,0,0,0,0,0,0,0,0,0,0,0,0,0,0,0,0,0,0,0,0,0,0,0,0,0,0,0,0,0,0,0,0,0,0,0,0,0,0,0,0,0,0,0,0,0,0,0,0,0,0,0,0,0,0,0,0,0,0,0,0,0,0,0,0,0,0,0,0,0,0,0,0,0,0,0,0,0,0,0,0,0,0,0,0,0,0,0,0,0,0,0,0,0,0,0,0,0,0,0,0,0,0,0,0,0,0,0,0,0,0,0,0,0,0,0,0,0,0,0,0,0,0,0,0,0,0,0,0,0,0,0,0,0,0,0,0,0,0,0,0,0,0,0,0,0,0,0,0,0,0,0,0,0,0,0,0,0,0,0,0,0,0,0,0,0,0,0,0,0,0,0,0,0,0,0,0,0,0,0,0,0,0,0,0,0,0,0,0,0,0,0,0,0,0,0,0,0,0,0,0,0,0,0,0,0,0,0,0,0,0,0,0,0,0,0,0,0,0,0,0,0,0,0,0,0,0,0,0,0,0,0,0,0,0,0,0,0,0,0,0,0,0,0,0,0,0,0,0,0,0,0,0,0,0,0,0,0,0,0,0,0,0,0,0,0,0,0,0,0,0,0,0,0,0,0,0,0,0,0,0,0,0,0,0,0,0,0,0,0,0,0,0,0,0,0,0,0,0,0,0,0,0,0,0,0,0,0,0,0,0,0,0,0,0,0,0,0,0,0,0,0,0,0,0,0,0,0,0,0,0,0,0,0,0,0,0,0,0,0,0,0,0,0,0,0,0,0,0,0,0,0,0,0,0,0,0,0,0,0,0,0,0,0,0,0,0,0,0,0,0,0,0,0,0,0,0,0,0,0,0,0,0,0,0,0,0,0,0,0,0,0,0,0,0,0,0,0,0,0,0,0,0,0,0,0,0,0,0,0,0,0,0,0,0,0,0,0,0,0,0,0,0,0,0,0,0,0,0,0,0,0,0,0,0,0,0,0,0,0,0,0,0,0,0,0,0,0,0,0,0,0,0,0,0,0,0,0,0,0,0,0,0,0,0,0,0,0,0,0,0,0,0,0,0,0,0,0,0,0,0,0,0,0,0,0,0,0,0,0,0,0,0,0,0,0,0,0,0,0,0,0,0,0,0,0,0,0,0,0,0,0,0,0,0,0,0,0,0,0,0,0,0,0,0,0,0,0,0,0,0,0,0,0,0,0,0,0,0,0,0,0,0,0,0,0,0,0,0,0,0,0,0,0,0,0,0,0,0,0,0,0,0,0,0,0,0,0,0,0,0,0,0,0,0,0,0,0,0,0,0,0,0,0,0,0,0,0,0,0,0,0,0,0,0,0,0,0,0,0,0,0,0,0,0,0,0,0,0,0,0,0,0,0,0,0,0,0,0,0,0,0,0,0,0,0,0,0,0,0,0,0,0,0,0,0,0,0,0,0,0,0,0,0,0,0,0,0,0,0,0,0,0,0,0,0,0,0,0.0063,0.0055,0.0,0,0,0,0,0,0,0,0,0,0,0,0,0,0,0,0,0,0,0,0,0,0,0,0,0,0,0,0,0,0,0,0,0,0,0,-0.0255,-0.0096,0.0019,0.0055,0.0088,0.014,0.019,0.0214,0.0214,0.0168,0.0124,0.0041,-0.0115,-0.0233,-0.0269,-0.028,0,0,0,0,0,0,0,0,0,0,0,0,0,0,0,0,0,0,0,0,0,0,0,0,0,0,0,0,0,-0.028,-0.0016,0.0159,0.0253,0.0258,0.0269,0.0255,0.0266,0.0242,0.0181,0.0102,-0.0003,-0.0082,-0.0129,-0.019,-0.0217,-0.0233,-0.0266,-0.0324,-0.0363,-0.0371,-0.0354,0,0,0,0,0,0,0,0,0,0,0,0,0,0,0,0,0,0,0,0,0,0,0,0,-0.0151,0.0192,0.0236,0.0291,0.0261,0.0195,0.0088,0.0025,-0.0058,-0.0093,-0.0132,-0.0179,-0.0217,-0.0239,-0.0253,-0.0247,-0.0217,-0.0184,-0.0211,-0.0275,-0.0327,-0.0338,0,0,0,0,0,0,0,0,0,0,0,0,0,0,0,0,0,0,0,0,0,0,0,0,-0.0027,0.0217,0.0247,0.0288,0.0143,0.0019,-0.0044,-0.0058,-0.0107,-0.0148,-0.0184,-0.0228,-0.0275,-0.0308,-0.0327,-0.0335,-0.0319,-0.0299,-0.0239,-0.0261,-0.0316,-0.0363,0,0,0,0,0,0,0,0,0,0,0,0,0,0,0,0,0,0,0,0,0,0,0,0,-0.0011,0.019,0.028,0.0277,0.0027,-0.0135,-0.0093,-0.0077,-0.0104,-0.0129,-0.0162,-0.0203,-0.0261,-0.0319,-0.0365,-0.0396,-0.0412,-0.042,-0.0431,-0.0437,-0.0456,-0.0481,0,0,0,0,0,0,0,0,0,0,0,0,0,0,0,0,0,0,0,0,0,0,0,0,-0.0047,0.0162,0.0335,0.0247,-0.0041,-0.0198,-0.0077,-0.0074,-0.0093,-0.0113,-0.0135,-0.0168,-0.022,-0.0286,-0.0346,-0.0398,-0.0453,-0.0503,-0.0541,-0.0549,-0.0552,-0.0541,0,0,0,0,0,0,0,0,0,0,0,0,0,0,0,0,0,0,0,0,0,0,0,0,-0.0085,0.0137,0.0404,0.0211,-0.0077,-0.0211,-0.0074,-0.0058,-0.006,-0.0085,-0.0115,-0.0146,-0.0187,-0.0247,-0.0313,-0.0379,-0.0448,-0.0525,-0.0613,-0.0651,-0.0634,-0.0588,0,0,0,0,0,0,0,0,0,0,0,0,0,0,0,0,0,0,0,0,0,0,0,0,-0.0118,0.0115,0.0393,0.0151,-0.003,-0.0146,-0.008,-0.0047,-0.0019,-0.0033,-0.0074,-0.0129,-0.0184,-0.0233,-0.0294,-0.0368,-0.0442,-0.0522,-0.061,-0.067,-0.0676,-0.0632,0,0,0,0,0,0,0,0,0,0,0,0,0,0,0,0,0,0,0,0,0,0,0,0,0,0.0124,0.0294,0.0151,0.0135,0.003,-0.0022,-0.006,-0.0022,0.0019,-0.0011,-0.0077,-0.0173,-0.0261,-0.0319,-0.0387,-0.0459,-0.0511,-0.0571,-0.0634,-0.0662,-0.0637,0,0,0,0,0,0,0,0,0,0,0,0,0,0,0,0,0,0,0,0,0,0,0,0,0,0.0162,0.0272,0.0242,0.0324,0.0176,0.0093,-0.0074,-0.0118,-0.0014,0.0033,-0.0014,-0.0107,-0.0277,-0.0401,-0.0459,-0.0503,-0.0519,-0.0522,-0.0547,-0.0577,-0.058,0,0,0,0,0,0,0,0,0,0,0,0,0,0,0,0,0,0,0,0,0,0,0,0,0,0.0225,0.0332,0.0382,0.0461,0.0321,0.0187,-0.0014,-0.0118,-0.0113,-0.0014,0.0003,-0.0063,-0.0239,-0.0478,-0.0582,-0.0591,-0.0536,-0.0459,-0.0423,-0.0461,-0.0494,0,0,0,0,0,0,0,0,0,0,0,0,0,0,0,0,0,0,0,0,0,0,0,0,0,0.0341,0.0478,0.0596,0.058,0.0352,0.022,0.0124,0.0027,-0.0107,-0.0096,-0.003,-0.0091,-0.0239,-0.0519,-0.0689,-0.0689,-0.0525,-0.0335,-0.0316,-0.0396,-0.0431,0,0,0,0,0,0,0,0,0,0,0,0,0,0,0,0,0,0,0,0,0,0,0,0,0,0.0426,0.0602,0.0777,0.0563,0.0374,0.0313,0.0253,0.0077,-0.0071,-0.0063,-0.0019,-0.014,-0.0346,-0.0634,-0.0788,-0.0731,-0.0541,-0.0453,-0.0404,-0.031,-0.0288,0,0,0,0,0,0,0,0,0,0,0,0,0,0,0,0,0,0,0,0,0,0,0,0,0.0486,0.0659,0.0643,0.0692,0.0461,0.0412,0.0409,0.0247,-0.0025,-0.006,0.0126,0.011,-0.0146,-0.0492,-0.0808,-0.0901,-0.0802,-0.0747,-0.0571,-0.039,-0.0211,-0.0124,0,0,0,0,0,0,0,0,0,0,0,0,0,0,0,0,0,0,0,0,0,0,0,0,0.0681,0.0571,0.0656,0.0467,0.0464,0.045,0.0327,0.0047,-0.0231,0.0027,0.0357,0.0222,-0.0137,-0.0596,-0.0923,-0.0994,-0.0931,-0.0827,-0.0448,-0.0277,-0.0121,-0.0025,0,0,0,0,0,0,0,0,0,0,0,0,0,0,0,0,0,0,0,0,0,0,0.0428,0.0681,0.0486,0.0459,0.0387,0.0483,0.0514,0.0343,0.008,-0.0313,-0.0439,0.0093,0.0448,0.0209,-0.0126,-0.0596,-0.0906,-0.1005,-0.0928,-0.067,-0.0456,-0.0308,-0.0058,-0.0019,0,0,0,0,0,0,0,0,0,0,0,0,0,0,0,0,0,0,0,0,0,0.0456,0.0684,0.0308,0.0154,0.0302,0.0503,0.0571,0.0423,0.0115,-0.0211,-0.0621,-0.0544,0.0036,0.0415,0.0148,-0.0165,-0.0574,-0.0854,-0.0934,-0.0819,-0.0569,-0.0475,-0.0184,-0.0047,-0.0132,0,0,0,0,0,0,0,0,0,0,0,0,0,0,0,0,0,0,0,0.0505,0.0596,0.0541,0.0093,0.0052,0.0244,0.0494,0.0596,0.0489,0.022,-0.0118,-0.0409,-0.0692,-0.0541,-0.0107,0.0319,0.0096,-0.0305,-0.0654,-0.0832,-0.0846,-0.0753,-0.0591,-0.0335,-0.0107,-0.008,-0.0099]}],[{"header":{"parameterUnit":"m.s-1","parameterCategory":2,"la1":30.5641,"la2":29.4642,"lo1":-89.4342,"lo2":-87.9343,"dy":0.0333,"dx":0.0333,"nx":46,"ny":34,"refTime":"2025-11-10T00:00:00:Z","depth":"25","parameterNumber":2,"parameterNumberName":"U-component_of_CURRENTS"},"data":[0,0,0,0,0,0,0,0,0,0,0,0,0,0,0,0,0,0,0,0,0,0,0,0,0,0,0,0,0,0,0,0,0,0,0,0,0,0,0,0,0,0,0,0,0,0,0,0,0,0,0,0,0,0,0,0,0,0,0,0,0,0,0,0,0,0,0,0,0,0,0,0,0,0,0,0,0,0,0,0,0,0,0,0,0,0,0,0,0,0,0,0,0,0,0,0,0,0,0,0,0,0,0,0,0,0,0,0,0,0,0,0,0,0,0,0,0,0,0,0,0,0,0,0,0,0,0,0,0,0,0,0,0,0,0,0,0,0,0,0,0,0,0,0,0,0,0,0,0,0,0,0,0,0,0,0,0,0,0,0,0,0,0,0,0,0,0,0,0,0,0,0,0,0,0,0,0,0,0,0,0,0,0,0,0,0,0,0,0,0,0,0,0,0,0,0,0,0,0,0,0,0,0,0,0,0,0,0,0,0,0,0,0,0,0,0,0,0,0,0,0,0,0,0,0,0,0,0,0,0,0,0,0,0,0,0,0,0,0,0,0,0,0,0,0,0,0,0,0,0,0,0,0,0,0,0,0,0,0,0,0,0,0,0,0,0,0,0,0,0,0,0,0,0,0,0,0,0,0,0,0,0,0,0,0,0,0,0,0,0,0,0,0,0,0,0,0,0,0,0,0,0,0,0,0,0,0,0,0,0,0,0,0,0,0,0,0,0,0,0,0,0,0,0,0,0,0,0,0,0,0,0,0,0,0,0,0,0,0,0,0,0,0,0,0,0,0,0,0,0,0,0,0,0,0,0,0,0,0,0,0,0,0,0,0,0,0,0,0,0,0,0,0,0,0,0,0,0,0,0,0,0,0,0,0,0,0,0,0,0,0,0,0,0,0,0,0,0,0,0,0,0,0,0,0,0,0,0,0,0,0,0,0,0,0,0,0,0,0,0,0,0,0,0,0,0,0,0,0,0,0,0,0,0,0,0,0,0,0,0,0,0,0,0,0,0,0,0,0,0,0,0,0,0,0,0,0,0,0,0,0,0,0,0,0,0,0,0,0,0,0,0,0,0,0,0,0,0,0,0,0,0,0,0,0,0,0,0,0,0,0,0,0,0,0,0,0,0,0,0,0,0,0,0,0,0,0,0,0,0,0,0,0,0,0,0,0,0,0,0,0,0,0,0,0,0,0,0,0,0,0,0,0,0,0,0,0,0,0,0,0,0,0,0,0,0,0,0,0,0,0,0,0,0,0,0,0,0,0,0,0,0,0,0,0,0,0,0,0,0,0,0,0,0,0,0,0,0,0,0,0,0,0,0,0,0,0,0,0,0,0,0,0,0,0,0,0,0,0,0,0,0,0,0,0,0,0,0,0,0,0,0,0,0,0,0,0,0,0,0,0,0,0,0,0,0,0,0,0,0,0,0,0,0,0,0,0,0,0,0,0,0,0,0,0,0,0,0,0,0,0,0,0,0,0,0,0,0,0,0,0,0,0,0,0,0,0,0,0,0,0,0,0,0,0,0,0,0,0,0,0,0,0,0,0,0,0,0,0,0,0,0,0,0,0,0,0,0,0,0,0,0,0,0,0,0,0,0,0,0,0,0,0,0,0,0,0,0,0,0,0,0,0,0,0,0,0,0,0,0,0,0,0,0,0,0,0,0,0,0,0,0,0,0,0,0,0,0,0,0,0,0,0,0,0,0,0,0,0,0,0,0,0,0,0,0,0,0,0,0,0,0,0,0,0,0,0,0,0,0,0,0,0,0,0,0,0,0,0,0,0,0,0,0,0,0,0,0,0,0,0,0,0,0,0,0,0,0,0,0,0,0.0228,0.0313,0.039,0.045,0.0475,0.0483,0.0478,0,0,0,0,0,0,0,0,0,0,0,0,0,0,0,0,0,0,0,0,0,0,0,0,0,0,0,0,0,0,0,0,0,0,0,0,0,0.0005,0.0055,0.011,0.019,0.0266,0.0321,0.0371,0.0401,0.0423,0.0445,0.0459,0.0459,0.045,0.0439,0,0,0,0,0,0,0,0,0,0,0,0,0,0,0,0,0,0,0,0,0,0,0,0,0,0,0,0,0,0,0,0,-0.0066,-0.0022,0.0022,0.0074,0.0162,0.0236,0.0277,0.0308,0.0338,0.0368,0.0404,0.045,0.0514,0.0577,0.0604,0.061,0.0588,0.0494,0.033,0,0,0,0,0,0,0,0,0,0,0,0,0,0,0,0,0,0,0,0,0,0,0,0,0,0,0,-0.0115,-0.0082,-0.003,0.0099,0.0217,0.0236,0.0255,0.028,0.031,0.0343,0.0365,0.0379,0.0415,0.053,0.0662,0.0706,0.0687,0.0637,0.0519,0,0,0,0,0,0,0,0,0,0,0,0,0,0,0,0,0,0,0,0,0,0,0,0,0,0,0,-0.0181,-0.0159,-0.0041,0.0126,0.0173,0.0198,0.0222,0.025,0.0283,0.0324,0.036,0.0376,0.0379,0.0368,0.0374,0.0483,0.0585,0.0602,0.0547,0,0,0,0,0,0,0,0,0,0,0,0,0,0,0,0,0,0,0,0,0,0,0,0,0,0,0,-0.0264,-0.0222,-0.0066,0.0088,0.0124,0.0157,0.0192,0.0228,0.0261,0.0299,0.0338,0.0365,0.0374,0.0365,0.0352,0.0327,0.0341,0.0407,0.0439,0,0,0,0,0,0,0,0,0,0,0,0,0,0,0,0,0,0,0,0,0,0,0,0,0,0,-0.0387,-0.0346,-0.0341,-0.0228,-0.0063,0.0074,0.0137,0.0179,0.0228,0.0269,0.0299,0.0327,0.0357,0.0371,0.0354,0.033,0.0324,0.0332,0.0349,0.036,0,0,0,0,0,0,0,0,0,0,0,0,0,0,0,0,0,0,0,0,0,0,0,0,0,0,-0.0456,-0.0407,-0.036,-0.0277,-0.0173,-0.0038,0.0113,0.0211,0.0258,0.031,0.0352,0.0368,0.0371,0.0374,0.0357,0.0319,0.0299,0.0319,0.036,0.0401,0,0,0,0,0,0,0,0,0,0,0,0,0,0,0,0,0,0,0,0,0,0,0,0,0,0,0,-0.0343,-0.0242,-0.0022,0.0124,0.0135,0.0201,0.031,0.0368,0.039,0.0423,0.045,0.0439,0.0409,0.0374,0.0332,0.031,0.0352,0.0442,0.0536,0,0,0,0,0,0,0,0,0,0,0,0,0,0,0,0,0,0,0,0,0,0,0,0,0,0,0,-0.0242,-0.008,0.0244,0.0341,0.036,0.0412,0.05,0.0555,0.0547,0.0538,0.0538,0.0505,0.0456,0.0407,0.0371,0.0398,0.0508,0.0676,0.0832,0,0,0,0,0,0,0,0,0,0,0,0,0,0,0,0,0,0,0,0,0,0,0,0,0,0,0,-0.008,0.0242,0.0426,0.0461,0.0571,0.0665,0.0698,0.0731,0.0733,0.0684,0.0621,0.0525,0.0486,0.0486,0.05,0.0629,0.0797,0.0873,0.0909,0,0,0,0,0,0,0,0,0,0,0,0,0,0,0,0,0,0,0,0,0,0,0,0,0,0,-0.0187,0.039,0.0527,0.0604,0.0733,0.0821,0.0808,0.0742,0.0755,0.0832,0.0849,0.0791,0.0698,0.0634,0.0654,0.0722,0.064,0.0467,0.0489,0.061,0,0,0,0,0,0,0,0,0,0,0,0,0,0,0,0,0,0,0,0,0,0,0,0,0,0,0.025,0.0544,0.0662,0.0832,0.0887,0.0794,0.0618,0.0519,0.0643,0.0827,0.089,0.0829,0.0706,0.0604,0.0478,0.0338,0.0302,0.0349,0.0379,0.0387,0,0,0,0,0,0,0,0,0,0,0,0,0,0,0,0,0,0,0,0,0,0,0,0,0,0.006,0.0453,0.0645,0.0887,0.0975,0.0873,0.0604,0.0338,0.033,0.058,0.0692,0.0569,0.0445,0.0349,0.0264,0.0206,0.0277,0.0302,0.0187,0.0115,0.0143,0,0,0,0,0,0,0,0,0,0,0,0,0,0,0,0,0,0,0,0,0,0,0,0,0.0154,0.0467,0.0643,0.0956,0.1022,0.092,0.0667,0.0313,0.0104,0.0192,0.0387,0.0242,-0.0041,-0.0121,-0.0211,-0.0176,0.0008,0.0077,0.0027,0.0107,0.0236,0.028,0,0,0,0,0,0,0,0,0,0,0,0,0,0,0,0,0,0,0,0,0,0,0,0.0415,0.064,0.0846,0.1143,0.114,0.0986,0.0695,0.0335,0.0071,-0.0003,0.0019,0.0077,0.0044,-0.0286,-0.0514,-0.0385,-0.0187,-0.0014,0.0036,0.0173,0.036,0.036,0.0266,0,0,0,0,0,0,0,0,0,0,0,0,0,0,0,0,0,0,0,0,0,0.0168,0.0824,0.0928,0.1239,0.1379,0.1285,0.1052,0.0698,0.0305,-0.0022,-0.0113,-0.0036,-0.0019,0.0008,0.0088,-0.0058,-0.0255,-0.0124,0.0047,0.0118,0.011,0.0126,0.0121,0.0003,-0.0157]},{"header":{"parameterUnit":"m.s-1","parameterCategory":2,"la1":30.5641,"la2":29.4642,"lo1":-89.4342,"lo2":-87.9343,"dy":0.0333,"dx":0.0333,"nx":46,"ny":34,"refTime":"2025-11-10T00:00:00:Z","depth":"25","parameterNumber":3,"parameterNumberName":"V-component_of_CURRENTS"},"data":[0,0,0,0,0,0,0,0,0,0,0,0,0,0,0,0,0,0,0,0,0,0,0,0,0,0,0,0,0,0,0,0,0,0,0,0,0,0,0,0,0,0,0,0,0,0,0,0,0,0,0,0,0,0,0,0,0,0,0,0,0,0,0,0,0,0,0,0,0,0,0,0,0,0,0,0,0,0,0,0,0,0,0,0,0,0,0,0,0,0,0,0,0,0,0,0,0,0,0,0,0,0,0,0,0,0,0,0,0,0,0,0,0,0,0,0,0,0,0,0,0,0,0,0,0,0,0,0,0,0,0,0,0,0,0,0,0,0,0,0,0,0,0,0,0,0,0,0,0,0,0,0,0,0,0,0,0,0,0,0,0,0,0,0,0,0,0,0,0,0,0,0,0,0,0,0,0,0,0,0,0,0,0,0,0,0,0,0,0,0,0,0,0,0,0,0,0,0,0,0,0,0,0,0,0,0,0,0,0,0,0,0,0,0,0,0,0,0,0,0,0,0,0,0,0,0,0,0,0,0,0,0,0,0,0,0,0,0,0,0,0,0,0,0,0,0,0,0,0,0,0,0,0,0,0,0,0,0,0,0,0,0,0,0,0,0,0,0,0,0,0,0,0,0,0,0,0,0,0,0,0,0,0,0,0,0,0,0,0,0,0,0,0,0,0,0,0,0,0,0,0,0,0,0,0,0,0,0,0,0,0,0,0,0,0,0,0,0,0,0,0,0,0,0,0,0,0,0,0,0,0,0,0,0,0,0,0,0,0,0,0,0,0,0,0,0,0,0,0,0,0,0,0,0,0,0,0,0,0,0,0,0,0,0,0,0,0,0,0,0,0,0,0,0,0,0,0,0,0,0,0,0,0,0,0,0,0,0,0,0,0,0,0,0,0,0,0,0,0,0,0,0,0,0,0,0,0,0,0,0,0,0,0,0,0,0,0,0,0,0,0,0,0,0,0,0,0,0,0,0,0,0,0,0,0,0,0,0,0,0,0,0,0,0,0,0,0,0,0,0,0,0,0,0,0,0,0,0,0,0,0,0,0,0,0,0,0,0,0,0,0,0,0,0,0,0,0,0,0,0,0,0,0,0,0,0,0,0,0,0,0,0,0,0,0,0,0,0,0,0,0,0,0,0,0,0,0,0,0,0,0,0,0,0,0,0,0,0,0,0,0,0,0,0,0,0,0,0,0,0,0,0,0,0,0,0,0,0,0,0,0,0,0,0,0,0,0,0,0,0,0,0,0,0,0,0,0,0,0,0,0,0,0,0,0,0,0,0,0,0,0,0,0,0,0,0,0,0,0,0,0,0,0,0,0,0,0,0,0,0,0,0,0,0,0,0,0,0,0,0,0,0,0,0,0,0,0,0,0,0,0,0,0,0,0,0,0,0,0,0,0,0,0,0,0,0,0,0,0,0,0,0,0,0,0,0,0,0,0,0,0,0,0,0,0,0,0,0,0,0,0,0,0,0,0,0,0,0,0,0,0,0,0,0,0,0,0,0,0,0,0,0,0,0,0,0,0,0,0,0,0,0,0,0,0,0,0,0,0,0,0,0,0,0,0,0,0,0,0,0,0,0,0,0,0,0,0,0,0,0,0,0,0,0,0,0,0,0,0,0,0,0,0,0,0,0,0,0,0,0,0,0,0,0,0,0,0,0,0,0,0,0,0,0,0,0,0,0,0,0,0,0,0,0,0,0,0,0,0,0,0,0,0,0,0,0,0,0,0,0,0,0,0,0,0,0,0,0,0,0,0,0,0,0,0,0,0,0,0,0,0,0,0,0,0,0,0,0,0,0,0,0,0,0,0,0,0,0,0,0,0,0.0327,0.0319,0.0305,0.0277,0.0228,0.0179,0.0165,0,0,0,0,0,0,0,0,0,0,0,0,0,0,0,0,0,0,0,0,0,0,0,0,0,0,0,0,0,0,0,0,0,0,0,0,0,0.0327,0.0324,0.0324,0.0308,0.0236,0.0173,0.011,0.0063,0.0052,0.0058,0.0049,0.0014,-0.0016,-0.0055,0,0,0,0,0,0,0,0,0,0,0,0,0,0,0,0,0,0,0,0,0,0,0,0,0,0,0,0,0,0,0,0,0.0297,0.0294,0.0297,0.0206,0.0063,-0.0011,-0.0069,-0.0118,-0.0151,-0.0173,-0.0181,-0.0159,-0.0082,0.0016,0.0055,-0.0027,-0.0093,-0.014,-0.019,0,0,0,0,0,0,0,0,0,0,0,0,0,0,0,0,0,0,0,0,0,0,0,0,0,0,0,0.0272,0.0275,0.0203,0.0008,-0.0074,-0.0102,-0.0126,-0.0154,-0.0195,-0.025,-0.0302,-0.0327,-0.031,-0.0231,-0.0102,-0.0041,-0.0058,-0.0099,-0.0121,0,0,0,0,0,0,0,0,0,0,0,0,0,0,0,0,0,0,0,0,0,0,0,0,0,0,0,0.0239,0.0255,0.0041,-0.008,-0.0077,-0.0096,-0.0115,-0.0135,-0.0162,-0.0214,-0.0277,-0.0341,-0.039,-0.0412,-0.0357,-0.0264,-0.0211,-0.0203,-0.0209,0,0,0,0,0,0,0,0,0,0,0,0,0,0,0,0,0,0,0,0,0,0,0,0,0,0,0,0.0222,0.0236,-0.0033,-0.0093,-0.0066,-0.0069,-0.0091,-0.0121,-0.0148,-0.0184,-0.0236,-0.0302,-0.0374,-0.0445,-0.0516,-0.0549,-0.0505,-0.0448,-0.0396,0,0,0,0,0,0,0,0,0,0,0,0,0,0,0,0,0,0,0,0,0,0,0,0,0,0,0.0217,0.0255,0.0288,0.0126,-0.0005,-0.0044,-0.0027,-0.0044,-0.0088,-0.0143,-0.0192,-0.0231,-0.0283,-0.0357,-0.0437,-0.0519,-0.0602,-0.0651,-0.064,-0.0585,0,0,0,0,0,0,0,0,0,0,0,0,0,0,0,0,0,0,0,0,0,0,0,0,0,0,0.0233,0.028,0.0343,0.0371,0.0308,0.0184,0.006,0.0008,-0.0025,-0.0093,-0.0198,-0.0277,-0.0319,-0.0376,-0.0442,-0.0503,-0.0566,-0.0634,-0.0659,-0.0637,0,0,0,0,0,0,0,0,0,0,0,0,0,0,0,0,0,0,0,0,0,0,0,0,0,0,0,0.0316,0.0448,0.056,0.0571,0.0492,0.0272,0.0088,0.0033,-0.0022,-0.0132,-0.0308,-0.0412,-0.0453,-0.0489,-0.0508,-0.0519,-0.0549,-0.0593,-0.0593,0,0,0,0,0,0,0,0,0,0,0,0,0,0,0,0,0,0,0,0,0,0,0,0,0,0,0,0.0423,0.0623,0.0692,0.0621,0.0497,0.031,0.0121,0.003,0.0003,-0.0071,-0.0264,-0.0486,-0.0571,-0.0582,-0.0527,-0.0459,-0.0428,-0.0472,-0.0511,0,0,0,0,0,0,0,0,0,0,0,0,0,0,0,0,0,0,0,0,0,0,0,0,0,0,0,0.061,0.0882,0.0805,0.0593,0.0321,0.0132,-0.0008,-0.0074,-0.0033,-0.0096,-0.0247,-0.05,-0.0678,-0.0687,-0.0527,-0.0431,-0.0478,-0.0511,-0.05,0,0,0,0,0,0,0,0,0,0,0,0,0,0,0,0,0,0,0,0,0,0,0,0,0,0,0.0431,0.0906,0.109,0.0736,0.0445,0.0269,0.0077,-0.0069,-0.0069,-0.0033,-0.0151,-0.0346,-0.0613,-0.0783,-0.0739,-0.0645,-0.0555,-0.0393,-0.0302,-0.0255,0,0,0,0,0,0,0,0,0,0,0,0,0,0,0,0,0,0,0,0,0,0,0,0,0,0,0.0634,0.1159,0.095,0.0522,0.0412,0.0247,-0.0019,-0.0041,0.0126,0.0055,-0.0217,-0.0497,-0.0802,-0.0898,-0.0876,-0.0731,-0.0525,-0.0107,0.0027,0.0066,0,0,0,0,0,0,0,0,0,0,0,0,0,0,0,0,0,0,0,0,0,0,0,0,0,0.0591,0.0992,0.1022,0.0533,0.045,0.0324,0.0077,-0.0176,0.0077,0.0261,-0.0003,-0.0255,-0.0599,-0.0904,-0.1055,-0.0923,-0.058,-0.0222,0.0049,0.0071,0.0107,0,0,0,0,0,0,0,0,0,0,0,0,0,0,0,0,0,0,0,0,0,0,0,0,0.0692,0.0783,0.0898,0.0563,0.0516,0.0346,0.0071,-0.0159,-0.031,0.0137,0.0269,-0.0126,-0.025,-0.0615,-0.0937,-0.0972,-0.0706,-0.0371,-0.0203,-0.0121,0.0014,0.0036,0,0,0,0,0,0,0,0,0,0,0,0,0,0,0,0,0,0,0,0,0,0,0,0.0739,0.0634,0.0634,0.0549,0.0577,0.0415,0.0115,-0.0187,-0.0453,-0.0439,0.0044,0.0228,-0.0143,-0.0341,-0.0582,-0.0805,-0.0687,-0.0494,-0.0305,-0.0299,-0.0159,-0.0052,-0.0132,0,0,0,0,0,0,0,0,0,0,0,0,0,0,0,0,0,0,0,0,0,0.0615,0.0634,0.0349,0.0371,0.0503,0.0596,0.0483,0.0217,-0.0074,-0.0253,-0.0577,-0.0505,-0.011,0.0176,-0.0157,-0.0689,-0.0739,-0.0681,-0.0571,-0.0461,-0.0431,-0.0308,-0.0118,-0.0096,-0.0115]}]]